[[{"header":{"parameterUnit":"m.s-1","parameterCategory":1,"la1":31.0,"la2":29.5877,"lo1":-88.7671,"lo2":-86.6584,"dy":0.0162,"dx":0.0185,"nx":115,"ny":88,"refTime":"2023-03-27T18:00:00:Z","depth":0,"parameterNumber":2,"parameterNumberName":"U-component_of_WINDS"},"data":[0.0,0.0,0.0,0.0,0.0,0.0,0.0,0.0,0.0,0.0,0.0,0.0,0.0,0.0,0.0,0.0,0.0,0.0,0.0,0.0,0.0,0.0,0.0,0.0,0.0,0.0,0.0,0.0,0.0,0.0,0.0,0.0,0.0,0.0,0.0,0.0,0.0,0.0,0.0,0.0,0.0,0.0,0.0,0.0,0.0,0.0,0.0,0.0,0.0,0.0,0.0,0.0,0.0,0.0,0.0,0.0,0.0,0.0,0.0,0.0,0.0,0.0,0.0,0.0,0.0,0.0,0.0,0.0,0.0,0.0,0.0,0.0,0.0,0.0,0.0,0.0,0.0,0.0,0.0,0.0,0.0,0.0,0.0,0.0,0.0,0.0,0.0,0.0,0.0,0.0,0.0,0.0,0.0,0.0,0.0,0.0,0.0,0.0,0.0,0.0,0.0,0.0,0.0,0.0,0.0,0.0,0.0,0.0,0.0,0.0,0.0,0.0,0.0,0.0,0.0,0.0,0.0,0.0,0.0,0.0,0.0,0.0,0.0,0.0,0.0,0.0,0.0,0.0,0.0,0.0,0.0,0.0,0.0,0.0,0.0,0.0,0.0,0.0,0.0,0.0,0.0,0.0,0.0,0.0,0.0,0.0,0.0,0.0,0.0,0.0,0.0,0.0,0.0,0.0,0.0,0.0,0.0,0.0,0.0,0.0,0.0,0.0,0.0,0.0,0.0,0.0,0.0,0.0,0.0,0.0,0.0,0.0,0.0,0.0,0.0,0.0,0.0,0.0,0.0,0.0,0.0,0.0,0.0,0.0,0.0,0.0,0.0,0.0,0.0,0.0,0.0,0.0,0.0,0.0,0.0,0.0,0.0,0.0,0.0,0.0,0.0,0.0,0.0,0.0,0.0,0.0,0.0,0.0,0.0,0.0,0.0,0.0,0.0,0.0,0.0,0.0,0.0,0.0,0.0,0.0,0.0,0.0,0.0,0.0,0.0,0.0,0.0,0.0,0.0,0.0,0.0,0.0,0.0,0.0,0.0,0.0,0.0,0.0,0.0,0.0,0.0,0.0,0.0,0.0,0.0,0.0,0.0,0.0,0.0,0.0,0.0,0.0,0.0,0.0,0.0,0.0,0.0,0.0,0.0,0.0,0.0,0.0,0.0,0.0,0.0,0.0,0.0,0.0,0.0,0.0,0.0,0.0,0.0,0.0,0.0,0.0,0.0,0.0,0.0,0.0,0.0,0.0,0.0,0.0,0.0,0.0,0.0,0.0,0.0,0.0,0.0,0.0,0.0,0.0,0.0,0.0,0.0,0.0,0.0,0.0,0.0,0.0,0.0,0.0,0.0,0.0,0.0,0.0,0.0,0.0,0.0,0.0,0.0,0.0,0.0,0.0,0.0,0.0,0.0,0.0,0.0,0.0,0.0,0.0,0.0,0.0,0.0,0.0,0.0,0.0,0.0,0.0,0.0,0.0,0.0,0.0,0.0,0.0,0.0,0.0,0.0,0.0,0.0,0.0,0.0,0.0,0.0,0.0,0.0,0.0,0.0,0.0,0.0,0.0,0.0,0.0,0.0,0.0,0.0,0.0,0.0,0.0,0.0,0.0,0.0,0.0,0.0,0.0,0.0,0.0,0.0,0.0,0.0,0.0,0.0,0.0,0.0,0.0,0.0,0.0,0.0,0.0,0.0,0.0,0.0,0.0,0.0,0.0,0.0,0.0,0.0,0.0,0.0,0.0,0.0,0.0,0.0,0.0,0.0,0.0,0.0,0.0,0.0,0.0,0.0,0.0,0.0,0.0,0.0,0.0,0.0,0.0,0.0,0.0,0.0,0.0,0.0,0.0,0.0,0.0,0.0,0.0,0.0,0.0,0.0,0.0,0.0,0.0,0.0,0.0,0.0,0.0,0.0,0.0,0.0,0.0,0.0,0.0,0.0,0.0,0.0,0.0,0.0,0.0,0.0,0.0,0.0,0.0,0.0,0.0,0.0,0.0,0.0,0.0,0.0,0.0,0.0,0.0,0.0,0.0,0.0,0.0,0.0,0.0,0.0,0.0,0.0,0.0,0.0,0.0,0.0,0.0,0.0,0.0,0.0,0.0,0.0,0.0,0.0,0.0,0.0,0.0,0.0,0.0,0.0,0.0,0.0,0.0,0.0,0.0,0.0,0.0,0.0,0.0,0.0,0.0,0.0,0.0,0.0,0.0,0.0,0.0,0.0,0.0,0.0,0.0,0.0,0.0,0.0,0.0,0.0,0.0,0.0,0.0,0.0,0.0,0.0,0.0,0.0,0.0,0.0,0.0,0.0,0.0,0.0,0.0,0.0,0.0,0.0,0.0,0.0,0.0,0.0,0.0,0.0,0.0,0.0,0.0,0.0,0.0,0.0,0.0,0.0,0.0,0.0,0.0,0.0,0.0,0.0,0.0,0.0,0.0,0.0,0.0,0.0,0.0,0.0,0.0,0.0,0.0,0.0,0.0,0.0,0.0,0.0,0.0,0.0,0.0,0.0,0.0,0.0,0.0,0.0,0.0,0.0,0.0,0.0,0.0,0.0,0.0,0.0,0.0,0.0,0.0,0.0,0.0,0.0,0.0,0.0,0.0,0.0,0.0,0.0,0.0,0.0,0.0,0.0,0.0,0.0,0.0,0.0,0.0,0.0,0.0,0.0,0.0,0.0,0.0,0.0,0.0,0.0,0.0,0.0,0.0,0.0,0.0,0.0,0.0,0.0,0.0,0.0,0.0,0.0,0.0,0.0,0.0,0.0,0.0,0.0,0.0,0.0,0.0,0.0,0.0,0.0,0.0,0.0,0.0,0.0,0.0,0.0,0.0,0.0,0.0,0.0,0.0,0.0,0.0,0.0,0.0,0.0,0.0,0.0,0.0,0.0,0.0,0.0,0.0,0.0,0.0,0.0,0.0,0.0,0.0,0.0,0.0,0.0,0.0,0.0,0.0,0.0,0.0,0.0,0.0,0.0,0.0,0.0,0.0,0.0,0.0,0.0,0.0,0.0,0.0,0.0,0.0,0.0,0.0,0.0,0.0,0.0,0.0,0.0,0.0,0.0,0.0,0.0,0.0,0.0,0.0,0.0,0.0,0.0,0.0,0.0,0.0,0.0,0.0,0.0,0.0,0.0,0.0,0.0,0.0,0.0,0.0,0.0,0.0,0.0,0.0,0.0,0.0,0.0,0.0,0.0,0.0,0.0,0.0,0.0,0.0,0.0,0.0,0.0,0.0,0.0,0.0,0.0,0.0,0.0,0.0,0.0,0.0,0.0,0.0,0.0,0.0,0.0,0.0,0.0,0.0,0.0,0.0,0.0,0.0,0.0,0.0,0.0,0.0,0.0,0.0,0.0,0.0,0.0,0.0,0.0,0.0,0.0,0.0,0.0,0.0,0.0,0.0,0.0,0.0,0.0,0.0,0.0,0.0,0.0,0.0,0.0,0.0,0.0,0.0,0.0,0.0,0.0,0.0,0.0,0.0,0.0,0.0,0.0,0.0,0.0,0.0,0.0,0.0,0.0,0.0,0.0,0.0,0.0,0.0,0.0,0.0,0.0,0.0,0.0,0.0,0.0,0.0,0.0,0.0,0.0,0.0,0.0,0.0,0.0,0.0,0.0,0.0,0.0,0.0,0.0,0.0,0.0,0.0,0.0,0.0,0.0,0.0,0.0,0.0,0.0,0.0,0.0,0.0,0.0,0.0,0.0,0.0,0.0,0.0,0.0,0.0,0.0,0.0,0.0,0.0,0.0,0.0,0.0,0.0,0.0,0.0,0.0,0.0,0.0,0.0,0.0,0.0,0.0,0.0,0.0,0.0,0.0,0.0,0.0,0.0,0.0,0.0,0.0,0.0,0.0,0.0,0.0,0.0,0.0,0.0,0.0,0.0,0.0,0.0,0.0,0.0,0.0,0.0,0.0,0.0,0.0,0.0,0.0,0.0,0.0,0.0,0.0,0.0,0.0,0.0,0.0,0.0,0.0,0.0,0.0,0.0,0.0,0.0,0.0,0.0,0.0,0.0,0.0,0.0,0.0,0.0,0.0,0.0,0.0,0.0,0.0,0.0,0.0,0.0,0.0,0.0,0.0,0.0,0.0,0.0,0.0,0.0,0.0,0.0,0.0,0.0,0.0,0.0,0.0,0.0,0.0,0.0,0.0,0.0,0.0,0.0,0.0,0.0,0.0,0.0,0.0,0.0,0.0,0.0,0.0,0.0,0.0,0.0,0.0,0.0,0.0,0.0,0.0,0.0,0.0,0.0,-6.6798,0.0,0.0,0.0,0.0,0.0,0.0,0.0,0.0,0.0,0.0,0.0,0.0,0.0,0.0,0.0,0.0,0.0,0.0,0.0,0.0,0.0,0.0,0.0,0.0,0.0,0.0,0.0,0.0,0.0,0.0,0.0,0.0,0.0,0.0,0.0,0.0,0.0,0.0,0.0,0.0,0.0,0.0,0.0,0.0,0.0,0.0,0.0,0.0,0.0,0.0,0.0,0.0,0.0,0.0,0.0,0.0,0.0,0.0,0.0,0.0,0.0,0.0,0.0,0.0,0.0,0.0,0.0,0.0,0.0,0.0,0.0,0.0,0.0,0.0,0.0,0.0,0.0,0.0,0.0,0.0,0.0,0.0,0.0,0.0,0.0,0.0,0.0,0.0,0.0,0.0,0.0,0.0,0.0,0.0,0.0,0.0,0.0,0.0,0.0,0.0,0.0,0.0,0.0,0.0,0.0,0.0,0.0,0.0,0.0,0.0,-6.6823,-6.6823,-6.6792,-6.6798,-6.6798,0.0,0.0,0.0,0.0,0.0,0.0,0.0,0.0,0.0,0.0,0.0,0.0,0.0,0.0,0.0,0.0,0.0,0.0,0.0,0.0,0.0,0.0,0.0,0.0,0.0,0.0,0.0,0.0,0.0,0.0,0.0,0.0,0.0,0.0,0.0,0.0,0.0,0.0,0.0,0.0,0.0,0.0,0.0,0.0,0.0,0.0,0.0,0.0,0.0,0.0,0.0,0.0,0.0,0.0,0.0,0.0,0.0,0.0,0.0,0.0,0.0,0.0,0.0,0.0,0.0,0.0,0.0,0.0,0.0,0.0,0.0,0.0,0.0,0.0,0.0,0.0,0.0,0.0,0.0,0.0,0.0,0.0,0.0,0.0,0.0,0.0,0.0,0.0,0.0,0.0,0.0,0.0,0.0,0.0,0.0,0.0,0.0,0.0,0.0,0.0,0.0,0.0,0.0,0.0,0.0,0.0,0.0,0.0,0.0,0.0,0.0,0.0,-6.6817,-6.6787,-6.6792,0.0,0.0,0.0,0.0,0.0,0.0,0.0,0.0,0.0,0.0,0.0,0.0,0.0,0.0,0.0,0.0,0.0,0.0,0.0,0.0,0.0,0.0,0.0,0.0,0.0,0.0,0.0,0.0,0.0,0.0,0.0,0.0,0.0,0.0,0.0,0.0,0.0,0.0,0.0,0.0,0.0,0.0,0.0,0.0,0.0,0.0,0.0,0.0,0.0,0.0,0.0,0.0,0.0,0.0,0.0,0.0,0.0,0.0,0.0,0.0,0.0,0.0,0.0,0.0,0.0,0.0,0.0,0.0,0.0,0.0,0.0,0.0,0.0,0.0,0.0,0.0,0.0,0.0,0.0,0.0,0.0,0.0,0.0,0.0,0.0,0.0,0.0,0.0,0.0,0.0,0.0,0.0,0.0,0.0,0.0,0.0,0.0,0.0,0.0,0.0,0.0,0.0,0.0,0.0,0.0,0.0,0.0,0.0,0.0,0.0,-6.6728,-6.6787,-6.6787,0.0,-6.6814,0.0,0.0,0.0,0.0,0.0,0.0,0.0,0.0,0.0,0.0,0.0,0.0,0.0,0.0,0.0,0.0,0.0,0.0,0.0,0.0,0.0,0.0,0.0,0.0,0.0,0.0,0.0,0.0,0.0,0.0,0.0,0.0,0.0,0.0,0.0,0.0,0.0,0.0,0.0,0.0,0.0,0.0,0.0,0.0,0.0,0.0,0.0,0.0,0.0,0.0,0.0,0.0,0.0,0.0,0.0,0.0,0.0,0.0,0.0,0.0,0.0,0.0,0.0,0.0,0.0,0.0,0.0,0.0,0.0,0.0,0.0,0.0,0.0,0.0,0.0,0.0,0.0,0.0,0.0,0.0,0.0,0.0,0.0,0.0,0.0,0.0,0.0,0.0,0.0,0.0,0.0,0.0,0.0,0.0,0.0,0.0,0.0,0.0,0.0,0.0,0.0,0.0,0.0,0.0,0.0,0.0,0.0,0.0,0.0,0.0,-6.6634,-6.6683,-6.6711,-6.6736,0.0,0.0,0.0,0.0,0.0,0.0,0.0,0.0,0.0,0.0,0.0,0.0,0.0,0.0,0.0,0.0,0.0,0.0,0.0,0.0,0.0,0.0,0.0,0.0,0.0,0.0,0.0,0.0,0.0,0.0,0.0,0.0,0.0,0.0,0.0,0.0,0.0,0.0,0.0,0.0,0.0,0.0,0.0,0.0,0.0,0.0,0.0,0.0,0.0,0.0,0.0,0.0,0.0,0.0,0.0,0.0,0.0,0.0,0.0,0.0,0.0,0.0,0.0,0.0,0.0,0.0,0.0,0.0,0.0,0.0,0.0,0.0,0.0,0.0,0.0,0.0,0.0,0.0,0.0,0.0,0.0,0.0,0.0,0.0,0.0,0.0,0.0,0.0,0.0,0.0,0.0,0.0,0.0,0.0,0.0,0.0,0.0,0.0,0.0,0.0,0.0,0.0,0.0,0.0,0.0,0.0,0.0,0.0,0.0,0.0,-6.6581,-6.66,-6.6579,-6.6668,-6.6702,-6.6763,0.0,0.0,0.0,0.0,0.0,0.0,0.0,0.0,0.0,0.0,0.0,0.0,0.0,0.0,0.0,0.0,0.0,0.0,0.0,0.0,0.0,0.0,0.0,0.0,0.0,0.0,0.0,0.0,0.0,0.0,0.0,0.0,0.0,0.0,0.0,0.0,0.0,0.0,0.0,0.0,0.0,0.0,0.0,0.0,0.0,0.0,0.0,0.0,0.0,0.0,0.0,0.0,0.0,0.0,0.0,0.0,0.0,0.0,0.0,0.0,0.0,0.0,0.0,0.0,0.0,0.0,0.0,0.0,0.0,0.0,0.0,0.0,0.0,0.0,0.0,0.0,0.0,0.0,0.0,0.0,0.0,0.0,0.0,0.0,0.0,0.0,0.0,0.0,0.0,0.0,0.0,0.0,0.0,0.0,0.0,0.0,0.0,0.0,0.0,0.0,0.0,0.0,0.0,0.0,0.0,0.0,0.0,0.0,-6.6508,-6.6516,-6.6514,-6.6581,-6.6579,-6.6647,0.0,0.0,0.0,0.0,0.0,0.0,0.0,0.0,0.0,0.0,0.0,0.0,0.0,0.0,0.0,0.0,0.0,0.0,0.0,0.0,0.0,0.0,0.0,0.0,0.0,0.0,0.0,0.0,0.0,0.0,0.0,0.0,0.0,0.0,0.0,0.0,0.0,0.0,0.0,0.0,0.0,0.0,0.0,0.0,0.0,0.0,0.0,0.0,0.0,0.0,0.0,0.0,0.0,0.0,0.0,0.0,0.0,0.0,0.0,0.0,0.0,0.0,0.0,0.0,0.0,0.0,0.0,0.0,0.0,0.0,0.0,0.0,0.0,0.0,0.0,0.0,0.0,0.0,0.0,0.0,0.0,0.0,0.0,0.0,0.0,0.0,0.0,0.0,0.0,0.0,0.0,0.0,0.0,0.0,0.0,0.0,0.0,0.0,0.0,0.0,0.0,0.0,0.0,0.0,0.0,0.0,0.0,0.0,0.0,-6.6428,-6.6428,-6.6469,-6.6507,-6.6528,-6.6562,0.0,0.0,0.0,0.0,0.0,0.0,0.0,0.0,0.0,0.0,0.0,0.0,0.0,0.0,0.0,0.0,0.0,0.0,0.0,0.0,0.0,0.0,0.0,0.0,0.0,0.0,0.0,0.0,0.0,0.0,0.0,0.0,0.0,0.0,0.0,0.0,0.0,0.0,0.0,0.0,0.0,0.0,0.0,0.0,0.0,0.0,0.0,0.0,0.0,0.0,0.0,0.0,0.0,0.0,0.0,0.0,0.0,0.0,0.0,0.0,0.0,0.0,0.0,0.0,0.0,0.0,0.0,0.0,0.0,0.0,0.0,0.0,0.0,0.0,0.0,0.0,0.0,0.0,0.0,0.0,0.0,0.0,0.0,0.0,0.0,0.0,0.0,0.0,0.0,0.0,0.0,0.0,0.0,0.0,0.0,0.0,0.0,0.0,0.0,0.0,0.0,0.0,0.0,0.0,0.0,0.0,0.0,0.0,0.0,-6.6757,0.0,-6.6821,-6.685,-6.6858,-6.6742,0.0,0.0,0.0,0.0,0.0,0.0,0.0,0.0,0.0,0.0,0.0,0.0,0.0,0.0,0.0,0.0,0.0,0.0,0.0,0.0,0.0,0.0,0.0,0.0,0.0,0.0,0.0,0.0,0.0,0.0,0.0,0.0,0.0,0.0,0.0,0.0,0.0,0.0,0.0,0.0,0.0,0.0,0.0,0.0,0.0,0.0,0.0,0.0,0.0,0.0,0.0,0.0,0.0,0.0,0.0,0.0,0.0,0.0,0.0,0.0,0.0,0.0,0.0,0.0,0.0,0.0,0.0,0.0,0.0,0.0,0.0,0.0,0.0,0.0,0.0,0.0,0.0,0.0,0.0,0.0,0.0,0.0,0.0,0.0,0.0,0.0,0.0,0.0,0.0,0.0,0.0,0.0,0.0,0.0,0.0,0.0,0.0,0.0,0.0,0.0,0.0,0.0,0.0,0.0,0.0,0.0,0.0,0.0,-6.6494,-6.7462,-6.7551,-6.76,-6.7608,-6.7578,-6.7235,0.0,0.0,0.0,0.0,0.0,0.0,0.0,0.0,0.0,0.0,0.0,0.0,0.0,0.0,0.0,0.0,0.0,0.0,0.0,0.0,0.0,0.0,0.0,0.0,0.0,0.0,0.0,0.0,0.0,0.0,0.0,0.0,0.0,0.0,0.0,0.0,0.0,0.0,0.0,0.0,0.0,0.0,0.0,0.0,0.0,0.0,0.0,0.0,0.0,0.0,0.0,0.0,0.0,0.0,0.0,0.0,0.0,0.0,0.0,0.0,0.0,0.0,0.0,0.0,0.0,0.0,0.0,0.0,0.0,0.0,0.0,0.0,0.0,0.0,0.0,0.0,0.0,0.0,0.0,0.0,0.0,0.0,0.0,0.0,0.0,0.0,0.0,0.0,0.0,0.0,0.0,0.0,0.0,0.0,0.0,0.0,0.0,0.0,0.0,0.0,0.0,0.0,0.0,0.0,0.0,0.0,0.0,0.0,0.0,-6.7371,-6.7972,-6.8287,-6.8264,-6.7802,-6.7426,0.0,0.0,0.0,0.0,0.0,0.0,0.0,0.0,0.0,0.0,0.0,0.0,0.0,0.0,0.0,0.0,0.0,0.0,0.0,0.0,0.0,0.0,0.0,0.0,0.0,0.0,0.0,0.0,0.0,0.0,0.0,0.0,0.0,0.0,0.0,0.0,0.0,0.0,0.0,0.0,0.0,0.0,0.0,0.0,0.0,0.0,0.0,0.0,0.0,0.0,0.0,0.0,0.0,0.0,0.0,0.0,0.0,0.0,0.0,0.0,0.0,0.0,0.0,0.0,0.0,0.0,0.0,0.0,0.0,0.0,0.0,0.0,0.0,0.0,0.0,0.0,0.0,0.0,0.0,0.0,0.0,0.0,0.0,0.0,0.0,0.0,0.0,0.0,0.0,0.0,0.0,0.0,0.0,0.0,0.0,0.0,0.0,0.0,0.0,0.0,0.0,0.0,0.0,0.0,0.0,0.0,0.0,0.0,0.0,-6.7742,-6.8588,-6.9049,-6.9069,-6.8342,-6.7768,-6.7472,0.0,0.0,0.0,0.0,0.0,0.0,0.0,0.0,0.0,0.0,0.0,0.0,0.0,0.0,0.0,0.0,0.0,0.0,0.0,0.0,0.0,0.0,0.0,0.0,0.0,0.0,0.0,0.0,0.0,0.0,0.0,0.0,0.0,0.0,0.0,0.0,0.0,0.0,0.0,0.0,0.0,0.0,0.0,0.0,0.0,0.0,0.0,0.0,0.0,0.0,0.0,0.0,0.0,0.0,0.0,0.0,0.0,0.0,0.0,0.0,0.0,0.0,0.0,0.0,0.0,0.0,0.0,0.0,0.0,0.0,0.0,0.0,0.0,0.0,0.0,0.0,0.0,0.0,0.0,0.0,0.0,0.0,0.0,0.0,0.0,0.0,0.0,0.0,0.0,0.0,0.0,0.0,0.0,0.0,0.0,0.0,0.0,0.0,0.0,0.0,0.0,0.0,0.0,0.0,0.0,0.0,0.0,0.0,-6.8398,-6.9348,-6.9874,-6.9936,-6.9049,-6.8224,0.0,0.0,0.0,0.0,0.0,0.0,0.0,0.0,0.0,0.0,0.0,0.0,0.0,0.0,0.0,0.0,0.0,0.0,0.0,0.0,0.0,0.0,0.0,0.0,0.0,0.0,0.0,0.0,0.0,0.0,0.0,0.0,0.0,0.0,0.0,0.0,0.0,0.0,0.0,0.0,0.0,0.0,0.0,0.0,0.0,0.0,0.0,0.0,0.0,0.0,0.0,0.0,0.0,0.0,0.0,0.0,0.0,0.0,0.0,0.0,0.0,0.0,0.0,0.0,0.0,0.0,0.0,0.0,0.0,0.0,0.0,0.0,0.0,0.0,0.0,0.0,0.0,0.0,0.0,0.0,0.0,0.0,0.0,0.0,0.0,0.0,0.0,0.0,0.0,0.0,0.0,0.0,0.0,0.0,0.0,0.0,0.0,0.0,0.0,0.0,0.0,0.0,0.0,0.0,0.0,0.0,0.0,0.0,0.0,-6.8475,-6.9835,-7.0631,-7.0606,-6.9271,-6.8448,0.0,0.0,0.0,0.0,0.0,0.0,0.0,0.0,0.0,0.0,0.0,0.0,0.0,0.0,0.0,0.0,0.0,0.0,0.0,0.0,0.0,0.0,0.0,0.0,0.0,0.0,0.0,0.0,0.0,0.0,0.0,0.0,0.0,0.0,0.0,0.0,0.0,0.0,0.0,0.0,0.0,0.0,0.0,0.0,0.0,0.0,0.0,0.0,0.0,0.0,0.0,0.0,0.0,0.0,0.0,0.0,0.0,0.0,0.0,0.0,0.0,0.0,0.0,0.0,0.0,0.0,0.0,0.0,0.0,0.0,0.0,0.0,0.0,0.0,0.0,0.0,0.0,0.0,0.0,0.0,0.0,0.0,0.0,0.0,0.0,0.0,0.0,0.0,0.0,0.0,0.0,0.0,0.0,0.0,0.0,0.0,0.0,0.0,0.0,0.0,0.0,0.0,0.0,0.0,0.0,0.0,0.0,0.0,-6.8398,-6.8423,-7.0052,-7.0898,-7.0898,-6.9322,-6.845,0.0,0.0,0.0,0.0,0.0,0.0,0.0,0.0,0.0,0.0,0.0,0.0,0.0,0.0,0.0,0.0,0.0,0.0,0.0,0.0,0.0,0.0,0.0,0.0,0.0,0.0,0.0,0.0,0.0,0.0,0.0,0.0,0.0,0.0,0.0,0.0,0.0,0.0,0.0,0.0,0.0,0.0,0.0,0.0,0.0,0.0,0.0,0.0,0.0,0.0,0.0,0.0,0.0,0.0,0.0,0.0,0.0,0.0,0.0,0.0,0.0,0.0,0.0,0.0,0.0,0.0,0.0,0.0,0.0,0.0,0.0,0.0,0.0,0.0,0.0,0.0,0.0,0.0,0.0,0.0,0.0,0.0,0.0,0.0,0.0,0.0,0.0,0.0,0.0,0.0,0.0,0.0,0.0,0.0,0.0,0.0,0.0,0.0,0.0,0.0,0.0,0.0,0.0,0.0,0.0,0.0,0.0,0.0,-6.8371,-6.8371,-7.0025,-7.0871,-7.0832,-6.9269,-6.8398,0.0,0.0,0.0,0.0,0.0,0.0,0.0,0.0,0.0,0.0,0.0,0.0,0.0,0.0,0.0,0.0,0.0,0.0,0.0,0.0,0.0,0.0,0.0,0.0,0.0,0.0,0.0,0.0,0.0,0.0,0.0,0.0,0.0,0.0,0.0,0.0,0.0,0.0,0.0,0.0,0.0,0.0,0.0,0.0,0.0,0.0,0.0,0.0,0.0,0.0,0.0,0.0,0.0,0.0,0.0,0.0,0.0,0.0,0.0,0.0,0.0,0.0,0.0,0.0,0.0,0.0,0.0,0.0,0.0,0.0,0.0,0.0,0.0,0.0,0.0,0.0,0.0,0.0,0.0,0.0,0.0,0.0,0.0,0.0,0.0,0.0,0.0,0.0,0.0,0.0,0.0,0.0,0.0,0.0,0.0,0.0,0.0,0.0,0.0,0.0,0.0,0.0,0.0,0.0,0.0,0.0,0.0,0.0,-6.8276,-6.8272,-6.9884,-7.0767,-7.0729,-6.9215,-6.8398,0.0,0.0,0.0,0.0,0.0,0.0,0.0,0.0,0.0,0.0,0.0,0.0,0.0,0.0,0.0,0.0,0.0,0.0,0.0,0.0,0.0,0.0,0.0,0.0,0.0,0.0,0.0,0.0,0.0,0.0,0.0,0.0,0.0,0.0,0.0,0.0,0.0,0.0,0.0,0.0,0.0,0.0,0.0,0.0,0.0,0.0,0.0,0.0,-6.1838,0.0,0.0,0.0,0.0,0.0,0.0,0.0,0.0,0.0,0.0,0.0,0.0,0.0,0.0,0.0,0.0,0.0,0.0,0.0,0.0,0.0,0.0,0.0,0.0,0.0,0.0,0.0,0.0,0.0,0.0,0.0,0.0,0.0,0.0,0.0,0.0,0.0,0.0,0.0,0.0,0.0,0.0,0.0,0.0,0.0,0.0,0.0,0.0,0.0,0.0,0.0,0.0,0.0,0.0,0.0,0.0,0.0,0.0,0.0,-6.8286,-6.8648,-6.9911,-7.0578,-7.0532,-6.9035,-6.8276,0.0,0.0,0.0,0.0,0.0,0.0,0.0,0.0,0.0,0.0,0.0,0.0,0.0,0.0,0.0,0.0,0.0,0.0,0.0,0.0,0.0,0.0,0.0,0.0,0.0,0.0,0.0,0.0,0.0,0.0,0.0,0.0,0.0,0.0,0.0,0.0,0.0,0.0,0.0,0.0,0.0,0.0,0.0,0.0,0.0,0.0,0.0,0.0,0.0,0.0,0.0,0.0,0.0,0.0,0.0,0.0,0.0,0.0,0.0,0.0,0.0,0.0,0.0,0.0,0.0,0.0,0.0,0.0,0.0,0.0,0.0,0.0,0.0,0.0,0.0,0.0,0.0,0.0,0.0,0.0,0.0,0.0,0.0,0.0,0.0,0.0,0.0,0.0,0.0,0.0,0.0,0.0,0.0,0.0,0.0,0.0,0.0,0.0,0.0,0.0,0.0,0.0,0.0,0.0,0.0,0.0,0.0,-6.7539,-6.8295,-6.9,-6.9895,-7.0348,-7.0413,-6.8801,-6.8035,-6.8167,0.0,0.0,0.0,0.0,0.0,0.0,0.0,0.0,0.0,0.0,0.0,0.0,0.0,0.0,0.0,0.0,0.0,0.0,0.0,0.0,0.0,0.0,0.0,0.0,0.0,0.0,0.0,0.0,0.0,0.0,0.0,0.0,0.0,0.0,0.0,0.0,0.0,0.0,-6.2017,-6.2689,0.0,0.0,0.0,0.0,0.0,0.0,0.0,0.0,-6.4795,0.0,0.0,0.0,0.0,0.0,0.0,0.0,0.0,0.0,0.0,0.0,0.0,0.0,0.0,0.0,0.0,0.0,0.0,0.0,0.0,0.0,0.0,0.0,0.0,0.0,0.0,0.0,0.0,0.0,0.0,0.0,0.0,0.0,0.0,0.0,0.0,0.0,0.0,0.0,0.0,0.0,0.0,0.0,0.0,0.0,0.0,0.0,0.0,0.0,0.0,0.0,0.0,0.0,0.0,0.0,0.0,-6.6542,-6.7262,-6.7981,-6.8675,-6.9583,-7.0076,-7.0017,-6.8612,-6.7872,-6.7751,0.0,0.0,0.0,0.0,0.0,0.0,0.0,0.0,0.0,0.0,0.0,0.0,0.0,0.0,0.0,0.0,0.0,0.0,0.0,0.0,0.0,0.0,0.0,0.0,0.0,0.0,0.0,0.0,0.0,0.0,0.0,0.0,0.0,0.0,0.0,0.0,0.0,0.0,0.0,-6.3299,-6.3679,0.0,0.0,0.0,0.0,0.0,0.0,0.0,0.0,-6.4498,0.0,0.0,0.0,0.0,0.0,0.0,0.0,0.0,0.0,0.0,0.0,0.0,0.0,0.0,0.0,0.0,0.0,0.0,0.0,0.0,0.0,0.0,0.0,0.0,0.0,0.0,0.0,0.0,0.0,0.0,0.0,0.0,0.0,0.0,0.0,0.0,0.0,0.0,0.0,0.0,0.0,0.0,0.0,0.0,0.0,0.0,0.0,0.0,0.0,0.0,0.0,0.0,0.0,0.0,0.0,-6.6719,-6.7143,-6.7808,-6.886,-6.9413,-6.9719,-6.9701,-6.8279,-6.7286,0.0,0.0,0.0,0.0,0.0,0.0,0.0,0.0,0.0,0.0,0.0,0.0,0.0,0.0,0.0,0.0,0.0,0.0,0.0,0.0,0.0,0.0,0.0,0.0,0.0,0.0,0.0,0.0,0.0,0.0,0.0,0.0,0.0,0.0,0.0,0.0,0.0,0.0,0.0,0.0,-6.3237,-6.3668,-6.3719,0.0,0.0,0.0,0.0,0.0,0.0,-6.4585,-6.4351,0.0,0.0,0.0,0.0,0.0,0.0,0.0,0.0,0.0,0.0,0.0,0.0,0.0,0.0,0.0,0.0,0.0,0.0,0.0,0.0,0.0,0.0,0.0,0.0,0.0,0.0,0.0,0.0,0.0,0.0,0.0,0.0,0.0,0.0,0.0,0.0,0.0,0.0,0.0,0.0,0.0,0.0,0.0,0.0,0.0,0.0,0.0,0.0,0.0,0.0,0.0,0.0,0.0,0.0,0.0,-6.7032,-6.7009,-6.7639,-6.9085,-6.9246,-6.9315,-6.9382,-6.7917,-6.6749,0.0,0.0,0.0,0.0,0.0,0.0,0.0,0.0,0.0,0.0,0.0,0.0,0.0,0.0,0.0,0.0,0.0,0.0,0.0,0.0,0.0,0.0,0.0,0.0,0.0,0.0,0.0,0.0,0.0,0.0,0.0,0.0,0.0,0.0,0.0,0.0,0.0,0.0,0.0,0.0,0.0,-6.3444,-6.3633,-6.354,0.0,0.0,0.0,0.0,-6.4407,-6.4652,0.0,0.0,0.0,0.0,0.0,0.0,0.0,0.0,0.0,0.0,0.0,0.0,0.0,0.0,0.0,0.0,0.0,0.0,0.0,0.0,0.0,0.0,0.0,0.0,0.0,0.0,0.0,0.0,0.0,0.0,0.0,0.0,0.0,0.0,0.0,0.0,0.0,0.0,0.0,0.0,0.0,0.0,0.0,0.0,0.0,0.0,0.0,0.0,0.0,0.0,0.0,0.0,0.0,0.0,0.0,0.0,-6.6797,-6.6725,-6.7379,-6.8855,-6.9005,-6.9056,-6.9019,-6.7551,-6.6415,0.0,0.0,0.0,0.0,0.0,0.0,0.0,0.0,0.0,0.0,0.0,0.0,0.0,0.0,0.0,0.0,0.0,0.0,0.0,0.0,0.0,0.0,0.0,0.0,0.0,0.0,0.0,0.0,0.0,0.0,0.0,0.0,0.0,0.0,0.0,0.0,0.0,0.0,0.0,0.0,0.0,-6.3329,-6.4044,-6.4056,-6.4033,0.0,0.0,-6.4033,-6.4145,-6.4284,0.0,0.0,0.0,0.0,0.0,0.0,0.0,0.0,0.0,0.0,0.0,0.0,0.0,0.0,0.0,0.0,0.0,0.0,0.0,0.0,0.0,0.0,0.0,0.0,0.0,0.0,0.0,0.0,0.0,0.0,0.0,0.0,0.0,0.0,0.0,0.0,0.0,0.0,0.0,0.0,0.0,0.0,0.0,0.0,0.0,0.0,0.0,0.0,0.0,0.0,0.0,0.0,0.0,0.0,0.0,-6.4189,-6.6378,-6.6269,-6.6867,-6.8407,-6.8565,-6.8623,-6.8693,-6.7203,-6.6101,0.0,0.0,0.0,0.0,0.0,0.0,0.0,0.0,0.0,0.0,0.0,0.0,0.0,0.0,0.0,0.0,0.0,0.0,0.0,0.0,0.0,0.0,0.0,0.0,0.0,0.0,0.0,0.0,0.0,0.0,0.0,0.0,0.0,0.0,0.0,0.0,0.0,0.0,0.0,0.0,0.0,0.0,-6.3792,-6.3953,0.0,0.0,0.0,-6.3931,-6.3931,0.0,0.0,0.0,0.0,0.0,0.0,0.0,0.0,0.0,0.0,0.0,0.0,0.0,0.0,0.0,0.0,0.0,0.0,0.0,0.0,0.0,0.0,0.0,0.0,0.0,0.0,0.0,0.0,0.0,0.0,0.0,0.0,0.0,0.0,0.0,0.0,0.0,0.0,0.0,0.0,0.0,0.0,0.0,0.0,0.0,0.0,0.0,0.0,0.0,0.0,0.0,0.0,0.0,0.0,0.0,0.0,0.0,-6.6035,-6.5899,-6.6507,-6.8021,-6.8234,-6.8297,-6.8334,-6.6895,0.0,0.0,0.0,0.0,0.0,0.0,0.0,0.0,0.0,0.0,0.0,0.0,0.0,0.0,0.0,0.0,0.0,0.0,0.0,0.0,0.0,0.0,0.0,0.0,0.0,0.0,0.0,-6.0175,0.0,0.0,0.0,0.0,0.0,0.0,0.0,0.0,0.0,0.0,0.0,0.0,0.0,0.0,-6.1938,-6.3446,-6.3647,-6.3624,0.0,0.0,-6.3647,-6.3647,-6.3698,-6.3503,0.0,0.0,0.0,0.0,0.0,0.0,0.0,0.0,0.0,0.0,0.0,0.0,0.0,0.0,0.0,0.0,0.0,0.0,0.0,0.0,0.0,0.0,0.0,0.0,0.0,0.0,0.0,0.0,0.0,0.0,0.0,0.0,0.0,0.0,0.0,0.0,0.0,0.0,0.0,0.0,0.0,0.0,0.0,0.0,0.0,0.0,0.0,0.0,0.0,0.0,0.0,0.0,0.0,0.0,-6.4361,-6.5764,-6.5767,-6.647,-6.7996,-6.8095,-6.8132,-6.8084,-6.663,-6.5528,0.0,0.0,0.0,0.0,0.0,0.0,0.0,0.0,0.0,0.0,0.0,0.0,0.0,0.0,0.0,0.0,0.0,0.0,0.0,0.0,0.0,0.0,0.0,0.0,0.0,0.0,0.0,0.0,0.0,0.0,0.0,0.0,0.0,0.0,0.0,0.0,0.0,0.0,0.0,0.0,0.0,-6.1641,-6.302,-6.3255,-6.3255,0.0,-6.3255,-6.3218,-6.3255,-6.3336,-6.3169,-6.2367,0.0,0.0,0.0,0.0,0.0,0.0,0.0,0.0,0.0,0.0,0.0,0.0,0.0,0.0,0.0,0.0,0.0,0.0,0.0,0.0,0.0,0.0,0.0,0.0,0.0,0.0,0.0,0.0,0.0,0.0,0.0,0.0,0.0,0.0,0.0,0.0,0.0,0.0,0.0,0.0,0.0,0.0,0.0,0.0,0.0,0.0,0.0,0.0,0.0,0.0,0.0,0.0,0.0,-6.422,-6.5583,-6.5494,-6.6228,-6.7773,-6.7836,-6.7899,-6.7978,-6.6923,-6.6051,0.0,0.0,0.0,0.0,0.0,0.0,0.0,0.0,0.0,0.0,0.0,0.0,0.0,0.0,0.0,0.0,0.0,0.0,0.0,0.0,0.0,0.0,0.0,0.0,0.0,0.0,0.0,0.0,-6.0736,-6.0602,-6.0277,0.0,0.0,0.0,0.0,0.0,0.0,0.0,0.0,0.0,0.0,-6.2008,-6.2951,-6.3075,0.0,0.0,-6.3026,-6.3075,-6.3075,-6.3171,-6.3191,-6.2872,-6.2271,0.0,0.0,0.0,0.0,0.0,0.0,0.0,0.0,0.0,0.0,0.0,0.0,0.0,0.0,0.0,0.0,0.0,0.0,0.0,0.0,0.0,0.0,0.0,0.0,0.0,0.0,0.0,0.0,0.0,0.0,0.0,0.0,0.0,0.0,0.0,0.0,0.0,0.0,0.0,0.0,0.0,0.0,0.0,0.0,0.0,0.0,0.0,0.0,0.0,0.0,0.0,0.0,-6.3872,-6.5051,-6.5243,-6.5962,-6.732,-6.7577,-6.7741,-6.781,-6.6868,-6.616,0.0,0.0,0.0,0.0,0.0,0.0,0.0,0.0,0.0,0.0,0.0,0.0,0.0,0.0,0.0,0.0,0.0,0.0,0.0,0.0,0.0,0.0,0.0,0.0,0.0,0.0,0.0,0.0,-6.1222,-6.0811,-5.9621,0.0,0.0,0.0,0.0,0.0,0.0,0.0,0.0,0.0,0.0,-6.2153,-6.2843,-6.2953,-6.2904,-6.2805,-6.288,-6.2953,-6.2929,-6.3026,-6.3075,-6.3075,0.0,0.0,0.0,0.0,0.0,0.0,0.0,0.0,0.0,0.0,0.0,0.0,0.0,0.0,0.0,0.0,0.0,0.0,0.0,0.0,0.0,0.0,0.0,0.0,0.0,0.0,0.0,-6.6612,0.0,0.0,-6.5431,0.0,0.0,0.0,0.0,0.0,0.0,0.0,0.0,0.0,0.0,0.0,0.0,0.0,0.0,0.0,0.0,0.0,0.0,0.0,0.0,0.0,0.0,-6.3395,-6.4152,-6.4897,-6.5705,-6.6512,-6.7283,-6.7677,-6.764,-6.6276,-6.5506,-6.5494,0.0,0.0,0.0,0.0,0.0,0.0,0.0,0.0,0.0,0.0,0.0,0.0,0.0,0.0,0.0,0.0,0.0,0.0,0.0,0.0,0.0,0.0,0.0,0.0,0.0,0.0,-6.2274,-6.1611,-6.0344,0.0,0.0,0.0,0.0,0.0,0.0,0.0,0.0,0.0,-6.159,-6.1787,-6.207,-6.272,-6.2805,-6.2805,-6.2805,-6.2805,-6.2805,-6.2805,-6.2805,-6.2805,0.0,0.0,0.0,0.0,0.0,0.0,0.0,0.0,0.0,0.0,0.0,0.0,0.0,0.0,0.0,0.0,0.0,0.0,0.0,0.0,0.0,0.0,0.0,0.0,0.0,0.0,0.0,-6.6491,-6.6491,0.0,0.0,0.0,0.0,0.0,0.0,0.0,0.0,0.0,0.0,0.0,-6.7104,-6.6476,0.0,0.0,0.0,0.0,0.0,0.0,0.0,0.0,0.0,0.0,0.0,0.0,-6.337,-6.4079,-6.4347,-6.4897,-6.5705,-6.5962,-6.6109,-6.6109,-6.5647,-6.5147,-6.4634,0.0,0.0,0.0,0.0,0.0,0.0,0.0,0.0,0.0,0.0,0.0,0.0,0.0,0.0,0.0,0.0,0.0,0.0,0.0,0.0,0.0,0.0,0.0,0.0,0.0,-6.1063,0.0,0.0,0.0,0.0,0.0,0.0,0.0,0.0,0.0,0.0,0.0,-6.1222,-6.1617,-6.212,-6.2561,-6.2768,-6.2805,-6.2805,0.0,0.0,0.0,0.0,0.0,0.0,0.0,0.0,0.0,0.0,0.0,0.0,0.0,0.0,-5.9891,-6.0004,-6.0026,-6.0004,-6.0018,0.0,0.0,0.0,0.0,0.0,0.0,0.0,0.0,0.0,0.0,0.0,0.0,0.0,0.0,-6.7141,-6.7104,-6.6843,0.0,0.0,0.0,0.0,0.0,0.0,0.0,0.0,-6.7892,-6.7844,-6.7844,-6.7229,-6.6797,0.0,-6.5895,-6.4782,0.0,0.0,0.0,0.0,0.0,0.0,0.0,0.0,-6.3174,-6.3649,-6.3943,-6.4347,-6.4861,-6.5154,-6.5338,-6.5301,-6.5044,-6.4519,-6.3713,-6.3223,-6.2757,0.0,0.0,0.0,0.0,0.0,0.0,0.0,0.0,0.0,0.0,0.0,0.0,0.0,0.0,0.0,0.0,0.0,0.0,0.0,0.0,0.0,0.0,0.0,-6.1606,0.0,0.0,0.0,0.0,0.0,0.0,0.0,0.0,0.0,-5.9729,-6.0906,-6.1801,-6.1998,-6.245,-6.2805,-6.2805,0.0,0.0,0.0,0.0,0.0,0.0,0.0,-6.2805,-6.2805,-6.2805,-6.2597,-6.2108,-6.1594,-6.1263,-6.1227,0.0,0.0,-6.0743,-6.0655,-6.0655,-6.0655,-6.0655,-6.0632,-6.0538,-6.0538,-6.0588,0.0,0.0,0.0,0.0,0.0,0.0,0.0,0.0,-6.8506,-6.8468,0.0,-6.7688,0.0,0.0,0.0,0.0,-6.728,-6.7354,0.0,0.0,-6.8506,-6.8518,-6.8506,-6.8444,-6.8073,-6.7367,-6.7135,-6.621,-6.4604,-6.3049,0.0,0.0,0.0,0.0,0.0,0.0,-6.2805,-6.2817,-6.3613,-6.4053,-6.409,-6.4824,-6.5228,-6.5191,-6.4457,-6.3686,-6.2879,-6.2842,-6.2855,-6.3002,-6.2229,0.0,0.0,0.0,0.0,0.0,0.0,0.0,0.0,0.0,0.0,0.0,0.0,0.0,0.0,0.0,0.0,0.0,0.0,0.0,0.0,-6.2632,0.0,0.0,0.0,0.0,0.0,0.0,0.0,0.0,0.0,0.0,-6.0456,-6.1153,-6.1924,-6.2695,0.0,0.0,0.0,0.0,-6.2805,-6.2805,-6.2805,-6.2805,-6.2805,-6.2805,-6.2805,-6.2805,0.0,0.0,-6.2805,-6.2805,-6.2768,-6.2805,-6.2732,-6.2303,-6.0823,-6.0566,-6.0566,-6.0566,-6.059,-6.0493,-6.0493,-6.0639,-6.0823,-7.1849,0.0,0.0,0.0,0.0,-6.9595,-6.9224,-6.8518,-6.8518,-6.8518,-6.8481,-6.8283,0.0,0.0,0.0,0.0,0.0,0.0,-6.8283,-6.8481,-6.8518,-6.8518,-6.8481,-6.8408,-6.8247,-6.7988,-6.7309,-6.6396,-6.5226,-6.4132,-6.3296,-6.2719,0.0,0.0,0.0,0.0,-6.2805,-6.2842,-6.3062,-6.3172,-6.3172,-6.3367,-6.3514,-6.3514,-6.3319,-6.3062,-6.2805,-6.2805,-6.2805,-6.2855,-6.2083,0.0,0.0,0.0,0.0,0.0,0.0,0.0,0.0,0.0,0.0,0.0,0.0,0.0,0.0,0.0,0.0,0.0,0.0,0.0,-6.1642,-6.2402,-6.2451,0.0,0.0,0.0,0.0,0.0,0.0,0.0,0.0,0.0,-6.1263,-6.1961,-6.2548,0.0,0.0,-6.2805,-6.2805,-6.2805,-6.2805,-6.2805,-6.2805,0.0,-6.2805,-6.2805,-6.2805,-6.2805,-6.2805,-6.2805,-6.2805,-6.2805,-6.2805,-6.2805,-6.2805,-6.2633,-6.2254,-6.212,-6.2108,-6.212,-6.2083,-6.2108,-6.2083,-6.2083,-6.2156,-7.2332,-7.1403,-7.1441,-7.0772,-6.9707,-6.9707,-6.9224,-6.8518,-6.8518,-6.8518,-6.8518,-6.8518,-6.8518,-6.8444,-6.7961,0.0,0.0,0.0,-6.8518,-6.8481,-6.8432,-6.8408,-6.8408,-6.8284,-6.8234,-6.8197,-6.7257,-6.6356,-6.5469,-6.4609,-6.3738,-6.2966,0.0,0.0,-6.2805,-6.2805,-6.2805,-6.2805,-6.2805,-6.2805,-6.2805,-6.2805,-6.2805,-6.2805,-6.2805,-6.2805,-6.2805,-6.2805,-6.2805,-6.2805,-6.2328,-6.1557,0.0,0.0,0.0,0.0,0.0,0.0,0.0,0.0,0.0,0.0,0.0,-6.0264,-6.1037,0.0,0.0,0.0,-6.1518,-6.163,-6.2034,-6.2511,0.0,0.0,0.0,0.0,0.0,0.0,0.0,-6.0786,-6.13,-6.1704,-6.2034,-6.2511,-6.2805,-6.2805,-6.2805,-6.2805,-6.2805,0.0,-6.2805,-6.2805,-6.2805,-6.2805,-6.2805,-6.2805,-6.2805,-6.2805,-6.2805,-6.2805,-6.2805,-6.2805,-6.2805,-6.2805,-6.2805,-6.2805,-6.2805,-6.2805,-6.2805,-6.2805,-6.2805,-6.2805,-6.2805,-6.2805,-6.2805,-7.2098,-7.2098,-7.2023,-7.1106,-6.9707,-6.9707,-6.9224,-6.8518,-6.8518,-6.8518,-6.8518,-6.8518,-6.8518,-6.8518,-6.8518,0.0,-6.8481,-6.8481,-6.8481,-6.8481,-6.8334,-6.8284,-6.8284,-6.8158,-6.8033,-6.7959,-6.7067,-6.6217,-6.537,-6.4497,-6.3649,-6.2817,-6.2805,-6.2805,-6.2805,-6.2805,-6.2805,-6.2805,-6.2805,-6.2805,-6.2805,-6.2805,-6.2805,-6.2805,-6.2805,-6.2805,-6.2805,-6.2805,-6.2805,-6.2805,-6.2805,-6.2108,-6.0639,0.0,0.0,0.0,0.0,0.0,0.0,0.0,0.0,0.0,0.0,0.0,0.0,0.0,0.0,0.0,-6.2805,0.0,-6.2805,-6.2805,0.0,0.0,0.0,-6.1337,-6.0676,-6.0529,-6.0823,-6.1594,0.0,0.0,-6.2732,-6.2805,-6.2805,-6.2805,-6.2805,-6.2805,-6.2805,-6.2805,-6.2805,-6.2805,-6.2805,-6.2805,-6.2805,-6.2805,-6.2805,-6.2805,-6.2805,-6.2805,-6.2805,-6.2805,-6.2805,-6.2805,-6.2805,-6.2805,-6.2805,-6.2805,-6.2805,-6.2805,-6.2805,-6.2805,-6.2805,-6.2805,-6.2805,-7.1218,-7.118,-7.0549,-7.0066,-6.9707,-6.9707,-6.9224,-6.8518,-6.8518,-6.8518,-6.8518,-6.8518,-6.8518,-6.8518,-6.8518,-6.8518,-6.8481,-6.8383,-6.8334,-6.8334,-6.8208,-6.8158,-6.8121,-6.7993,-6.762,-6.7031,-6.6717,-6.5794,-6.4471,-6.4225,-6.3649,-6.2842,-6.2805,-6.2805,-6.2805,-6.2805,-6.2805,-6.2805,-6.2805,-6.2805,-6.2805,-6.2805,-6.2805,-6.2805,-6.2805,-6.2805,-6.2805,-6.2805,-6.2805,-6.2805,-6.2805,-6.2365,-6.1374,-6.0713,0.0,0.0,0.0,0.0,0.0,0.0,0.0,0.0,0.0,-6.1006,-6.2401,0.0,-6.256,0.0,-6.2805,-6.2805,-6.2805,-6.2805,0.0,0.0,-6.1961,-6.1777,-6.2181,-6.1704,-6.163,-6.2438,-6.2511,-6.2585,-6.2743,-6.2805,-6.2805,-6.2805,-6.2805,-6.2805,-6.2805,-6.2805,-6.2805,-6.2805,-6.2805,-6.2805,-6.2805,-6.2805,-6.2805,-6.2805,-6.2805,-6.2805,-6.2805,-6.2805,-6.2805,-6.2805,-6.2805,-6.2805,-6.2805,-6.2805,-6.2805,-6.2805,-6.2805,-6.2805,-6.2805,-6.2805,-6.2805,-7.0338,-7.0264,-6.9509,-6.915,-6.915,-6.915,-6.889,-6.8518,-6.8518,-6.8518,-6.8518,-6.8518,-6.8518,-6.8518,-6.8518,-6.8457,-6.8408,-6.8334,-6.8259,-6.8171,-6.8044,-6.803,-6.7993,-6.7505,-6.7048,-6.6607,-6.583,-6.4971,-6.409,-6.3723,-6.3282,-6.2805,-6.2805,-6.2805,-6.2805,-6.2805,-6.2805,-6.2805,-6.2805,-6.2805,-6.2805,-6.2805,-6.2805,-6.2805,-6.2805,-6.2805,-6.2805,-6.2805,-6.2805,-6.2805,-6.2805,-6.2438,-6.163,-6.1153,-6.0419,0.0,0.0,0.0,0.0,0.0,0.0,0.0,0.0,0.0,0.0,0.0,-6.2805,-6.2805,-6.2805,-6.2805,-6.2805,-6.2805,-6.2805,-6.2805,-6.2401,-6.2328,-6.2743,-6.2401,-6.2291,-6.2743,-6.2805,-6.2805,-6.2805,-6.2805,-6.2805,-6.2805,-6.2805,-6.2805,-6.2805,-6.2805,-6.2805,-6.2805,-6.2805,-6.2805,-6.2805,-6.2805,-6.2805,-6.2805,-6.2805,-6.2805,-6.2805,-6.2805,-6.2805,-6.2805,-6.2805,-6.2805,-6.2805,-6.2805,-6.2805,-6.2805,-6.2805,-6.2805,-6.2805,-6.2805,-6.2805,-6.9521,-6.9484,-6.8778,-6.8518,-6.8518,-6.8518,-6.8518,-6.8518,-6.8518,-6.8518,-6.8518,-6.8518,-6.8481,-6.8457,-6.8457,-6.8408,-6.8284,-6.8259,-6.8183,-6.8044,-6.7841,-6.7726,-6.7689,-6.6786,-6.6292,-6.6145,-6.4751,-6.4016,-6.3906,-6.3172,-6.278,-6.2755,-6.278,-6.2755,-6.273,-6.273,-6.2755,-6.2755,-6.278,-6.278,-6.278,-6.278,-6.2805,-6.2805,-6.2805,-6.2805,-6.2805,-6.2805,-6.2805,-6.2805,-6.2805,-6.2475,-6.1814,-6.1667,-6.097,0.0,-6.0089,0.0,0.0,0.0,0.0,0.0,0.0,0.0,0.0,-6.2805,-6.2805,-6.2805,-6.2805,-6.2805,-6.2805,-6.2805,-6.2805,-6.2805,-6.2805,-6.2805,-6.2805,-6.2805,-6.2805,-6.2805,-6.2805,-6.2805,-6.2805,-6.2805,-6.2805,-6.2805,-6.2805,-6.2805,-6.2805,-6.2805,-6.2805,-6.2805,-6.2805,-6.2805,-6.2805,-6.2805,-6.2805,-6.2805,-6.2805,-6.2805,-6.2805,-6.2805,-6.2805,-6.2805,-6.2805,-6.2805,-6.2805,-6.2805,-6.2805,-6.2805,-6.2805,-6.2805,-6.2805,-6.2805,-6.2805,-6.8704,-6.8704,-6.858,-6.8518,-6.8518,-6.8518,-6.8518,-6.8518,-6.8518,-6.8518,-6.8518,-6.8518,-6.847,-6.8334,-6.8334,-6.8259,-6.8121,-6.803,-6.7978,-6.7915,-6.7132,-6.6786,-6.6712,-6.5925,-6.5191,-6.4567,-6.4237,-6.3723,-6.3062,-6.2879,-6.273,-6.2654,-6.2629,-6.2578,-6.2475,0.0,0.0,0.0,-6.2654,-6.2629,-6.2654,-6.273,-6.2805,-6.2805,-6.2805,0.0,-6.2805,-6.2805,-6.2805,-6.2805,-6.2805,0.0,0.0,0.0,0.0,0.0,0.0,0.0,0.0,0.0,0.0,0.0,-6.1447,-6.1777,-6.2732,-6.2805,-6.2805,-6.2805,-6.2805,-6.2805,-6.2805,-6.2805,-6.2805,-6.2805,-6.2805,-6.2805,-6.2805,-6.2805,-6.2805,-6.2805,-6.2805,-6.2805,-6.2805,-6.2805,-6.2805,-6.2805,-6.2805,-6.2805,-6.2805,-6.2805,-6.2805,-6.2805,-6.2805,-6.2805,-6.2805,-6.2805,-6.2805,-6.2805,-6.2805,-6.2805,-6.2805,-6.2805,-6.2805,-6.2805,-6.2805,-6.2805,-6.2805,-6.2805,-6.2879,-6.2842,-6.2842,-6.2805,-6.2805,-6.2805,-6.2805,-6.8518,-6.8518,-6.8518,-6.8518,0.0,-6.8518,-6.8518,-6.8518,-6.8518,-6.8518,-6.8481,-6.8432,-6.8358,-6.8284,-6.8234,-6.8132,-6.7993,-6.751,-6.7247,-6.7169,-6.6282,-6.5925,-6.5888,-6.5081,-6.4494,-6.409,-6.3649,-6.3246,-6.2817,-6.273,-6.2679,-6.2603,-6.2526,-6.2449,-6.2407,-6.2354,-6.2344,-6.25,-6.25,-6.25,-6.25,-6.2552,-6.2603,-6.2578,-6.2603,0.0,0.0,0.0,0.0,0.0,0.0,0.0,0.0,-6.2352,0.0,-6.163,-6.1594,-6.141,-6.1043,-6.1374,-6.1777,-6.2181,-6.2181,-6.2365,-6.2805,-6.2805,-6.2805,-6.2805,-6.2805,-6.2805,-6.2805,-6.2805,-6.2805,-6.2805,-6.2805,-6.2805,-6.2805,-6.2805,-6.2805,-6.2805,-6.2805,-6.2805,-6.2805,-6.2805,-6.2805,-6.2805,-6.2805,-6.2805,-6.2805,-6.2805,-6.2805,-6.2805,-6.2805,-6.2805,-6.2805,-6.2805,-6.2805,-6.2805,-6.2805,-6.2805,-6.2805,-6.2805,-6.2805,-6.2805,-6.2805,-6.2805,-6.2842,-6.3135,-6.3466,-6.3503,-6.3759,-6.387,-6.3539,-6.3099,-6.2805,-6.8518,-6.8518,-6.8518,-6.8518,-6.8518,-6.8518,-6.8518,-6.8518,-6.8518,0.0,0.0,-6.8334,-6.8284,-6.8208,-6.7948,-6.7782,-6.7616,-6.6806,-6.6397,-6.6256,-6.5448,-6.5118,-6.5044,-6.4273,-6.387,-6.3833,-6.3135,-6.2805,-6.278,-6.2654,-6.2603,-6.2552,-6.2423,-6.2354,-6.2265,-6.2195,-6.2158,-6.2238,-6.2328,-6.2318,-6.2354,-6.2318,-6.2318,-6.2318,-6.2344,-6.2344,-6.2344,-6.237,-6.2433,-6.2433,-6.25,-6.2578,-6.2603,-6.2705,-6.2487,-6.1887,-6.2438,-6.2511,-6.1887,-6.2438,-6.2805,-6.2805,-6.2805,-6.2805,-6.2805,-6.2805,-6.2805,-6.2805,-6.2805,-6.2805,-6.2805,-6.2805,-6.2805,-6.2805,-6.2805,-6.2805,-6.2805,-6.2805,-6.2805,-6.2805,-6.2805,-6.2805,-6.2805,-6.2805,-6.2805,-6.2805,-6.2805,-6.2805,-6.2805,-6.2805,-6.2805,-6.2805,-6.2805,-6.2805,-6.2805,-6.2805,-6.2805,-6.2805,-6.2805,-6.2805,-6.2805,-6.2805,-6.2805,-6.2805,-6.2805,-6.2879,-6.3062,-6.3576,-6.4127,-6.4273,-6.4824,-6.5118,-6.4457,-6.3759,-6.3246,-6.8518,-6.8518,-6.8518,-6.8518,-6.8518,-6.8518,-6.8518,-6.8518,-6.8481,-6.8432,-6.8309,-6.8309,-6.8183,-6.7941,-6.7215,-6.6817,-6.6612,-6.5841,-6.5485,-6.5448,-6.464,-6.4273,-6.42,-6.3392,-6.2989,-6.2989,-6.2853,-6.2805,-6.278,-6.2654,-6.2552,-6.2423,-6.2301,-6.2141,-6.1895,-6.1868,-6.1812,-6.17,-6.195,-6.2051,-6.2051,-6.2051,-6.2051,-6.2051,-6.2195,-6.2212,-6.2248,-6.2318,-6.2433,-6.2433,-6.2433,-6.2475,-6.2603,-6.2629,-6.2643,-6.2633,-6.2743,-6.2768,-6.2658,-6.2732,-6.2805,-6.2805,-6.2805,-6.2805,-6.2805,-6.2805,-6.2805,-6.2805,-6.2805,-6.2805,-6.2805,-6.2805,-6.2805,-6.2805,-6.2805,-6.2805,-6.2805,-6.2805,-6.2805,-6.2805,-6.2805,-6.2805,-6.2805,-6.2805,-6.2805,-6.2805,-6.2805,-6.2805,-6.2805,-6.2805,-6.2805,-6.2805,-6.2805,-6.2805,-6.2805,-6.2805,-6.2805,-6.2805,-6.2805,-6.2805,-6.2805,-6.2805,-6.2842,-6.2817,-6.2915,-6.3172,-6.3723,-6.398,-6.4457,-6.4971,-6.5338,-6.5375,-6.5191,-6.4934,-6.442,-6.8518,-6.8518,-6.8518,-6.8518,-6.8518,-6.8518,-6.8518,-6.8444,-6.795,-6.7951,-6.8247,-6.7753,-6.7442,-6.7163,-6.6312,-6.5904,-6.5815,-6.5007,-6.4677,-6.4604,-6.3796,-6.3392,-6.3356,-6.2989,-6.2805,-6.2805,-6.2805,-6.2805,-6.278,-6.2578,-6.2449,-6.2407,-6.2141,-6.1923,-6.1784,-6.1736,-6.1644,-6.1623,-6.1728,-6.1784,-6.1784,-6.1784,-6.1784,-6.1784,-6.184,-6.1868,-6.1868,-6.2005,-6.2087,-6.2087,-6.2185,-6.2291,-6.237,-6.2526,-6.2629,-6.2679,-6.2755,-6.2805,-6.2805,-6.2805,-6.2805,-6.2805,-6.2805,-6.2805,-6.2805,-6.2805,-6.2805,-6.2805,-6.2805,-6.2805,-6.2805,-6.2805,-6.2805,-6.2805,-6.2805,-6.2805,-6.2805,-6.2805,-6.2805,-6.2805,-6.2805,-6.2805,-6.2805,-6.2805,-6.2805,-6.2805,-6.2805,-6.2805,-6.2805,-6.2805,-6.2805,-6.2805,-6.2805,-6.2805,-6.2805,-6.2805,-6.2805,-6.2805,-6.2805,-6.2805,-6.2805,-6.2805,-6.3025,-6.3392,-6.3503,-6.3833,-6.4604,-6.5118,-6.5521,-6.5815,-6.6366,-6.6439,-6.6109,-6.5632,-6.5044,-6.8518,-6.8518,-6.8518,-6.8518,-6.8518,-6.8518,-6.8407,-6.8098,-6.7395,-6.7321,-6.7543,-6.6888,-6.6529,-6.6302,-6.5426,-6.5044,-6.4934,-6.4163,-6.3796,-6.3723,-6.3135,-6.2805,-6.2805,-6.2805,-6.2805,-6.2805,-6.2805,-6.2805,-6.2755,-6.2526,-6.2381,-6.2301,-6.1978,-6.1812,-6.1728,-6.168,-6.1566,-6.1509,-6.1473,-6.1509,-6.1509,-6.1444,-6.1386,-6.1357,-6.1444,-6.1509,-6.1509,-6.1644,-6.1756,-6.182,-6.2005,-6.2132,-6.2185,-6.2423,-6.2578,-6.2603,-6.273,-6.2805,-6.2805,-6.2805,-6.2805,-6.2805,-6.2805,-6.2805,-6.2805,-6.2805,-6.2805,-6.2805,-6.2805,-6.2805,-6.2805,-6.2805,-6.2805,-6.2805,-6.2805,-6.2805,-6.2805,-6.2805,-6.2805,-6.2805,-6.2805,-6.2805,-6.2805,-6.2805,-6.2805,-6.2805,-6.2805,-6.2805,-6.2805,-6.2805,-6.2805,-6.2805,-6.2805,-6.2805,-6.2805,-6.2805,-6.2805,-6.2805,-6.2805,-6.2805,-6.2842,-6.2952,-6.3282,-6.3906,-6.4237,-6.4677,-6.5411,-6.5999,-6.6439,-6.6696,-6.7173,-6.7393,-6.688,-6.6366,-6.5668,-6.8518,-6.8518,-6.8518,-6.8518,-6.8518,-6.8518,-6.8061,-6.7321,-6.7148,-6.6556,-6.5851,-6.5642,-6.5566,-6.5327,-6.4567,-6.42,-6.4127,-6.3319,-6.2927,-6.2952,-6.2842,-6.2805,-6.2805,-6.2805,-6.2805,-6.2805,-6.2805,-6.2805,-6.278,-6.2563,-6.2301,-6.206,-6.1978,-6.184,-6.1615,-6.1623,-6.1444,-6.1152,-6.1123,-6.1152,-6.1123,-6.0968,-6.0818,-6.0701,-6.0974,-6.1152,-6.1152,-6.1444,-6.168,-6.1756,-6.1848,-6.195,-6.2158,-6.2354,-6.2475,-6.2603,-6.273,-6.2805,-6.2805,-6.2805,-6.2805,-6.2805,-6.2805,-6.2805,-6.2805,-6.2805,-6.2805,-6.2805,-6.2805,-6.2805,-6.2805,-6.2805,-6.2805,-6.2805,-6.2805,-6.2805,-6.2805,-6.2805,-6.2805,-6.2805,-6.2805,-6.2805,-6.2805,-6.2805,-6.2805,-6.2805,-6.2805,-6.2805,-6.2805,-6.2805,-6.2805,-6.2805,-6.2805,-6.2805,-6.2805,-6.2805,-6.2805,-6.2805,-6.2805,-6.2879,-6.3025,-6.3466,-6.4053,-6.4457,-6.4787,-6.5485,-6.6072,-6.6512,-6.6769,-6.7247,-6.754,-6.765,-6.7567,-6.7393,-6.6843,-6.8518,-6.8518,-6.8518,-6.8518,-6.8518,-6.8518,-6.8247,-6.7753,-6.6679,-6.5977,-6.5359,-6.44,-6.4177,-6.453,-6.3686,-6.3319,-6.3319,-6.2952,-6.2805,-6.2805,-6.2805,-6.2805,-6.2805,-6.2805,-6.2805,-6.2805,-6.2805,-6.2805,-6.2755,-6.2526,-6.2275,-6.2005,-6.1923,-6.1812,-6.1736,-6.1501,-6.1357,-6.1241,-6.1152,-6.1004,-6.0823,-6.0788,-6.0727,-6.064,-6.0732,-6.0854,-6.0938,-6.1182,-6.1415,-6.1644,-6.1764,-6.1868,-6.2087,-6.2301,-6.2433,-6.2475,-6.2679,-6.2805,-6.2805,-6.2805,-6.2805,-6.2805,-6.2805,-6.2805,-6.2805,-6.2805,-6.2805,-6.2805,-6.2805,-6.2805,-6.2805,-6.2805,-6.2805,-6.2805,-6.2805,-6.2805,-6.2805,-6.2805,-6.2805,-6.2805,-6.2805,-6.2805,-6.2805,-6.2805,-6.2805,-6.2805,-6.2805,-6.2805,-6.2805,-6.2805,-6.2805,-6.2805,-6.2805,-6.2805,-6.2805,-6.2805,-6.2842,-6.2805,-6.2805,-6.2879,-6.3539,-6.3759,-6.431,-6.5264,-6.5742,-6.6292,-6.7063,-6.7173,-6.7357,-6.7687,-6.7687,-6.7687,-6.7687,-6.7687,-6.7283,-6.8518,-6.8518,-6.8518,-6.8518,-6.8518,-6.8518,-6.8321,-6.7839,-6.6593,-6.5705,-6.5027,-6.3736,-6.3356,-6.3613,-6.3062,-6.2805,-6.2805,-6.2805,-6.2805,-6.2805,-6.2805,-6.2805,-6.2805,-6.2805,-6.2805,-6.2805,-6.2805,-6.278,-6.273,-6.2537,-6.2301,-6.206,-6.1959,-6.1848,-6.1792,-6.1501,-6.1357,-6.1299,-6.1123,-6.0884,-6.064,-6.0635,-6.0605,-6.0485,-6.0516,-6.0609,-6.0757,-6.0938,-6.1241,-6.1595,-6.1736,-6.184,-6.1978,-6.2275,-6.2459,-6.25,-6.2679,-6.2805,-6.2805,-6.2805,-6.2805,-6.2805,-6.2805,-6.2805,-6.2805,-6.2805,-6.2805,-6.2805,-6.2805,-6.2805,-6.2805,-6.2805,-6.2805,-6.2805,-6.2805,-6.2805,-6.2805,-6.2805,-6.2805,-6.2805,-6.2805,-6.2805,-6.2805,-6.2805,-6.2805,-6.2805,-6.2805,-6.2805,-6.2805,-6.2805,-6.2805,-6.2805,-6.2805,-6.2805,-6.2805,-6.2805,-6.2817,-6.3135,-6.3246,-6.3539,-6.4273,-6.453,-6.4824,-6.5962,-6.6476,-6.6916,-6.7357,-6.7577,-6.765,-6.7687,-6.7687,-6.7687,-6.7687,-6.7687,-6.7687,-6.8518,-6.8518,-6.8518,-6.8518,-6.8518,-6.8518,-6.8024,-6.7309,-6.6926,-6.5952,-6.4622,-6.4166,-6.3613,-6.3062,-6.2989,-6.2817,-6.2805,-6.2805,-6.2805,-6.2805,-6.2805,-6.2805,-6.2805,-6.2805,-6.2805,-6.2805,-6.2805,-6.273,-6.2629,-6.2449,-6.2318,-6.2158,-6.2033,-6.1895,-6.1784,-6.168,-6.1473,-6.1328,-6.0998,-6.0757,-6.0609,-6.0489,-6.0329,-6.0202,-6.0297,-6.0489,-6.064,-6.0914,-6.1241,-6.1559,-6.17,-6.184,-6.2005,-6.2275,-6.25,-6.273,-6.278,-6.2805,-6.2805,-6.2805,-6.2805,-6.2805,-6.2805,-6.2805,-6.2805,-6.2805,-6.2805,-6.2805,-6.2805,-6.2805,-6.2805,-6.2805,-6.2805,-6.2805,-6.2805,-6.2805,-6.2805,-6.2805,-6.2805,-6.2805,-6.2805,-6.2805,-6.2805,-6.2805,-6.2805,-6.2805,-6.2805,-6.2805,-6.2805,-6.2805,-6.2805,-6.2842,-6.2842,-6.2817,-6.2842,-6.3025,-6.3319,-6.3613,-6.3906,-6.431,-6.5118,-6.5815,-6.6182,-6.6586,-6.7063,-6.743,-6.7614,-6.7687,-6.7687,-6.7687,-6.7687,-6.7687,-6.7687,-6.7687,-6.7687,-6.8518,-6.8518,-6.8518,-6.8518,-6.8518,-6.8518,-6.8284,-6.7827,-6.7284,-6.658,-6.5826,-6.5235,-6.4754,-6.442,-6.442,-6.3807,-6.2879,-6.2805,-6.2805,-6.2805,-6.2805,-6.2805,-6.2805,-6.2805,-6.2805,-6.2805,-6.2805,-6.273,-6.2603,-6.2449,-6.2354,-6.2185,-6.206,-6.195,-6.1895,-6.17,-6.1566,-6.1444,-6.1028,-6.0727,-6.0614,-6.0489,-6.0333,-6.0139,-6.0171,-6.0329,-6.0578,-6.0701,-6.1034,-6.1559,-6.1651,-6.1812,-6.2114,-6.237,-6.2603,-6.2755,-6.2805,-6.2805,-6.2805,-6.2805,-6.2805,-6.2805,-6.2805,-6.2805,-6.2805,-6.2805,-6.2805,-6.2805,-6.2805,-6.2805,-6.2805,-6.2805,-6.2805,-6.2805,-6.2805,-6.2805,-6.2805,-6.2805,-6.2805,-6.2805,-6.2805,-6.2805,-6.2805,-6.2805,-6.2805,-6.2805,-6.2805,-6.2805,-6.2805,-6.2805,-6.2805,-6.2915,-6.3282,-6.3613,-6.3613,-6.3649,-6.3796,-6.409,-6.4457,-6.5154,-6.5925,-6.6219,-6.6549,-6.7026,-6.754,-6.7614,-6.7687,-6.7687,-6.7687,-6.7687,-6.7687,-6.7687,-6.7687,-6.7687,-6.7687,-6.8518,-6.8518,-6.8518,-6.8518,-6.8518,-6.8518,-6.8457,-6.8321,-6.7741,-6.7222,-6.6713,-6.6121,-6.5687,-6.5338,-6.5338,-6.4751,-6.3624,-6.3356,-6.3062,-6.2817,-6.2805,-6.2805,-6.2805,-6.2805,-6.2805,-6.2805,-6.2805,-6.2755,-6.2691,-6.273,-6.2745,-6.2665,-6.2703,-6.2766,-6.2747,-6.2486,-6.235,-6.2169,-6.1747,-6.1446,-6.1294,-6.1136,-6.0973,-6.0876,-6.0844,-6.0723,-6.0649,-6.064,-6.0944,-6.1473,-6.1615,-6.184,-6.2212,-6.2475,-6.2654,-6.278,-6.2805,-6.2805,-6.2805,-6.2805,-6.2805,-6.2805,-6.2805,-6.2805,-6.2805,-6.2805,-6.2805,-6.2805,-6.2805,-6.2805,-6.2805,-6.2805,-6.2805,-6.2805,-6.2805,-6.2805,-6.2805,-6.2805,-6.2805,-6.2805,-6.2805,-6.2805,-6.2805,-6.2805,-6.2805,-6.2805,-6.2805,-6.2805,-6.2805,-6.2805,-6.2952,-6.3209,-6.3686,-6.4127,-6.4494,-6.4751,-6.4934,-6.5228,-6.5301,-6.5962,-6.6476,-6.6733,-6.6953,-6.7467,-6.7687,-6.7687,-6.7687,-6.7687,-6.7687,-6.7687,-6.7687,-6.7687,-6.7687,-6.7687,-6.776,-6.8518,-6.8518,-6.8518,-6.8518,-6.8518,-6.8518,-6.8481,-6.8457,-6.8321,-6.7753,-6.7047,-6.6798,-6.6302,-6.5584,-6.5632,-6.5375,-6.5081,-6.4494,-6.3833,-6.311,-6.3,-6.3,-6.3062,-6.3099,-6.3099,-6.3062,-6.2952,-6.289,-6.3012,-6.3403,-6.36,-6.3692,-6.3992,-6.4106,-6.4323,-6.3856,-6.3693,-6.3447,-6.2978,-6.2701,-6.2652,-6.2345,-6.2211,-6.2246,-6.2246,-6.1777,-6.0822,-6.0869,-6.1242,-6.171,-6.188,-6.2014,-6.2464,-6.2563,-6.2654,-6.278,-6.2805,-6.2805,-6.2805,-6.2805,-6.2805,-6.2805,-6.2805,-6.2805,-6.2805,-6.2805,-6.2805,-6.2805,-6.2805,-6.2805,-6.2805,-6.2805,-6.2805,-6.2805,-6.2805,-6.2805,-6.2805,-6.2805,-6.2805,-6.2805,-6.2805,-6.2805,-6.2805,-6.2805,-6.2805,-6.2805,-6.2805,-6.2879,-6.2989,-6.3025,-6.3246,-6.387,-6.442,-6.4861,-6.5411,-6.5925,-6.6219,-6.6476,-6.6439,-6.6733,-6.71,-6.7357,-6.732,-6.7687,-6.7687,-6.7687,-6.7687,-6.7687,-6.7687,-6.7687,-6.7687,-6.7871,-6.7981,-6.8091,-6.8017,-6.8518,-6.8518,-6.8518,-6.8518,-6.8518,-6.8518,-6.8518,-6.8518,-6.8457,-6.8161,-6.7763,-6.7712,-6.741,-6.7043,-6.6953,-6.6659,-6.6109,-6.5815,-6.5301,-6.464,-6.453,-6.4494,-6.4494,-6.4468,-6.453,-6.4505,-6.453,-6.453,-6.4479,-6.4427,-6.4439,-6.4458,-6.4391,-6.4396,-6.4468,-6.4072,-6.3866,-6.3777,-6.3227,-6.2878,-6.2814,-6.2554,-6.2455,-6.2589,-6.2587,-6.247,-6.2395,-6.2422,-6.2699,-6.3141,-6.3358,-6.339,-6.3219,-6.2896,-6.2755,-6.278,-6.2805,-6.2805,-6.2805,-6.2805,-6.2805,-6.2805,-6.2805,-6.2805,-6.2805,-6.2805,-6.2805,-6.2805,-6.2805,-6.2805,-6.2805,-6.2805,-6.2805,-6.2805,-6.2805,-6.2805,-6.2805,-6.2805,-6.2805,-6.2805,-6.2805,-6.2805,-6.2805,-6.278,-6.2879,-6.2915,-6.2915,-6.3037,-6.3539,-6.3686,-6.4016,-6.4751,-6.5228,-6.5668,-6.6182,-6.6586,-6.6916,-6.7063,-6.7063,-6.71,-6.7467,-6.7687,-6.7687,-6.7687,-6.7687,-6.7687,-6.7687,-6.776,-6.7834,-6.7981,-6.8164,-6.8385,-6.8531,-6.8641,-6.8678,-6.8518,-6.8518,-6.8518,-6.8518,-6.8518,-6.8518,-6.8518,-6.8518,-6.8518,-6.8358,-6.8121,-6.807,-6.7941,-6.7741,-6.7687,-6.7393,-6.6953,-6.6953,-6.6659,-6.6109,-6.5485,-6.5338,-6.5338,-6.5338,-6.5338,-6.5338,-6.5301,-6.5338,-6.5312,-6.5321,-6.5296,-6.5223,-6.5319,-6.5395,-6.5265,-6.5032,-6.4819,-6.4638,-6.4242,-6.3889,-6.3795,-6.3599,-6.3533,-6.3668,-6.3733,-6.3896,-6.4116,-6.4274,-6.4205,-6.404,-6.4188,-6.4274,-6.4038,-6.3837,-6.3723,-6.3686,-6.3466,-6.3282,-6.3282,-6.3025,-6.2805,-6.2805,-6.2805,-6.2805,-6.2805,-6.2805,-6.2805,-6.2805,-6.2805,-6.2805,-6.2805,-6.2805,-6.2805,-6.2805,-6.2805,-6.2805,-6.2805,-6.2805,-6.2805,-6.2805,-6.2805,-6.2805,-6.278,-6.3172,-6.3246,-6.3319,-6.3576,-6.3833,-6.442,-6.453,-6.5007,-6.5485,-6.5925,-6.6402,-6.688,-6.7247,-6.7577,-6.7577,-6.754,-6.7504,-6.765,-6.7687,-6.7687,-6.7687,-6.7687,-6.7687,-6.7687,-6.8128,-6.8311,-6.8531,-6.8752,-6.9119,-6.9412,-6.9559,-6.9596,-6.8518,-6.8518,-6.8518,-6.8518,-6.8518,-6.8518,-6.8518,-6.8518,-6.8518,-6.8358,-6.8121,-6.807,-6.7978,-6.7741,-6.7687,-6.7614,-6.7677,-6.7604,-6.754,-6.7136,-6.6329,-6.5705,-6.5705,-6.5742,-6.5742,-6.5668,-6.5632,-6.5595,-6.5742,-6.6096,-6.6217,-6.6089,-6.6531,-6.686,-6.6569,-6.6536,-6.6145,-6.5832,-6.5721,-6.5433,-6.5171,-6.5209,-6.5209,-6.5207,-6.5267,-6.5429,-6.5617,-6.5832,-6.5478,-6.441,-6.4726,-6.4895,-6.4904,-6.5144,-6.5118,-6.5044,-6.453,-6.4237,-6.398,-6.3613,-6.3209,-6.3209,-6.3209,-6.289,-6.3062,-6.3062,-6.2952,-6.2842,-6.2805,-6.2805,-6.2805,-6.2805,-6.2805,-6.2805,-6.2805,-6.2805,-6.2805,-6.2805,-6.2879,-6.2952,-6.2915,-6.2952,-6.3172,-6.3796,-6.4053,-6.4237,-6.4677,-6.5007,-6.5301,-6.5448,-6.5778,-6.6219,-6.6696,-6.6916,-6.732,-6.7393,-6.7687,-6.7687,-6.7687,-6.7687,-6.7687,-6.7687,-6.7687,-6.7687,-6.7834,-6.7797,-6.8017,-6.8531,-6.8898,-6.9082,-6.9449,-6.9963,-7.0257,-7.044,-7.0477,-6.8518,-6.8518,-6.8518,-6.8518,-6.8518,-6.8518,-6.8518,-6.8518,-6.8518,-6.8358,-6.8121,-6.807,-6.7952,-6.7714,-6.7687,-6.7687,-6.7687,-6.7687,-6.7687,-6.764,-6.732,-6.7063,-6.7063,-6.7026,-6.7026,-6.699,-6.688,-6.7063,-6.7063,-6.7039,-6.7049,-6.6882,-6.6923,-6.6961,-6.6786,-6.6608,-6.6421,-6.6207,-6.5962,-6.5707,-6.5477,-6.5445,-6.5545,-6.5675,-6.58,-6.5958,-6.6146,-6.633,-6.6404,-6.6089,-6.5783,-6.5688,-6.567,-6.5547,-6.5485,-6.5411,-6.5191,-6.4971,-6.4934,-6.4714,-6.4604,-6.464,-6.4494,-6.4383,-6.3796,-6.3759,-6.3429,-6.3025,-6.2805,-6.2879,-6.2842,-6.2879,-6.2879,-6.2805,-6.2989,-6.2952,-6.2879,-6.2842,-6.3025,-6.3613,-6.3723,-6.398,-6.442,-6.4751,-6.4971,-6.5044,-6.5301,-6.5632,-6.6035,-6.6219,-6.6439,-6.699,-6.7393,-6.7504,-6.7604,-6.7614,-6.7687,-6.7687,-6.7687,-6.7687,-6.7687,-6.7687,-6.7687,-6.7687,-6.8238,-6.8348,-6.8752,-6.9265,-6.9449,-6.9779,-7.0367,-7.0917,-7.1211,-7.1394,-7.1394,-6.8518,-6.8518,-6.8518,-6.8518,-6.8518,-6.8518,-6.8518,-6.8481,-6.8432,-6.8309,-6.8095,-6.8018,-6.7926,-6.7714,-6.7687,-6.7687,-6.7687,-6.7687,-6.7687,-6.7687,-6.765,-6.7614,-6.765,-6.7687,-6.7687,-6.7687,-6.7687,-6.765,-6.765,-6.7606,-6.7497,-6.7322,-6.7154,-6.7011,-6.6903,-6.6727,-6.6512,-6.6361,-6.6115,-6.5895,-6.5736,-6.5704,-6.5768,-6.5895,-6.6083,-6.63,-6.6518,-6.6632,-6.6786,-6.6794,-6.6632,-6.6545,-6.6628,-6.6453,-6.6329,-6.6292,-6.6035,-6.5815,-6.5742,-6.5521,-6.5338,-6.5301,-6.5338,-6.5081,-6.4714,-6.4604,-6.431,-6.4016,-6.387,-6.387,-6.387,-6.3844,-6.387,-6.3943,-6.3844,-6.3723,-6.3429,-6.3723,-6.4053,-6.4457,-6.464,-6.4751,-6.5301,-6.5595,-6.5778,-6.5888,-6.6219,-6.6549,-6.6916,-6.6953,-6.7063,-6.7467,-6.7687,-6.7677,-6.7677,-6.765,-6.7687,-6.7687,-6.7834,-6.7834,-6.7834,-6.7834,-6.8017,-6.8164,-6.8641,-6.9082,-6.9522,-6.9963,-7.0403,-7.0807,-7.1394,-7.1725,-7.1945,-7.1982,-7.1982,-6.8518,-6.8518,-6.8518,-6.8518,-6.8518,-6.8518,-6.8518,-6.8457,-6.8358,-6.8234,-6.807,-6.7978,-6.7847,-6.7714,-6.7687,-6.7687,-6.7687,-6.7687,-6.7687,-6.7687,-6.7687,-6.7687,-6.7687,-6.7687,-6.7687,-6.7687,-6.7687,-6.7687,-6.7687,-6.7687,-6.7606,-6.7442,-6.7266,-6.7126,-6.699,-6.6845,-6.6697,-6.6482,-6.63,-6.6146,-6.6021,-6.599,-6.6021,-6.6083,-6.6361,-6.6608,-6.6786,-6.6903,-6.6983,-6.704,-6.7154,-6.7221,-6.7396,-6.7569,-6.7614,-6.7457,-6.6916,-6.6623,-6.6549,-6.6072,-6.5668,-6.5778,-6.5742,-6.5485,-6.5485,-6.5411,-6.5301,-6.5007,-6.5301,-6.5081,-6.5081,-6.5191,-6.5118,-6.5044,-6.5165,-6.5044,-6.4677,-6.4934,-6.5338,-6.5411,-6.5448,-6.5448,-6.5705,-6.6109,-6.6623,-6.6659,-6.6916,-6.7136,-6.732,-6.7357,-6.743,-6.7577,-6.7687,-6.7687,-6.7687,-6.7687,-6.7687,-6.7687,-6.8017,-6.8091,-6.8091,-6.8201,-6.8458,-6.8825,-6.9486,-6.9926,-7.022,-7.0697,-7.1211,-7.1541,-7.1908,-7.2239,-7.2459,-7.2349,-7.2312,-6.8518,-6.8518,-6.8518,-6.8518,-6.8518,-6.8518,-6.8518,-6.8481,-6.8358,-6.8208,-6.8107,-6.7978,-6.782,-6.7687,-6.7687,-6.7687,-6.7687,-6.7687,-6.7687,-6.7687,-6.7687,-6.7687,-6.7687,-6.7687,-6.7687,-6.7687,-6.7687,-6.7687,-6.7687,-6.7687,-6.7633,-6.7497,-6.7359,-6.7126,-6.6983,-6.6874,-6.6697,-6.6548,-6.6361,-6.6207,-6.6115,-6.6146,-6.6207,-6.6269,-6.6578,-6.6786,-6.6932,-6.6954,-6.7134,-6.7331,-6.7414,-6.7442,-6.7524,-6.7633,-6.7687,-6.765,-6.754,-6.7393,-6.7357,-6.7173,-6.7136,-6.7026,-6.6916,-6.6916,-6.6292,-6.6256,-6.5925,-6.5521,-6.5338,-6.5485,-6.5521,-6.5375,-6.5485,-6.5632,-6.5925,-6.6182,-6.5962,-6.5632,-6.5705,-6.6072,-6.6256,-6.6476,-6.7026,-6.71,-6.7357,-6.743,-6.7504,-6.765,-6.7687,-6.7687,-6.7687,-6.7687,-6.7687,-6.7687,-6.7687,-6.7724,-6.7797,-6.7944,-6.8238,-6.8825,-6.8825,-6.8898,-6.9265,-6.9816,-7.044,-7.077,-7.0954,-7.1505,-7.2055,-7.2239,-7.2312,-7.2422,-7.2532,-7.2532,-7.2532,-6.8518,-6.8518,-6.8518,-6.8518,-6.8518,-6.8518,-6.8457,-6.8383,-6.8259,-6.8132,-6.8004,-6.7873,-6.7767,-6.7687,-6.7687,-6.7687,-6.7687,-6.7687,-6.7687,-6.7687,-6.7687,-6.7687,-6.7687,-6.7687,-6.7687,-6.7687,-6.7687,-6.7687,-6.7687,-6.7687,-6.766,-6.7579,-6.7442,-6.7266,-6.7097,-6.6961,-6.6815,-6.6638,-6.6391,-6.6238,-6.6177,-6.6238,-6.6427,-6.6518,-6.6697,-6.6845,-6.699,-6.7069,-6.7247,-6.7442,-6.7588,-6.7579,-6.7579,-6.766,-6.7687,-6.7687,-6.7687,-6.7687,-6.7687,-6.7687,-6.7614,-6.7687,-6.7687,-6.7467,-6.7173,-6.7063,-6.688,-6.6549,-6.6476,-6.6439,-6.6402,-6.6439,-6.6402,-6.6476,-6.6769,-6.7026,-6.699,-6.6659,-6.6512,-6.6953,-6.7063,-6.721,-6.754,-6.765,-6.765,-6.754,-6.754,-6.7687,-6.7687,-6.7687,-6.7687,-6.7687,-6.7687,-6.7687,-6.7687,-6.776,-6.7981,-6.8238,-6.8605,-6.9449,-7.0036,-7.011,-7.0257,-7.0734,-7.1174,-7.1468,-7.1725,-7.2312,-7.2532,-7.2459,-7.2459,-7.2496,-7.2532,-7.2532,-7.2532,-6.8518,-6.8518,-6.8518,-6.8518,-6.8481,-6.8481,-6.8408,-6.8284,-6.8158,-6.803,-6.7899,-6.7767,-6.7714,-6.7687,-6.7687,-6.7687,-6.7687,-6.7687,-6.7687,-6.7687,-6.7687,-6.7687,-6.7687,-6.7687,-6.7687,-6.7687,-6.7687,-6.7687,-6.7687,-6.7687,-6.7687,-6.766,-6.7552,-6.7387,-6.721,-6.7069,-6.6932,-6.6757,-6.6482,-6.633,-6.63,-6.633,-6.6518,-6.6697,-6.6793,-6.6903,-6.7048,-6.7154,-6.7294,-6.7497,-6.7633,-6.7687,-6.7687,-6.7687,-6.7687,-6.7687,-6.7687,-6.7687,-6.7687,-6.7687,-6.7687,-6.7687,-6.7687,-6.7687,-6.7614,-6.7604,-6.7504,-6.754,-6.7467,-6.7467,-6.765,-6.7467,-6.7504,-6.7577,-6.7614,-6.7687,-6.7687,-6.7687,-6.7577,-6.7577,-6.7467,-6.754,-6.7614,-6.7687,-6.7687,-6.7687,-6.7687,-6.7687,-6.7687,-6.7687,-6.7687,-6.7687,-6.7687,-6.7687,-6.7687,-6.8128,-6.8311,-6.8752,-6.9119,-7.0036,-7.0954,-7.1174,-7.1211,-7.1358,-7.1688,-7.1982,-7.2129,-7.2386,-7.2532,-7.2532,-7.2532,-7.2532,-7.2532,-7.2532,-7.2532,-6.8518,-6.8518,-6.8518,-6.8518,-6.8481,-6.8383,-6.8309,-6.8259,-6.8055,-6.7952,-6.7899,-6.7767,-6.7687,-6.7687,-6.7687,-6.7687,-6.7687,-6.7687,-6.7687,-6.7687,-6.7687,-6.7687,-6.7687,-6.7687,-6.7687,-6.7687,-6.7687,-6.7687,-6.7687,-6.7687,-6.7687,-6.766,-6.7552,-6.7414,-6.7238,-6.7069,-6.6961,-6.6815,-6.6578,-6.6452,-6.6421,-6.6452,-6.6578,-6.6757,-6.6822,-6.6932,-6.7097,-6.721,-6.735,-6.7633,-6.7687,-6.7687,-6.7687,-6.7687,-6.7687,-6.7687,-6.7687,-6.7687,-6.7687,-6.7687,-6.7687,-6.7687,-6.7687,-6.7687,-6.7687,-6.7687,-6.7687,-6.7687,-6.7687,-6.7687,-6.7687,-6.7687,-6.7687,-6.7687,-6.7687,-6.7687,-6.7687,-6.7687,-6.7687,-6.7687,-6.7687,-6.7687,-6.7687,-6.7687,-6.7687,-6.7687,-6.7687,-6.7687,-6.7687,-6.7687,-6.7687,-6.7687,-6.7687,-6.7687,-6.7687,-6.8348,-6.8825,-6.9376,-6.9889,-7.066,-7.1468,-7.1982,-7.2165,-7.2055,-7.2092,-7.2275,-7.2422,-7.2532,-7.2532,-7.2532,-7.2532,-7.2532,-7.2532,-7.2532,-7.2532,-6.8518,-6.8518,-6.8518,-6.8457,-6.8383,-6.8334,-6.8208,-6.8081,-6.7978,-6.7873,-6.7794,-6.7741,-6.7687,-6.7687,-6.7687,-6.7687,-6.7687,-6.7687,-6.7687,-6.7687,-6.7687,-6.7687,-6.7687,-6.7687,-6.7687,-6.7687,-6.7687,-6.7687,-6.7687,-6.7687,-6.7687,-6.7687,-6.7633,-6.7524,-6.7322,-6.7182,-6.7048,-6.6874,-6.6632,-6.6512,-6.6512,-6.6512,-6.6638,-6.6757,-6.6874,-6.6983,-6.7154,-6.7331,-6.747,-6.7633,-6.7687,-6.7687,-6.7687,-6.7687,-6.7687,-6.7687,-6.7687,-6.7687,-6.7687,-6.7687,-6.7687,-6.7687,-6.7687,-6.7687,-6.7687,-6.7687,-6.7687,-6.7687,-6.7687,-6.7687,-6.7687,-6.7687,-6.7687,-6.7687,-6.7687,-6.7687,-6.7687,-6.7687,-6.7687,-6.7687,-6.7687,-6.7687,-6.7687,-6.7687,-6.7687,-6.7687,-6.7687,-6.7687,-6.7687,-6.7687,-6.7687,-6.7834,-6.7907,-6.8128,-6.8238,-6.8825,-6.9449,-7.0,-7.055,-7.1321,-7.1798,-7.2275,-7.2422,-7.2386,-7.2496,-7.2532,-7.2532,-7.2532,-7.2532,-7.2532,-7.2532,-7.2532,-7.2532,-7.2532,-7.2532,-6.8518,-6.8481,-6.8457,-6.8383,-6.8284,-6.8234,-6.8107,-6.7926,-6.7873,-6.7794,-6.7714,-6.7687,-6.7687,-6.7687,-6.7687,-6.7687,-6.7687,-6.7687,-6.7687,-6.7687,-6.7687,-6.7687,-6.7687,-6.7687,-6.7687,-6.7687,-6.7687,-6.7687,-6.7687,-6.7687,-6.7687,-6.7687,-6.7687,-6.7633,-6.747,-6.7331,-6.7154,-6.6954,-6.675,-6.6602,-6.6578,-6.6578,-6.6632,-6.6815,-6.6961,-6.7069,-6.7266,-6.7414,-6.7524,-6.766,-6.7687,-6.7687,-6.7687,-6.7687,-6.7687,-6.7687,-6.7687,-6.7687,-6.7687,-6.7687,-6.7687,-6.7687,-6.7687,-6.7687,-6.7687,-6.7687,-6.7687,-6.7687,-6.7687,-6.7687,-6.7687,-6.7687,-6.7687,-6.7687,-6.7687,-6.7687,-6.7687,-6.7687,-6.7687,-6.7687,-6.7687,-6.7687,-6.7687,-6.7687,-6.7687,-6.7687,-6.7687,-6.7687,-6.7687,-6.7687,-6.7724,-6.7981,-6.8201,-6.8568,-6.8935,-6.9486,-7.011,-7.0706,-7.1211,-7.1835,-7.2165,-7.2459,-7.2532,-7.2532,-7.2532,-7.2532,-7.2532,-7.2532,-7.2532,-7.2532,-7.2532,-7.2532,-7.2532,-7.2532,-7.2532,-6.8518,-6.8481,-6.8383,-6.8309,-6.8259,-6.8055,-6.7952,-6.7899,-6.7794,-6.7714,-6.7687,-6.7687,-6.7687,-6.7687,-6.7687,-6.7687,-6.7687,-6.7687,-6.7687,-6.7687,-6.7687,-6.7687,-6.7687,-6.7687,-6.7687,-6.7687,-6.7687,-6.7687,-6.7687,-6.7687,-6.7687,-6.7687,-6.7687,-6.7633,-6.7524,-6.7442,-6.7303,-6.7076,-6.699,-6.6874,-6.6786,-6.6757,-6.6845,-6.6961,-6.7048,-6.7162,-6.7387,-6.747,-6.7579,-6.7687,-6.7687,-6.7687,-6.7687,-6.7687,-6.7687,-6.7687,-6.7687,-6.7687,-6.7687,-6.7687,-6.7687,-6.7687,-6.7687,-6.7687,-6.7687,-6.7687,-6.7687,-6.7687,-6.7687,-6.7687,-6.7687,-6.7687,-6.7687,-6.7687,-6.7687,-6.7687,-6.7687,-6.7687,-6.7687,-6.7687,-6.7687,-6.7687,-6.7687,-6.7687,-6.7687,-6.7687,-6.7687,-6.7687,-6.776,-6.7834,-6.7981,-6.8274,-6.8788,-6.9192,-6.9669,-7.022,-7.0734,-7.1366,-7.177,-7.2239,-7.2386,-7.2532,-7.2532,-7.2532,-7.2532,-7.2532,-7.2532,-7.2532,-7.2532,-7.2532,-7.2532,-7.2532,-7.2532,-7.2532,-7.2532,-6.8518,-6.8481,-6.8358,-6.8259,-6.8183,-6.7967,-6.7873,-6.7794,-6.7741,-6.7687,-6.7687,-6.7687,-6.7687,-6.7687,-6.7687,-6.7687,-6.7687,-6.7687,-6.7687,-6.7687,-6.7687,-6.7687,-6.7687,-6.7687,-6.7687,-6.7687,-6.7687,-6.7687,-6.7687,-6.7687,-6.7687,-6.7687,-6.7687,-6.7687,-6.7579,-6.7561,-6.7414,-6.7275,-6.719,-6.7069,-6.7011,-6.7011,-6.704,-6.7097,-6.7219,-6.7359,-6.7442,-6.7579,-6.7633,-6.7687,-6.7687,-6.7687,-6.7687,-6.7687,-6.7687,-6.7687,-6.7687,-6.7687,-6.7687,-6.7687,-6.7687,-6.7687,-6.7687,-6.7687,-6.7687,-6.7687,-6.7687,-6.7687,-6.7687,-6.7687,-6.7687,-6.7687,-6.7687,-6.7687,-6.7687,-6.7687,-6.7687,-6.7687,-6.7687,-6.7687,-6.7687,-6.7687,-6.7687,-6.7687,-6.7687,-6.7687,-6.7687,-6.7724,-6.7944,-6.8238,-6.8458,-6.8715,-6.9302,-6.9889,-7.044,-7.0954,-7.1358,-7.1835,-7.2055,-7.2422,-7.2459,-7.2532,-7.2532,-7.2532,-7.2532,-7.2532,-7.2532,-7.2532,-7.2532,-7.2532,-7.2532,-7.2532,-7.2532,-7.2532,-7.2532,-6.8432,-6.8432,-6.8309,-6.8183,-6.8018,-6.7926,-6.7794,-6.7714,-6.7714,-6.7687,-6.7687,-6.7687,-6.7687,-6.7687,-6.7687,-6.7687,-6.7687,-6.7687,-6.7687,-6.7687,-6.7687,-6.7687,-6.7687,-6.7687,-6.7687,-6.7687,-6.7687,-6.7687,-6.7687,-6.7687,-6.7687,-6.7687,-6.7687,-6.7687,-6.766,-6.7606,-6.7524,-6.7442,-6.7266,-6.721,-6.7182,-6.7182,-6.721,-6.7294,-6.7414,-6.7497,-6.7552,-6.7633,-6.7687,-6.7687,-6.7687,-6.7687,-6.7687,-6.7687,-6.7687,-6.7687,-6.7687,-6.7687,-6.7687,-6.7687,-6.7687,-6.7687,-6.7687,-6.7687,-6.7687,-6.7687,-6.7687,-6.7687,-6.7687,-6.7687,-6.7687,-6.7687,-6.7687,-6.7687,-6.7687,-6.7687,-6.7687,-6.7687,-6.7687,-6.7687,-6.7687,-6.7687,-6.7687,-6.7687,-6.7687,-6.7687,-6.7724,-6.7797,-6.8164,-6.8605,-6.9155,-6.9522,-7.0036,-7.0697,-7.1284,-7.1725,-7.2092,-7.2202,-7.2422,-7.2532,-7.2532,-7.2532,-7.2532,-7.2532,-7.2532,-7.2532,-7.2532,-7.2532,-7.2532,-7.2532,-7.2532,-7.2532,-7.2532,-7.2532,-7.2532,-6.8309,-6.8309,-6.8183,-6.8018,-6.7926,-6.7767,-6.7714,-6.7687,-6.7687,-6.7687,-6.7687,-6.7687,-6.7687,-6.7687,-6.7687,-6.7687,-6.7687,-6.7687,-6.7687,-6.7687,-6.7687,-6.7687,-6.7687,-6.7687,-6.7687,-6.7687,-6.7687,-6.7687,-6.7687,-6.7687,-6.7687,-6.7687,-6.7687,-6.7687,-6.7687,-6.766,-6.7606,-6.7524,-6.735,-6.7266,-6.7238,-6.7266,-6.7294,-6.7442,-6.7497,-6.7588,-6.766,-6.7687,-6.7687,-6.7687,-6.7687,-6.7687,-6.7687,-6.7687,-6.7687,-6.7687,-6.7687,-6.7687,-6.7687,-6.7687,-6.7687,-6.7687,-6.7687,-6.7687,-6.7687,-6.7687,-6.7687,-6.7687,-6.7687,-6.7687,-6.7687,-6.7687,-6.7687,-6.7687,-6.7687,-6.7687,-6.7687,-6.7687,-6.7687,-6.7687,-6.7687,-6.7687,-6.7687,-6.7687,-6.7687,-6.7687,-6.8054,-6.8128,-6.8605,-6.9119,-6.9926,-7.0477,-7.0954,-7.1505,-7.2129,-7.2422,-7.2349,-7.2349,-7.2459,-7.2532,-7.2532,-7.2532,-7.2532,-7.2532,-7.2532,-7.2532,-7.2532,-7.2532,-7.2532,-7.2532,-7.2532,-7.2532,-7.2532,-7.2532,-7.2532,-6.8132,-6.8055,-6.8004,-6.7952,-6.7899,-6.7767,-6.7687,-6.7687,-6.7687,-6.7687,-6.7687,-6.7687,-6.7687,-6.7687,-6.7687,-6.7687,-6.7687,-6.7687,-6.7687,-6.7687,-6.7687,-6.7687,-6.7687,-6.7687,-6.7687,-6.7687,-6.7687,-6.7687,-6.7687,-6.776,-6.7687,-6.7687,-6.7834,-6.7687,-6.7687,-6.7797,-6.777,-6.7679,-6.7588,-6.7497,-6.7414,-6.747,-6.7524,-6.7506,-6.7579,-6.7633,-6.7687,-6.7687,-6.7687,-6.7687,-6.7687,-6.7687,-6.7687,-6.7687,-6.7687,-6.7687,-6.7687,-6.7687,-6.7687,-6.7687,-6.7687,-6.7687,-6.7687,-6.7687,-6.7687,-6.7687,-6.7687,-6.7687,-6.7687,-6.7687,-6.7687,-6.7687,-6.7687,-6.7687,-6.7687,-6.7687,-6.7687,-6.7687,-6.7687,-6.7687,-6.7687,-6.7687,-6.7687,-6.7687,-6.7687,-6.7724,-6.8128,-6.8605,-6.9155,-6.9706,-7.0513,-7.1138,-7.1578,-7.1835,-7.2422,-7.2532,-7.2532,-7.2532,-7.2532,-7.2532,-7.2532,-7.2532,-7.2532,-7.2532,-7.2532,-7.2532,-7.2532,-7.2532,-7.2532,-7.2532,-7.2532,-7.2532,-7.2532,-7.2532,-7.2532,-6.8004,-6.7926,-6.7873,-6.7847,-6.7847,-6.7741,-6.7687,-6.7687,-6.7687,-6.7687,-6.7687,-6.7687,-6.7687,-6.7687,-6.7687,-6.7687,-6.7687,-6.7687,-6.7687,-6.7687,-6.7687,-6.7687,-6.7687,-6.7687,-6.7687,-6.7687,-6.7724,-6.7724,-6.8128,-6.8091,-6.8311,-6.8458,-6.8385,-6.8385,-6.8164,-6.8311,-6.8385,-6.8367,-6.8367,-6.8065,-6.7917,-6.7872,-6.7698,-6.7579,-6.7579,-6.7633,-6.7687,-6.7687,-6.7687,-6.7687,-6.7687,-6.7687,-6.7687,-6.7687,-6.7687,-6.7687,-6.7687,-6.7687,-6.7687,-6.7687,-6.7687,-6.7687,-6.7687,-6.7687,-6.7687,-6.7687,-6.7687,-6.7687,-6.7687,-6.7687,-6.7687,-6.7687,-6.7687,-6.7687,-6.7687,-6.7687,-6.7687,-6.7687,-6.7687,-6.7687,-6.7687,-6.7724,-6.7907,-6.7981,-6.8311,-6.8458,-6.8898,-6.9449,-7.0036,-7.0587,-7.1138,-7.1688,-7.2092,-7.2312,-7.2532,-7.2532,-7.2532,-7.2532,-7.2532,-7.2532,-7.2532,-7.2532,-7.2532,-7.2532,-7.2532,-7.2532,-7.2532,-7.2532,-7.2532,-7.2532,-7.2532,-7.2532,-7.2532,-7.2532,-7.2532,-6.7899,-6.7899,-6.7767,-6.7714,-6.7714,-6.7714,-6.7687,-6.7687,-6.7687,-6.7687,-6.7687,-6.7687,-6.7687,-6.7687,-6.7687,-6.7687,-6.7687,-6.7687,-6.7687,-6.7687,-6.7687,-6.7687,-6.7687,-6.7687,-6.7797,-6.7751,-6.7871,-6.8274,-6.8862,-6.8862,-6.9229,-6.9669,-6.9706,-6.9522,-6.9009,-6.9633,-6.9944,-6.9831,-6.9693,-6.9133,-6.8588,-6.8442,-6.8199,-6.7935,-6.7936,-6.8055,-6.789,-6.7907,-6.7871,-6.7687,-6.7687,-6.7687,-6.7687,-6.7687,-6.7687,-6.7687,-6.7687,-6.7687,-6.7687,-6.7687,-6.7687,-6.7687,-6.7687,-6.7687,-6.7687,-6.7687,-6.7687,-6.7687,-6.7687,-6.7687,-6.7687,-6.7687,-6.7687,-6.7687,-6.7687,-6.7687,-6.7687,-6.7687,-6.7687,-6.7797,-6.776,-6.7797,-6.8091,-6.8385,-6.8898,-6.9265,-6.9706,-7.0257,-7.0807,-7.1321,-7.1798,-7.1982,-7.2349,-7.2422,-7.2532,-7.2532,-7.2532,-7.2532,-7.2532,-7.2532,-7.2532,-7.2532,-7.2532,-7.2532,-7.2532,-7.2532,-7.2532,-7.2532,-7.2532,-7.2532,-7.2532,-7.2532,-7.2532,-7.2532,-7.2532,-6.7767,-6.7767,-6.7714,-6.7687,-6.7687,-6.7687,-6.7687,-6.7687,-6.7687,-6.7687,-6.7687,-6.7687,-6.7687,-6.7687,-6.7687,-6.7687,-6.7687,-6.7687,-6.7687,-6.7687,-6.7724,-6.7687,-6.7724,-6.7871,-6.8054,-6.8385,-6.8568,-6.8898,-6.9706,-6.9706,-6.9779,-7.011,-7.066,-7.044,-6.9926,-7.0036,-7.0017,-6.9876,-6.9848,-6.9587,-6.9172,-6.9129,-6.9041,-6.8721,-6.8856,-6.8742,-6.8358,-6.844,-6.8311,-6.7944,-6.7871,-6.776,-6.776,-6.7724,-6.7687,-6.7687,-6.7687,-6.7687,-6.7687,-6.7687,-6.7687,-6.7687,-6.7687,-6.7687,-6.7687,-6.7687,-6.7687,-6.7687,-6.7687,-6.7687,-6.7687,-6.7687,-6.7687,-6.7687,-6.7687,-6.7687,-6.7687,-6.7687,-6.7724,-6.7907,-6.7981,-6.8752,-6.9192,-6.9486,-6.9889,-7.0257,-7.0734,-7.0807,-7.1248,-7.1798,-7.2275,-7.2312,-7.2459,-7.2496,-7.2532,-7.2532,-7.2532,-7.2532,-7.2532,-7.2532,-7.2532,-7.2532,-7.2532,-7.2532,-7.2532,-7.2532,-7.2532,-7.2532,-7.2532,-7.2532,-7.2532,-7.2532,-7.2532,-7.2532,-7.2532,-6.7687,-6.7687,-6.7687,-6.7687,-6.7687,-6.7687,-6.7687,-6.7687,-6.7687,-6.7687,-6.7687,-6.7687,-6.7687,-6.7687,-6.7687,-6.7687,-6.7687,-6.7687,-6.7687,-6.7724,-6.8017,-6.8128,-6.8201,-6.8385,-6.8935,-6.9229,-6.9412,-6.9743,-7.0477,-7.0513,-7.0734,-7.1101,-7.1431,-7.1394,-7.1101,-7.1027,-7.0914,-7.0843,-7.0792,-7.0456,-6.9993,-6.9751,-6.9666,-6.9507,-6.9508,-6.9498,-6.9254,-6.9082,-6.9082,-6.8568,-6.8274,-6.8128,-6.8091,-6.7871,-6.776,-6.7687,-6.7687,-6.7687,-6.7687,-6.7687,-6.7687,-6.7687,-6.7687,-6.7687,-6.7687,-6.7687,-6.7687,-6.7687,-6.7687,-6.7724,-6.7724,-6.7724,-6.7834,-6.7834,-6.7834,-6.7834,-6.8164,-6.8201,-6.8385,-6.8531,-6.8862,-6.9633,-7.033,-7.0734,-7.1036,-7.1394,-7.1725,-7.1688,-7.1651,-7.2129,-7.2532,-7.2532,-7.2532,-7.2532,-7.2532,-7.2532,-7.2532,-7.2532,-7.2532,-7.2532,-7.2532,-7.2532,-7.2532,-7.2532,-7.2532,-7.2532,-7.2532,-7.2532,-7.2532,-7.2532,-7.2532,-7.2532,-7.2532,-7.2532,-7.2532,-6.7687,-6.7687,-6.7687,-6.7687,-6.7687,-6.7687,-6.7687,-6.7687,-6.7687,-6.7687,-6.7687,-6.7687,-6.7687,-6.7687,-6.7687,-6.7687,-6.776,-6.776,-6.7834,-6.8054,-6.8605,-6.8788,-6.9155,-6.9522,-6.9816,-7.0036,-7.022,-7.055,-7.1284,-7.1358,-7.1725,-7.2129,-7.2202,-7.2165,-7.2129,-7.2063,-7.1948,-7.1728,-7.1543,-7.1168,-7.0701,-7.047,-7.0272,-7.0108,-7.0032,-7.0062,-6.9958,-7.0026,-6.9972,-6.9706,-6.9339,-6.9082,-6.8715,-6.8201,-6.7907,-6.7834,-6.7907,-6.8017,-6.8054,-6.8128,-6.8091,-6.8201,-6.8054,-6.7871,-6.7687,-6.7687,-6.7687,-6.776,-6.7834,-6.7834,-6.7861,-6.8008,-6.8155,-6.8128,-6.8091,-6.8385,-6.8825,-6.9082,-6.9339,-6.9559,-6.9889,-7.0477,-7.1138,-7.1586,-7.1733,-7.1982,-7.2165,-7.2165,-7.2165,-7.2202,-7.2532,-7.2532,-7.2532,-7.2532,-7.2532,-7.2532,-7.2532,-7.2532,-7.2532,-7.2532,-7.2532,-7.2532,-7.2532,-7.2532,-7.2532,-7.2532,-7.2532,-7.2532,-7.2532,-7.2532,-7.2532,-7.2532,-7.2532,-7.2532,-7.2532,-6.7687,-6.7687,-6.7687,-6.7687,-6.7687,-6.7687,-6.7687,-6.7687,-6.7687,-6.7687,-6.7687,-6.7687,-6.7687,-6.7687,-6.7687,-6.7687,-6.7907,-6.8201,-6.8495,-6.8862,-6.9376,-6.9633,-6.9853,-7.011,-7.044,-7.0807,-7.1064,-7.1321,-7.1945,-7.2129,-7.2129,-7.2422,-7.2496,-7.2532,-7.2532,-7.2496,-7.2387,-7.2233,-7.2078,-7.1751,-7.1422,-7.119,-7.1034,-7.1011,-7.1053,-7.1019,-7.0836,-7.0906,-7.0742,-7.0146,-6.9926,-6.9743,-6.9706,-6.9522,-6.9412,-6.9412,-6.9449,-6.9449,-6.9412,-6.9376,-6.9302,-6.9192,-6.9265,-6.8605,-6.8128,-6.7834,-6.7871,-6.8091,-6.8348,-6.8495,-6.8678,-6.8788,-6.8898,-6.8972,-6.9009,-6.9229,-6.9633,-6.9816,-7.0073,-7.0403,-7.0697,-7.1174,-7.1835,-7.2055,-7.2202,-7.2422,-7.2532,-7.2532,-7.2532,-7.2532,-7.2532,-7.2532,-7.2532,-7.2532,-7.2532,-7.2532,-7.2532,-7.2532,-7.2532,-7.2532,-7.2532,-7.2532,-7.2532,-7.2532,-7.2532,-7.2532,-7.2532,-7.2532,-7.2532,-7.2532,-7.2532,-7.2532,-7.2532,-7.2532,-7.2532,-6.7687,-6.7687,-6.7687,-6.7687,-6.7687,-6.7687,-6.7687,-6.7687,-6.7687,-6.7687,-6.7687,-6.7687,-6.7687,-6.7687,-6.7724,-6.7871,-6.8274,-6.8605,-6.8972,-6.9559,-7.022,-7.0477,-7.0587,-7.0881,-7.1358,-7.1651,-7.1835,-7.1982,-7.2422,-7.2532,-7.2496,-7.2496,-7.2532,-7.2532,-7.2532,-7.2496,-7.2467,-7.2351,-7.2204,-7.2054,-7.1903,-7.178,-7.1811,-7.1872,-7.2024,-7.1845,-7.1641,-7.1676,-7.1403,-7.0991,-7.0881,-7.0587,-7.0477,-7.033,-7.0073,-6.9963,-6.9963,-6.9926,-6.9926,-6.9963,-7.0073,-7.011,-7.0146,-6.9596,-6.9155,-6.8862,-6.8862,-6.8935,-6.9192,-6.9412,-6.9596,-6.9743,-6.9889,-7.0036,-7.011,-7.022,-7.0367,-7.055,-7.0807,-7.1138,-7.1505,-7.1908,-7.2275,-7.2422,-7.2532,-7.2532,-7.2532,-7.2532,-7.2532,-7.2532,-7.2532,-7.2532,-7.2532,-7.2532,-7.2532,-7.2532,-7.2532,-7.2532,-7.2532,-7.2532,-7.2532,-7.2532,-7.2532,-7.2532,-7.2532,-7.2532,-7.2532,-7.2532,-7.2532,-7.2532,-7.2532,-7.2532,-7.2532,-7.2532,-7.2532,-6.7687,-6.7687,-6.7687,-6.7687,-6.7687,-6.7687,-6.7687,-6.7687,-6.7687,-6.7687,-6.7687,-6.7687,-6.776,-6.7907,-6.7981,-6.8385,-6.8898,-6.9339,-6.9779,-7.022,-7.1027,-7.1394,-7.1615,-7.2055,-7.2092,-7.2386,-7.2459,-7.2349,-7.2459,-7.2532,-7.2532,-7.2532,-7.2532,-7.2532,-7.2532,-7.2532,-7.2467,-7.238,-7.2292,-7.2174,-7.2084,-7.2018,-7.2018,-7.2048,-7.2174,-7.2255,-7.2285,-7.2372,-7.2496,-7.2239,-7.1908,-7.1431,-7.1211,-7.0917,-7.0587,-7.0513,-7.066,-7.066,-7.0697,-7.0734,-7.0587,-7.0513,-7.0293,-7.044,-7.0367,-6.9743,-6.9559,-6.9633,-6.9853,-7.0146,-7.033,-7.066,-7.0881,-7.0954,-7.0991,-7.1138,-7.1284,-7.1431,-7.1541,-7.1798,-7.1982,-7.2349,-7.2386,-7.2532,-7.2532,-7.2532,-7.2532,-7.2532,-7.2532,-7.2532,-7.2532,-7.2532,-7.2532,-7.2532,-7.2532,-7.2532,-7.2532,-7.2532,-7.2532,-7.2532,-7.2532,-7.2532,-7.2532,-7.2532,-7.2532,-7.2532,-7.2532,-7.2532,-7.2532,-7.2532,-7.2532,-7.2532,-7.2532,-7.2532,-7.2532,-6.7687,-6.7687,-6.7687,-6.7687,-6.7687,-6.7687,-6.7687,-6.7687,-6.7687,-6.7687,-6.7687,-6.7787,-6.8054,-6.8458,-6.8605,-6.9045,-6.9743,-7.022,-7.077,-7.1174,-7.1798,-7.2018,-7.2165,-7.2349,-7.2532,-7.2532,-7.2532,-7.2532,-7.2532,-7.2532,-7.2532,-7.2532,-7.2532,-7.2532,-7.2496,-7.2496,-7.2438,-7.2351,-7.2292,-7.2233,-7.2174,-7.2084,-7.2054,-7.2174,-7.2299,-7.2358,-7.238,-7.2467,-7.2496,-7.2386,-7.2349,-7.2239,-7.2202,-7.1982,-7.1908,-7.1908,-7.1725,-7.1688,-7.1688,-7.1651,-7.1651,-7.1762,-7.1798,-7.1872,-7.1578,-7.066,-7.0257,-7.0367,-7.055,-7.0844,-7.1138,-7.1505,-7.1762,-7.1798,-7.1798,-7.1982,-7.2165,-7.2202,-7.2275,-7.2386,-7.2496,-7.2532,-7.2532,-7.2532,-7.2532,-7.2532,-7.2532,-7.2532,-7.2532,-7.2532,-7.2532,-7.2532,-7.2532,-7.2532,-7.2532,-7.2532,-7.2532,-7.2532,-7.2532,-7.2532,-7.2532,-7.2532,-7.2532,-7.2532,-7.2532,-7.2532,-7.2532,-7.2532,-7.2532,-7.2532,-7.2532,-7.2532,-7.2532,-7.2532,-7.2532,-6.7633,-6.7687,-6.7687,-6.7687,-6.7687,-6.7687,-6.7687,-6.7687,-6.7687,-6.7907,-6.8201,-6.8274,-6.8495,-6.9045,-6.9265,-6.9889,-7.0587,-7.1027,-7.1468,-7.1908,-7.2165,-7.2386,-7.2532,-7.2532,-7.2532,-7.2532,-7.2532,-7.2532,-7.2532,-7.2532,-7.2532,-7.2532,-7.2532,-7.2496,-7.2496,-7.2438,-7.2351,-7.2292,-7.2204,-7.2174,-7.2174,-7.2084,-7.2054,-7.2174,-7.2263,-7.2321,-7.238,-7.2438,-7.2496,-7.2532,-7.2459,-7.2459,-7.2459,-7.2386,-7.2422,-7.2422,-7.2422,-7.2532,-7.2532,-7.2532,-7.2532,-7.2532,-7.2496,-7.2275,-7.2275,-7.1505,-7.1431,-7.1541,-7.1578,-7.1835,-7.1835,-7.2129,-7.2202,-7.2202,-7.2202,-7.2312,-7.2349,-7.2386,-7.2422,-7.2459,-7.2532,-7.2532,-7.2532,-7.2532,-7.2532,-7.2532,-7.2532,-7.2532,-7.2532,-7.2532,-7.2532,-7.2532,-7.2532,-7.2532,-7.2532,-7.2532,-7.2532,-7.2532,-7.2532,-7.2532,-7.2532,-7.2532,-7.2532,-7.2532,-7.2532,-7.2532,-7.2532,-7.2532,-7.2532,-7.2532,-7.2532,-7.2532,-7.2532,-7.2532,-7.2532,-6.7579,-6.7687,-6.7687,-6.7687,-6.7687,-6.7687,-6.7687,-6.7687,-6.7861,-6.8238,-6.8862,-6.9119,-6.9192,-6.9486,-6.9889,-7.0697,-7.1284,-7.1578,-7.1982,-7.2275,-7.2459,-7.2532,-7.2532,-7.2532,-7.2532,-7.2532,-7.2532,-7.2532,-7.2532,-7.2532,-7.2532,-7.2532,-7.2496,-7.2467,-7.2438,-7.2351,-7.2299,-7.2144,-7.2054,-7.1957,-7.1957,-7.1988,-7.2018,-7.2048,-7.2174,-7.2233,-7.2292,-7.238,-7.2504,-7.2532,-7.2532,-7.2532,-7.2532,-7.2532,-7.2532,-7.2532,-7.2532,-7.2532,-7.2532,-7.2532,-7.2532,-7.2532,-7.2532,-7.2496,-7.2496,-7.2459,-7.2386,-7.2386,-7.2422,-7.2459,-7.2459,-7.2459,-7.2496,-7.2532,-7.2532,-7.2532,-7.2532,-7.2532,-7.2532,-7.2532,-7.2532,-7.2532,-7.2532,-7.2532,-7.2532,-7.2532,-7.2532,-7.2532,-7.2532,-7.2532,-7.2532,-7.2532,-7.2532,-7.2532,-7.2532,-7.2532,-7.2532,-7.2532,-7.2532,-7.2532,-7.2532,-7.2532,-7.2532,-7.2532,-7.2532,-7.2532,-7.2532,-7.2532,-7.2532,-7.2532,-7.2532,-7.2532,-7.2532,-7.2532,-7.2532,-6.7579,-6.7687,-6.7687,-6.7687,-6.7687,-6.7687,-6.7687,-6.7824,-6.8385,-6.8788,-6.9302,-7.033,-7.0844,-7.0816,-7.0954,-7.1468,-7.1982,-7.2129,-7.2239,-7.2496,-7.2532,-7.2532,-7.2532,-7.2532,-7.2532,-7.2532,-7.2532,-7.2532,-7.2532,-7.2532,-7.2532,-7.2532,-7.2496,-7.2438,-7.2358,-7.227,-7.2151,-7.1964,-7.1842,-7.1749,-7.1682,-7.1775,-7.1988,-7.2018,-7.2018,-7.2174,-7.2233,-7.2329,-7.2416,-7.2504,-7.2532,-7.2532,-7.2532,-7.2532,-7.2532,-7.2532,-7.2532,-7.2532,-7.2532,-7.2532,-7.2532,-7.2532,-7.2532,-7.2496,-7.2496,-7.2496,-7.2459,-7.2459,-7.2496,-7.2496,-7.2496,-7.2496,-7.2532,-7.2532,-7.2532,-7.2532,-7.2532,-7.2532,-7.2532,-7.2532,-7.2532,-7.2532,-7.2532,-7.2532,-7.2532,-7.2532,-7.2532,-7.2532,-7.2532,-7.2532,-7.2532,-7.2532,-7.2532,-7.2532,-7.2532,-7.2532,-7.2532,-7.2532,-7.2532,-7.2532,-7.2532,-7.2532,-7.2532,-7.2532,-7.2532,-7.2532,-7.2532,-7.2532,-7.2532,-7.2532,-7.2532,-7.2532,-7.2532,-7.2532,-7.2532]},{"header":{"parameterUnit":"m.s-1","parameterCategory":1,"la1":31.0,"la2":29.5877,"lo1":-88.7671,"lo2":-86.6584,"dy":0.0162,"dx":0.0185,"nx":115,"ny":88,"refTime":"2023-03-27T18:00:00:Z","depth":0,"parameterNumber":3,"parameterNumberName":"V-component_of_WINDS"},"data":[0.0,0.0,0.0,0.0,0.0,0.0,0.0,0.0,0.0,0.0,0.0,0.0,0.0,0.0,0.0,0.0,0.0,0.0,0.0,0.0,0.0,0.0,0.0,0.0,0.0,0.0,0.0,0.0,0.0,0.0,0.0,0.0,0.0,0.0,0.0,0.0,0.0,0.0,0.0,0.0,0.0,0.0,0.0,0.0,0.0,0.0,0.0,0.0,0.0,0.0,0.0,0.0,0.0,0.0,0.0,0.0,0.0,0.0,0.0,0.0,0.0,0.0,0.0,0.0,0.0,0.0,0.0,0.0,0.0,0.0,0.0,0.0,0.0,0.0,0.0,0.0,0.0,0.0,0.0,0.0,0.0,0.0,0.0,0.0,0.0,0.0,0.0,0.0,0.0,0.0,0.0,0.0,0.0,0.0,0.0,0.0,0.0,0.0,0.0,0.0,0.0,0.0,0.0,0.0,0.0,0.0,0.0,0.0,0.0,0.0,0.0,0.0,0.0,0.0,0.0,0.0,0.0,0.0,0.0,0.0,0.0,0.0,0.0,0.0,0.0,0.0,0.0,0.0,0.0,0.0,0.0,0.0,0.0,0.0,0.0,0.0,0.0,0.0,0.0,0.0,0.0,0.0,0.0,0.0,0.0,0.0,0.0,0.0,0.0,0.0,0.0,0.0,0.0,0.0,0.0,0.0,0.0,0.0,0.0,0.0,0.0,0.0,0.0,0.0,0.0,0.0,0.0,0.0,0.0,0.0,0.0,0.0,0.0,0.0,0.0,0.0,0.0,0.0,0.0,0.0,0.0,0.0,0.0,0.0,0.0,0.0,0.0,0.0,0.0,0.0,0.0,0.0,0.0,0.0,0.0,0.0,0.0,0.0,0.0,0.0,0.0,0.0,0.0,0.0,0.0,0.0,0.0,0.0,0.0,0.0,0.0,0.0,0.0,0.0,0.0,0.0,0.0,0.0,0.0,0.0,0.0,0.0,0.0,0.0,0.0,0.0,0.0,0.0,0.0,0.0,0.0,0.0,0.0,0.0,0.0,0.0,0.0,0.0,0.0,0.0,0.0,0.0,0.0,0.0,0.0,0.0,0.0,0.0,0.0,0.0,0.0,0.0,0.0,0.0,0.0,0.0,0.0,0.0,0.0,0.0,0.0,0.0,0.0,0.0,0.0,0.0,0.0,0.0,0.0,0.0,0.0,0.0,0.0,0.0,0.0,0.0,0.0,0.0,0.0,0.0,0.0,0.0,0.0,0.0,0.0,0.0,0.0,0.0,0.0,0.0,0.0,0.0,0.0,0.0,0.0,0.0,0.0,0.0,0.0,0.0,0.0,0.0,0.0,0.0,0.0,0.0,0.0,0.0,0.0,0.0,0.0,0.0,0.0,0.0,0.0,0.0,0.0,0.0,0.0,0.0,0.0,0.0,0.0,0.0,0.0,0.0,0.0,0.0,0.0,0.0,0.0,0.0,0.0,0.0,0.0,0.0,0.0,0.0,0.0,0.0,0.0,0.0,0.0,0.0,0.0,0.0,0.0,0.0,0.0,0.0,0.0,0.0,0.0,0.0,0.0,0.0,0.0,0.0,0.0,0.0,0.0,0.0,0.0,0.0,0.0,0.0,0.0,0.0,0.0,0.0,0.0,0.0,0.0,0.0,0.0,0.0,0.0,0.0,0.0,0.0,0.0,0.0,0.0,0.0,0.0,0.0,0.0,0.0,0.0,0.0,0.0,0.0,0.0,0.0,0.0,0.0,0.0,0.0,0.0,0.0,0.0,0.0,0.0,0.0,0.0,0.0,0.0,0.0,0.0,0.0,0.0,0.0,0.0,0.0,0.0,0.0,0.0,0.0,0.0,0.0,0.0,0.0,0.0,0.0,0.0,0.0,0.0,0.0,0.0,0.0,0.0,0.0,0.0,0.0,0.0,0.0,0.0,0.0,0.0,0.0,0.0,0.0,0.0,0.0,0.0,0.0,0.0,0.0,0.0,0.0,0.0,0.0,0.0,0.0,0.0,0.0,0.0,0.0,0.0,0.0,0.0,0.0,0.0,0.0,0.0,0.0,0.0,0.0,0.0,0.0,0.0,0.0,0.0,0.0,0.0,0.0,0.0,0.0,0.0,0.0,0.0,0.0,0.0,0.0,0.0,0.0,0.0,0.0,0.0,0.0,0.0,0.0,0.0,0.0,0.0,0.0,0.0,0.0,0.0,0.0,0.0,0.0,0.0,0.0,0.0,0.0,0.0,0.0,0.0,0.0,0.0,0.0,0.0,0.0,0.0,0.0,0.0,0.0,0.0,0.0,0.0,0.0,0.0,0.0,0.0,0.0,0.0,0.0,0.0,0.0,0.0,0.0,0.0,0.0,0.0,0.0,0.0,0.0,0.0,0.0,0.0,0.0,0.0,0.0,0.0,0.0,0.0,0.0,0.0,0.0,0.0,0.0,0.0,0.0,0.0,0.0,0.0,0.0,0.0,0.0,0.0,0.0,0.0,0.0,0.0,0.0,0.0,0.0,0.0,0.0,0.0,0.0,0.0,0.0,0.0,0.0,0.0,0.0,0.0,0.0,0.0,0.0,0.0,0.0,0.0,0.0,0.0,0.0,0.0,0.0,0.0,0.0,0.0,0.0,0.0,0.0,0.0,0.0,0.0,0.0,0.0,0.0,0.0,0.0,0.0,0.0,0.0,0.0,0.0,0.0,0.0,0.0,0.0,0.0,0.0,0.0,0.0,0.0,0.0,0.0,0.0,0.0,0.0,0.0,0.0,0.0,0.0,0.0,0.0,0.0,0.0,0.0,0.0,0.0,0.0,0.0,0.0,0.0,0.0,0.0,0.0,0.0,0.0,0.0,0.0,0.0,0.0,0.0,0.0,0.0,0.0,0.0,0.0,0.0,0.0,0.0,0.0,0.0,0.0,0.0,0.0,0.0,0.0,0.0,0.0,0.0,0.0,0.0,0.0,0.0,0.0,0.0,0.0,0.0,0.0,0.0,0.0,0.0,0.0,0.0,0.0,0.0,0.0,0.0,0.0,0.0,0.0,0.0,0.0,0.0,0.0,0.0,0.0,0.0,0.0,0.0,0.0,0.0,0.0,0.0,0.0,0.0,0.0,0.0,0.0,0.0,0.0,0.0,0.0,0.0,0.0,0.0,0.0,0.0,0.0,0.0,0.0,0.0,0.0,0.0,0.0,0.0,0.0,0.0,0.0,0.0,0.0,0.0,0.0,0.0,0.0,0.0,0.0,0.0,0.0,0.0,0.0,0.0,0.0,0.0,0.0,0.0,0.0,0.0,0.0,0.0,0.0,0.0,0.0,0.0,0.0,0.0,0.0,0.0,0.0,0.0,0.0,0.0,0.0,0.0,0.0,0.0,0.0,0.0,0.0,0.0,0.0,0.0,0.0,0.0,0.0,0.0,0.0,0.0,0.0,0.0,0.0,0.0,0.0,0.0,0.0,0.0,0.0,0.0,0.0,0.0,0.0,0.0,0.0,0.0,0.0,0.0,0.0,0.0,0.0,0.0,0.0,0.0,0.0,0.0,0.0,0.0,0.0,0.0,0.0,0.0,0.0,0.0,0.0,0.0,0.0,0.0,0.0,0.0,0.0,0.0,0.0,0.0,0.0,0.0,0.0,0.0,0.0,0.0,0.0,0.0,0.0,0.0,0.0,0.0,0.0,0.0,0.0,0.0,0.0,0.0,0.0,0.0,0.0,0.0,0.0,0.0,0.0,0.0,0.0,0.0,0.0,0.0,0.0,0.0,0.0,0.0,0.0,0.0,0.0,0.0,0.0,0.0,0.0,0.0,0.0,0.0,0.0,0.0,0.0,0.0,0.0,0.0,0.0,0.0,0.0,0.0,0.0,0.0,0.0,0.0,0.0,0.0,0.0,0.0,0.0,0.0,0.0,0.0,0.0,0.0,0.0,0.0,0.0,0.0,0.0,0.0,0.0,0.0,0.0,0.0,0.0,0.0,0.0,0.0,0.0,0.0,0.0,0.0,0.0,0.0,0.0,0.0,0.0,0.0,0.0,0.0,0.0,0.0,0.0,0.0,0.0,0.0,0.0,0.0,0.0,0.0,0.0,0.0,0.0,0.0,0.0,0.0,0.0,0.0,0.0,0.0,0.0,0.0,0.0,0.0,0.0,0.0,0.0,0.0,0.0,0.0,0.0,0.0,0.0,0.0,0.0,0.0,0.0,0.0,0.0,0.0,0.0,0.0,0.0,0.0,0.0,0.0,0.0,0.0,0.0,0.0,0.0,0.0,0.0,0.0,0.226,0.0,0.0,0.0,0.0,0.0,0.0,0.0,0.0,0.0,0.0,0.0,0.0,0.0,0.0,0.0,0.0,0.0,0.0,0.0,0.0,0.0,0.0,0.0,0.0,0.0,0.0,0.0,0.0,0.0,0.0,0.0,0.0,0.0,0.0,0.0,0.0,0.0,0.0,0.0,0.0,0.0,0.0,0.0,0.0,0.0,0.0,0.0,0.0,0.0,0.0,0.0,0.0,0.0,0.0,0.0,0.0,0.0,0.0,0.0,0.0,0.0,0.0,0.0,0.0,0.0,0.0,0.0,0.0,0.0,0.0,0.0,0.0,0.0,0.0,0.0,0.0,0.0,0.0,0.0,0.0,0.0,0.0,0.0,0.0,0.0,0.0,0.0,0.0,0.0,0.0,0.0,0.0,0.0,0.0,0.0,0.0,0.0,0.0,0.0,0.0,0.0,0.0,0.0,0.0,0.0,0.0,0.0,0.0,0.0,0.0,0.2625,0.2625,0.2405,0.226,0.226,0.0,0.0,0.0,0.0,0.0,0.0,0.0,0.0,0.0,0.0,0.0,0.0,0.0,0.0,0.0,0.0,0.0,0.0,0.0,0.0,0.0,0.0,0.0,0.0,0.0,0.0,0.0,0.0,0.0,0.0,0.0,0.0,0.0,0.0,0.0,0.0,0.0,0.0,0.0,0.0,0.0,0.0,0.0,0.0,0.0,0.0,0.0,0.0,0.0,0.0,0.0,0.0,0.0,0.0,0.0,0.0,0.0,0.0,0.0,0.0,0.0,0.0,0.0,0.0,0.0,0.0,0.0,0.0,0.0,0.0,0.0,0.0,0.0,0.0,0.0,0.0,0.0,0.0,0.0,0.0,0.0,0.0,0.0,0.0,0.0,0.0,0.0,0.0,0.0,0.0,0.0,0.0,0.0,0.0,0.0,0.0,0.0,0.0,0.0,0.0,0.0,0.0,0.0,0.0,0.0,0.0,0.0,0.0,0.0,0.0,0.0,0.0,0.2771,0.2551,0.2405,0.0,0.0,0.0,0.0,0.0,0.0,0.0,0.0,0.0,0.0,0.0,0.0,0.0,0.0,0.0,0.0,0.0,0.0,0.0,0.0,0.0,0.0,0.0,0.0,0.0,0.0,0.0,0.0,0.0,0.0,0.0,0.0,0.0,0.0,0.0,0.0,0.0,0.0,0.0,0.0,0.0,0.0,0.0,0.0,0.0,0.0,0.0,0.0,0.0,0.0,0.0,0.0,0.0,0.0,0.0,0.0,0.0,0.0,0.0,0.0,0.0,0.0,0.0,0.0,0.0,0.0,0.0,0.0,0.0,0.0,0.0,0.0,0.0,0.0,0.0,0.0,0.0,0.0,0.0,0.0,0.0,0.0,0.0,0.0,0.0,0.0,0.0,0.0,0.0,0.0,0.0,0.0,0.0,0.0,0.0,0.0,0.0,0.0,0.0,0.0,0.0,0.0,0.0,0.0,0.0,0.0,0.0,0.0,0.0,0.0,0.3789,0.3427,0.3427,0.0,0.2844,0.0,0.0,0.0,0.0,0.0,0.0,0.0,0.0,0.0,0.0,0.0,0.0,0.0,0.0,0.0,0.0,0.0,0.0,0.0,0.0,0.0,0.0,0.0,0.0,0.0,0.0,0.0,0.0,0.0,0.0,0.0,0.0,0.0,0.0,0.0,0.0,0.0,0.0,0.0,0.0,0.0,0.0,0.0,0.0,0.0,0.0,0.0,0.0,0.0,0.0,0.0,0.0,0.0,0.0,0.0,0.0,0.0,0.0,0.0,0.0,0.0,0.0,0.0,0.0,0.0,0.0,0.0,0.0,0.0,0.0,0.0,0.0,0.0,0.0,0.0,0.0,0.0,0.0,0.0,0.0,0.0,0.0,0.0,0.0,0.0,0.0,0.0,0.0,0.0,0.0,0.0,0.0,0.0,0.0,0.0,0.0,0.0,0.0,0.0,0.0,0.0,0.0,0.0,0.0,0.0,0.0,0.0,0.0,0.0,0.0,0.466,0.4517,0.408,0.3644,0.0,0.0,0.0,0.0,0.0,0.0,0.0,0.0,0.0,0.0,0.0,0.0,0.0,0.0,0.0,0.0,0.0,0.0,0.0,0.0,0.0,0.0,0.0,0.0,0.0,0.0,0.0,0.0,0.0,0.0,0.0,0.0,0.0,0.0,0.0,0.0,0.0,0.0,0.0,0.0,0.0,0.0,0.0,0.0,0.0,0.0,0.0,0.0,0.0,0.0,0.0,0.0,0.0,0.0,0.0,0.0,0.0,0.0,0.0,0.0,0.0,0.0,0.0,0.0,0.0,0.0,0.0,0.0,0.0,0.0,0.0,0.0,0.0,0.0,0.0,0.0,0.0,0.0,0.0,0.0,0.0,0.0,0.0,0.0,0.0,0.0,0.0,0.0,0.0,0.0,0.0,0.0,0.0,0.0,0.0,0.0,0.0,0.0,0.0,0.0,0.0,0.0,0.0,0.0,0.0,0.0,0.0,0.0,0.0,0.0,0.5825,0.5607,0.5386,0.4735,0.4226,0.3864,0.0,0.0,0.0,0.0,0.0,0.0,0.0,0.0,0.0,0.0,0.0,0.0,0.0,0.0,0.0,0.0,0.0,0.0,0.0,0.0,0.0,0.0,0.0,0.0,0.0,0.0,0.0,0.0,0.0,0.0,0.0,0.0,0.0,0.0,0.0,0.0,0.0,0.0,0.0,0.0,0.0,0.0,0.0,0.0,0.0,0.0,0.0,0.0,0.0,0.0,0.0,0.0,0.0,0.0,0.0,0.0,0.0,0.0,0.0,0.0,0.0,0.0,0.0,0.0,0.0,0.0,0.0,0.0,0.0,0.0,0.0,0.0,0.0,0.0,0.0,0.0,0.0,0.0,0.0,0.0,0.0,0.0,0.0,0.0,0.0,0.0,0.0,0.0,0.0,0.0,0.0,0.0,0.0,0.0,0.0,0.0,0.0,0.0,0.0,0.0,0.0,0.0,0.0,0.0,0.0,0.0,0.0,0.0,0.699,0.6918,0.6551,0.5825,0.5386,0.5026,0.0,0.0,0.0,0.0,0.0,0.0,0.0,0.0,0.0,0.0,0.0,0.0,0.0,0.0,0.0,0.0,0.0,0.0,0.0,0.0,0.0,0.0,0.0,0.0,0.0,0.0,0.0,0.0,0.0,0.0,0.0,0.0,0.0,0.0,0.0,0.0,0.0,0.0,0.0,0.0,0.0,0.0,0.0,0.0,0.0,0.0,0.0,0.0,0.0,0.0,0.0,0.0,0.0,0.0,0.0,0.0,0.0,0.0,0.0,0.0,0.0,0.0,0.0,0.0,0.0,0.0,0.0,0.0,0.0,0.0,0.0,0.0,0.0,0.0,0.0,0.0,0.0,0.0,0.0,0.0,0.0,0.0,0.0,0.0,0.0,0.0,0.0,0.0,0.0,0.0,0.0,0.0,0.0,0.0,0.0,0.0,0.0,0.0,0.0,0.0,0.0,0.0,0.0,0.0,0.0,0.0,0.0,0.0,0.0,0.7715,0.7715,0.7353,0.6624,0.6406,0.6043,0.0,0.0,0.0,0.0,0.0,0.0,0.0,0.0,0.0,0.0,0.0,0.0,0.0,0.0,0.0,0.0,0.0,0.0,0.0,0.0,0.0,0.0,0.0,0.0,0.0,0.0,0.0,0.0,0.0,0.0,0.0,0.0,0.0,0.0,0.0,0.0,0.0,0.0,0.0,0.0,0.0,0.0,0.0,0.0,0.0,0.0,0.0,0.0,0.0,0.0,0.0,0.0,0.0,0.0,0.0,0.0,0.0,0.0,0.0,0.0,0.0,0.0,0.0,0.0,0.0,0.0,0.0,0.0,0.0,0.0,0.0,0.0,0.0,0.0,0.0,0.0,0.0,0.0,0.0,0.0,0.0,0.0,0.0,0.0,0.0,0.0,0.0,0.0,0.0,0.0,0.0,0.0,0.0,0.0,0.0,0.0,0.0,0.0,0.0,0.0,0.0,0.0,0.0,0.0,0.0,0.0,0.0,0.0,0.0,0.8567,0.0,0.8057,0.7469,0.7396,0.7015,0.0,0.0,0.0,0.0,0.0,0.0,0.0,0.0,0.0,0.0,0.0,0.0,0.0,0.0,0.0,0.0,0.0,0.0,0.0,0.0,0.0,0.0,0.0,0.0,0.0,0.0,0.0,0.0,0.0,0.0,0.0,0.0,0.0,0.0,0.0,0.0,0.0,0.0,0.0,0.0,0.0,0.0,0.0,0.0,0.0,0.0,0.0,0.0,0.0,0.0,0.0,0.0,0.0,0.0,0.0,0.0,0.0,0.0,0.0,0.0,0.0,0.0,0.0,0.0,0.0,0.0,0.0,0.0,0.0,0.0,0.0,0.0,0.0,0.0,0.0,0.0,0.0,0.0,0.0,0.0,0.0,0.0,0.0,0.0,0.0,0.0,0.0,0.0,0.0,0.0,0.0,0.0,0.0,0.0,0.0,0.0,0.0,0.0,0.0,0.0,0.0,0.0,0.0,0.0,0.0,0.0,0.0,0.0,1.016,0.9481,0.9118,0.875,0.8376,0.8298,0.7883,0.0,0.0,0.0,0.0,0.0,0.0,0.0,0.0,0.0,0.0,0.0,0.0,0.0,0.0,0.0,0.0,0.0,0.0,0.0,0.0,0.0,0.0,0.0,0.0,0.0,0.0,0.0,0.0,0.0,0.0,0.0,0.0,0.0,0.0,0.0,0.0,0.0,0.0,0.0,0.0,0.0,0.0,0.0,0.0,0.0,0.0,0.0,0.0,0.0,0.0,0.0,0.0,0.0,0.0,0.0,0.0,0.0,0.0,0.0,0.0,0.0,0.0,0.0,0.0,0.0,0.0,0.0,0.0,0.0,0.0,0.0,0.0,0.0,0.0,0.0,0.0,0.0,0.0,0.0,0.0,0.0,0.0,0.0,0.0,0.0,0.0,0.0,0.0,0.0,0.0,0.0,0.0,0.0,0.0,0.0,0.0,0.0,0.0,0.0,0.0,0.0,0.0,0.0,0.0,0.0,0.0,0.0,0.0,0.0,1.0369,1.031,1.0053,0.967,0.9303,0.8877,0.0,0.0,0.0,0.0,0.0,0.0,0.0,0.0,0.0,0.0,0.0,0.0,0.0,0.0,0.0,0.0,0.0,0.0,0.0,0.0,0.0,0.0,0.0,0.0,0.0,0.0,0.0,0.0,0.0,0.0,0.0,0.0,0.0,0.0,0.0,0.0,0.0,0.0,0.0,0.0,0.0,0.0,0.0,0.0,0.0,0.0,0.0,0.0,0.0,0.0,0.0,0.0,0.0,0.0,0.0,0.0,0.0,0.0,0.0,0.0,0.0,0.0,0.0,0.0,0.0,0.0,0.0,0.0,0.0,0.0,0.0,0.0,0.0,0.0,0.0,0.0,0.0,0.0,0.0,0.0,0.0,0.0,0.0,0.0,0.0,0.0,0.0,0.0,0.0,0.0,0.0,0.0,0.0,0.0,0.0,0.0,0.0,0.0,0.0,0.0,0.0,0.0,0.0,0.0,0.0,0.0,0.0,0.0,0.0,1.126,1.117,1.1013,1.0631,1.0214,0.9826,0.9408,0.0,0.0,0.0,0.0,0.0,0.0,0.0,0.0,0.0,0.0,0.0,0.0,0.0,0.0,0.0,0.0,0.0,0.0,0.0,0.0,0.0,0.0,0.0,0.0,0.0,0.0,0.0,0.0,0.0,0.0,0.0,0.0,0.0,0.0,0.0,0.0,0.0,0.0,0.0,0.0,0.0,0.0,0.0,0.0,0.0,0.0,0.0,0.0,0.0,0.0,0.0,0.0,0.0,0.0,0.0,0.0,0.0,0.0,0.0,0.0,0.0,0.0,0.0,0.0,0.0,0.0,0.0,0.0,0.0,0.0,0.0,0.0,0.0,0.0,0.0,0.0,0.0,0.0,0.0,0.0,0.0,0.0,0.0,0.0,0.0,0.0,0.0,0.0,0.0,0.0,0.0,0.0,0.0,0.0,0.0,0.0,0.0,0.0,0.0,0.0,0.0,0.0,0.0,0.0,0.0,0.0,0.0,0.0,1.206,1.1838,1.1536,1.1155,1.1013,1.0729,0.0,0.0,0.0,0.0,0.0,0.0,0.0,0.0,0.0,0.0,0.0,0.0,0.0,0.0,0.0,0.0,0.0,0.0,0.0,0.0,0.0,0.0,0.0,0.0,0.0,0.0,0.0,0.0,0.0,0.0,0.0,0.0,0.0,0.0,0.0,0.0,0.0,0.0,0.0,0.0,0.0,0.0,0.0,0.0,0.0,0.0,0.0,0.0,0.0,0.0,0.0,0.0,0.0,0.0,0.0,0.0,0.0,0.0,0.0,0.0,0.0,0.0,0.0,0.0,0.0,0.0,0.0,0.0,0.0,0.0,0.0,0.0,0.0,0.0,0.0,0.0,0.0,0.0,0.0,0.0,0.0,0.0,0.0,0.0,0.0,0.0,0.0,0.0,0.0,0.0,0.0,0.0,0.0,0.0,0.0,0.0,0.0,0.0,0.0,0.0,0.0,0.0,0.0,0.0,0.0,0.0,0.0,0.0,0.0,1.2074,1.2235,1.2216,1.2132,1.1592,1.1301,0.0,0.0,0.0,0.0,0.0,0.0,0.0,0.0,0.0,0.0,0.0,0.0,0.0,0.0,0.0,0.0,0.0,0.0,0.0,0.0,0.0,0.0,0.0,0.0,0.0,0.0,0.0,0.0,0.0,0.0,0.0,0.0,0.0,0.0,0.0,0.0,0.0,0.0,0.0,0.0,0.0,0.0,0.0,0.0,0.0,0.0,0.0,0.0,0.0,0.0,0.0,0.0,0.0,0.0,0.0,0.0,0.0,0.0,0.0,0.0,0.0,0.0,0.0,0.0,0.0,0.0,0.0,0.0,0.0,0.0,0.0,0.0,0.0,0.0,0.0,0.0,0.0,0.0,0.0,0.0,0.0,0.0,0.0,0.0,0.0,0.0,0.0,0.0,0.0,0.0,0.0,0.0,0.0,0.0,0.0,0.0,0.0,0.0,0.0,0.0,0.0,0.0,0.0,0.0,0.0,0.0,0.0,0.0,1.206,1.2142,1.2352,1.2501,1.2501,1.199,1.1762,0.0,0.0,0.0,0.0,0.0,0.0,0.0,0.0,0.0,0.0,0.0,0.0,0.0,0.0,0.0,0.0,0.0,0.0,0.0,0.0,0.0,0.0,0.0,0.0,0.0,0.0,0.0,0.0,0.0,0.0,0.0,0.0,0.0,0.0,0.0,0.0,0.0,0.0,0.0,0.0,0.0,0.0,0.0,0.0,0.0,0.0,0.0,0.0,0.0,0.0,0.0,0.0,0.0,0.0,0.0,0.0,0.0,0.0,0.0,0.0,0.0,0.0,0.0,0.0,0.0,0.0,0.0,0.0,0.0,0.0,0.0,0.0,0.0,0.0,0.0,0.0,0.0,0.0,0.0,0.0,0.0,0.0,0.0,0.0,0.0,0.0,0.0,0.0,0.0,0.0,0.0,0.0,0.0,0.0,0.0,0.0,0.0,0.0,0.0,0.0,0.0,0.0,0.0,0.0,0.0,0.0,0.0,0.0,1.221,1.221,1.2505,1.2656,1.2649,1.2292,1.206,0.0,0.0,0.0,0.0,0.0,0.0,0.0,0.0,0.0,0.0,0.0,0.0,0.0,0.0,0.0,0.0,0.0,0.0,0.0,0.0,0.0,0.0,0.0,0.0,0.0,0.0,0.0,0.0,0.0,0.0,0.0,0.0,0.0,0.0,0.0,0.0,0.0,0.0,0.0,0.0,0.0,0.0,0.0,0.0,0.0,0.0,0.0,0.0,0.0,0.0,0.0,0.0,0.0,0.0,0.0,0.0,0.0,0.0,0.0,0.0,0.0,0.0,0.0,0.0,0.0,0.0,0.0,0.0,0.0,0.0,0.0,0.0,0.0,0.0,0.0,0.0,0.0,0.0,0.0,0.0,0.0,0.0,0.0,0.0,0.0,0.0,0.0,0.0,0.0,0.0,0.0,0.0,0.0,0.0,0.0,0.0,0.0,0.0,0.0,0.0,0.0,0.0,0.0,0.0,0.0,0.0,0.0,0.0,1.2731,1.2962,1.3268,1.3436,1.3428,1.2594,1.206,0.0,0.0,0.0,0.0,0.0,0.0,0.0,0.0,0.0,0.0,0.0,0.0,0.0,0.0,0.0,0.0,0.0,0.0,0.0,0.0,0.0,0.0,0.0,0.0,0.0,0.0,0.0,0.0,0.0,0.0,0.0,0.0,0.0,0.0,0.0,0.0,0.0,0.0,0.0,0.0,0.0,0.0,0.0,0.0,0.0,0.0,0.0,0.0,1.188,0.0,0.0,0.0,0.0,0.0,0.0,0.0,0.0,0.0,0.0,0.0,0.0,0.0,0.0,0.0,0.0,0.0,0.0,0.0,0.0,0.0,0.0,0.0,0.0,0.0,0.0,0.0,0.0,0.0,0.0,0.0,0.0,0.0,0.0,0.0,0.0,0.0,0.0,0.0,0.0,0.0,0.0,0.0,0.0,0.0,0.0,0.0,0.0,0.0,0.0,0.0,0.0,0.0,0.0,0.0,0.0,0.0,0.0,0.0,1.3506,1.3889,1.4144,1.4199,1.403,1.3341,1.2731,0.0,0.0,0.0,0.0,0.0,0.0,0.0,0.0,0.0,0.0,0.0,0.0,0.0,0.0,0.0,0.0,0.0,0.0,0.0,0.0,0.0,0.0,0.0,0.0,0.0,0.0,0.0,0.0,0.0,0.0,0.0,0.0,0.0,0.0,0.0,0.0,0.0,0.0,0.0,0.0,0.0,0.0,0.0,0.0,0.0,0.0,0.0,0.0,0.0,0.0,0.0,0.0,0.0,0.0,0.0,0.0,0.0,0.0,0.0,0.0,0.0,0.0,0.0,0.0,0.0,0.0,0.0,0.0,0.0,0.0,0.0,0.0,0.0,0.0,0.0,0.0,0.0,0.0,0.0,0.0,0.0,0.0,0.0,0.0,0.0,0.0,0.0,0.0,0.0,0.0,0.0,0.0,0.0,0.0,0.0,0.0,0.0,0.0,0.0,0.0,0.0,0.0,0.0,0.0,0.0,0.0,0.0,1.4048,1.4439,1.506,1.5176,1.5113,1.4806,1.4311,1.3765,1.3096,0.0,0.0,0.0,0.0,0.0,0.0,0.0,0.0,0.0,0.0,0.0,0.0,0.0,0.0,0.0,0.0,0.0,0.0,0.0,0.0,0.0,0.0,0.0,0.0,0.0,0.0,0.0,0.0,0.0,0.0,0.0,0.0,0.0,0.0,0.0,0.0,0.0,0.0,1.1774,1.2612,0.0,0.0,0.0,0.0,0.0,0.0,0.0,0.0,1.3994,0.0,0.0,0.0,0.0,0.0,0.0,0.0,0.0,0.0,0.0,0.0,0.0,0.0,0.0,0.0,0.0,0.0,0.0,0.0,0.0,0.0,0.0,0.0,0.0,0.0,0.0,0.0,0.0,0.0,0.0,0.0,0.0,0.0,0.0,0.0,0.0,0.0,0.0,0.0,0.0,0.0,0.0,0.0,0.0,0.0,0.0,0.0,0.0,0.0,0.0,0.0,0.0,0.0,0.0,0.0,0.0,1.46,1.5143,1.5851,1.6646,1.6545,1.6501,1.6406,1.5368,1.4736,1.4555,0.0,0.0,0.0,0.0,0.0,0.0,0.0,0.0,0.0,0.0,0.0,0.0,0.0,0.0,0.0,0.0,0.0,0.0,0.0,0.0,0.0,0.0,0.0,0.0,0.0,0.0,0.0,0.0,0.0,0.0,0.0,0.0,0.0,0.0,0.0,0.0,0.0,0.0,0.0,1.3888,1.4336,0.0,0.0,0.0,0.0,0.0,0.0,0.0,0.0,1.4965,0.0,0.0,0.0,0.0,0.0,0.0,0.0,0.0,0.0,0.0,0.0,0.0,0.0,0.0,0.0,0.0,0.0,0.0,0.0,0.0,0.0,0.0,0.0,0.0,0.0,0.0,0.0,0.0,0.0,0.0,0.0,0.0,0.0,0.0,0.0,0.0,0.0,0.0,0.0,0.0,0.0,0.0,0.0,0.0,0.0,0.0,0.0,0.0,0.0,0.0,0.0,0.0,0.0,0.0,0.0,1.6095,1.6663,1.7379,1.8451,1.8194,1.7949,1.7702,1.6787,1.6076,0.0,0.0,0.0,0.0,0.0,0.0,0.0,0.0,0.0,0.0,0.0,0.0,0.0,0.0,0.0,0.0,0.0,0.0,0.0,0.0,0.0,0.0,0.0,0.0,0.0,0.0,0.0,0.0,0.0,0.0,0.0,0.0,0.0,0.0,0.0,0.0,0.0,0.0,0.0,0.0,1.5036,1.558,1.5371,0.0,0.0,0.0,0.0,0.0,0.0,1.6103,1.5747,0.0,0.0,0.0,0.0,0.0,0.0,0.0,0.0,0.0,0.0,0.0,0.0,0.0,0.0,0.0,0.0,0.0,0.0,0.0,0.0,0.0,0.0,0.0,0.0,0.0,0.0,0.0,0.0,0.0,0.0,0.0,0.0,0.0,0.0,0.0,0.0,0.0,0.0,0.0,0.0,0.0,0.0,0.0,0.0,0.0,0.0,0.0,0.0,0.0,0.0,0.0,0.0,0.0,0.0,0.0,1.757,1.8112,1.8917,1.9973,1.9693,1.9304,1.8916,1.8198,1.7418,0.0,0.0,0.0,0.0,0.0,0.0,0.0,0.0,0.0,0.0,0.0,0.0,0.0,0.0,0.0,0.0,0.0,0.0,0.0,0.0,0.0,0.0,0.0,0.0,0.0,0.0,0.0,0.0,0.0,0.0,0.0,0.0,0.0,0.0,0.0,0.0,0.0,0.0,0.0,0.0,0.0,1.6777,1.6827,1.7174,0.0,0.0,0.0,0.0,1.7559,1.7097,0.0,0.0,0.0,0.0,0.0,0.0,0.0,0.0,0.0,0.0,0.0,0.0,0.0,0.0,0.0,0.0,0.0,0.0,0.0,0.0,0.0,0.0,0.0,0.0,0.0,0.0,0.0,0.0,0.0,0.0,0.0,0.0,0.0,0.0,0.0,0.0,0.0,0.0,0.0,0.0,0.0,0.0,0.0,0.0,0.0,0.0,0.0,0.0,0.0,0.0,0.0,0.0,0.0,0.0,0.0,0.0,1.8446,1.9133,1.9959,2.0887,2.0522,2.021,2.0199,1.937,1.8653,0.0,0.0,0.0,0.0,0.0,0.0,0.0,0.0,0.0,0.0,0.0,0.0,0.0,0.0,0.0,0.0,0.0,0.0,0.0,0.0,0.0,0.0,0.0,0.0,0.0,0.0,0.0,0.0,0.0,0.0,0.0,0.0,0.0,0.0,0.0,0.0,0.0,0.0,0.0,0.0,0.0,1.7935,1.8138,1.8519,1.874,0.0,0.0,1.874,1.8773,1.8433,0.0,0.0,0.0,0.0,0.0,0.0,0.0,0.0,0.0,0.0,0.0,0.0,0.0,0.0,0.0,0.0,0.0,0.0,0.0,0.0,0.0,0.0,0.0,0.0,0.0,0.0,0.0,0.0,0.0,0.0,0.0,0.0,0.0,0.0,0.0,0.0,0.0,0.0,0.0,0.0,0.0,0.0,0.0,0.0,0.0,0.0,0.0,0.0,0.0,0.0,0.0,0.0,0.0,0.0,0.0,1.8482,1.9899,2.0656,2.1485,2.2309,2.1948,2.1637,2.1412,2.0546,1.9737,0.0,0.0,0.0,0.0,0.0,0.0,0.0,0.0,0.0,0.0,0.0,0.0,0.0,0.0,0.0,0.0,0.0,0.0,0.0,0.0,0.0,0.0,0.0,0.0,0.0,0.0,0.0,0.0,0.0,0.0,0.0,0.0,0.0,0.0,0.0,0.0,0.0,0.0,0.0,0.0,0.0,0.0,1.9275,1.9552,0.0,0.0,0.0,1.9622,1.9622,0.0,0.0,0.0,0.0,0.0,0.0,0.0,0.0,0.0,0.0,0.0,0.0,0.0,0.0,0.0,0.0,0.0,0.0,0.0,0.0,0.0,0.0,0.0,0.0,0.0,0.0,0.0,0.0,0.0,0.0,0.0,0.0,0.0,0.0,0.0,0.0,0.0,0.0,0.0,0.0,0.0,0.0,0.0,0.0,0.0,0.0,0.0,0.0,0.0,0.0,0.0,0.0,0.0,0.0,0.0,0.0,0.0,2.1138,2.181,2.2576,2.3339,2.3079,2.2769,2.2533,2.1655,0.0,0.0,0.0,0.0,0.0,0.0,0.0,0.0,0.0,0.0,0.0,0.0,0.0,0.0,0.0,0.0,0.0,0.0,0.0,0.0,0.0,0.0,0.0,0.0,0.0,0.0,0.0,1.3892,0.0,0.0,0.0,0.0,0.0,0.0,0.0,0.0,0.0,0.0,0.0,0.0,0.0,0.0,1.9455,2.0386,2.0527,2.0596,0.0,0.0,2.0527,2.0527,2.0237,1.9946,0.0,0.0,0.0,0.0,0.0,0.0,0.0,0.0,0.0,0.0,0.0,0.0,0.0,0.0,0.0,0.0,0.0,0.0,0.0,0.0,0.0,0.0,0.0,0.0,0.0,0.0,0.0,0.0,0.0,0.0,0.0,0.0,0.0,0.0,0.0,0.0,0.0,0.0,0.0,0.0,0.0,0.0,0.0,0.0,0.0,0.0,0.0,0.0,0.0,0.0,0.0,0.0,0.0,0.0,2.0602,2.1845,2.2325,2.2806,2.3413,2.3364,2.3377,2.3277,2.2456,2.1687,0.0,0.0,0.0,0.0,0.0,0.0,0.0,0.0,0.0,0.0,0.0,0.0,0.0,0.0,0.0,0.0,0.0,0.0,0.0,0.0,0.0,0.0,0.0,0.0,0.0,0.0,0.0,0.0,0.0,0.0,0.0,0.0,0.0,0.0,0.0,0.0,0.0,0.0,0.0,0.0,0.0,2.0252,2.1546,2.1703,2.1703,0.0,2.1703,2.1691,2.1703,2.1346,2.0983,2.0792,0.0,0.0,0.0,0.0,0.0,0.0,0.0,0.0,0.0,0.0,0.0,0.0,0.0,0.0,0.0,0.0,0.0,0.0,0.0,0.0,0.0,0.0,0.0,0.0,0.0,0.0,0.0,0.0,0.0,0.0,0.0,0.0,0.0,0.0,0.0,0.0,0.0,0.0,0.0,0.0,0.0,0.0,0.0,0.0,0.0,0.0,0.0,0.0,0.0,0.0,0.0,0.0,0.0,2.141,2.2742,2.3112,2.3615,2.4166,2.4105,2.4044,2.3822,2.3289,2.2582,0.0,0.0,0.0,0.0,0.0,0.0,0.0,0.0,0.0,0.0,0.0,0.0,0.0,0.0,0.0,0.0,0.0,0.0,0.0,0.0,0.0,0.0,0.0,0.0,0.0,0.0,0.0,0.0,1.7201,1.7807,1.8213,0.0,0.0,0.0,0.0,0.0,0.0,0.0,0.0,0.0,0.0,2.1124,2.1984,2.2104,0.0,0.0,2.2242,2.2104,2.2104,2.1829,2.1527,2.1495,2.0835,0.0,0.0,0.0,0.0,0.0,0.0,0.0,0.0,0.0,0.0,0.0,0.0,0.0,0.0,0.0,0.0,0.0,0.0,0.0,0.0,0.0,0.0,0.0,0.0,0.0,0.0,0.0,0.0,0.0,0.0,0.0,0.0,0.0,0.0,0.0,0.0,0.0,0.0,0.0,0.0,0.0,0.0,0.0,0.0,0.0,0.0,0.0,0.0,0.0,0.0,0.0,0.0,2.2071,2.3195,2.3585,2.4008,2.4502,2.4596,2.4488,2.4179,2.3679,2.3104,0.0,0.0,0.0,0.0,0.0,0.0,0.0,0.0,0.0,0.0,0.0,0.0,0.0,0.0,0.0,0.0,0.0,0.0,0.0,0.0,0.0,0.0,0.0,0.0,0.0,0.0,0.0,0.0,1.8864,1.9393,1.9516,0.0,0.0,0.0,0.0,0.0,0.0,0.0,0.0,0.0,0.0,2.1781,2.2408,2.2448,2.2585,2.2859,2.2654,2.2448,2.2516,2.2242,2.2104,2.2104,0.0,0.0,0.0,0.0,0.0,0.0,0.0,0.0,0.0,0.0,0.0,0.0,0.0,0.0,0.0,0.0,0.0,0.0,0.0,0.0,0.0,0.0,0.0,0.0,0.0,0.0,0.0,1.9101,0.0,0.0,1.8685,0.0,0.0,0.0,0.0,0.0,0.0,0.0,0.0,0.0,0.0,0.0,0.0,0.0,0.0,0.0,0.0,0.0,0.0,0.0,0.0,0.0,0.0,2.2605,2.327,2.3621,2.3915,2.4209,2.4489,2.4549,2.4536,2.3714,2.3197,2.3112,0.0,0.0,0.0,0.0,0.0,0.0,0.0,0.0,0.0,0.0,0.0,0.0,0.0,0.0,0.0,0.0,0.0,0.0,0.0,0.0,0.0,0.0,0.0,0.0,0.0,0.0,1.956,2.0093,2.0191,0.0,0.0,0.0,0.0,0.0,0.0,0.0,0.0,0.0,2.1735,2.188,2.2133,2.2751,2.2859,2.2859,2.2859,2.2859,2.2859,2.2859,2.2859,2.2859,0.0,0.0,0.0,0.0,0.0,0.0,0.0,0.0,0.0,0.0,0.0,0.0,0.0,0.0,0.0,0.0,0.0,0.0,0.0,0.0,0.0,0.0,0.0,0.0,0.0,0.0,0.0,1.9932,1.9932,0.0,0.0,0.0,0.0,0.0,0.0,0.0,0.0,0.0,0.0,0.0,2.0997,2.104,0.0,0.0,0.0,0.0,0.0,0.0,0.0,0.0,0.0,0.0,0.0,0.0,2.2674,2.3244,2.342,2.3621,2.3915,2.4008,2.4062,2.4062,2.3731,2.339,2.2968,0.0,0.0,0.0,0.0,0.0,0.0,0.0,0.0,0.0,0.0,0.0,0.0,0.0,0.0,0.0,0.0,0.0,0.0,0.0,0.0,0.0,0.0,0.0,0.0,0.0,2.0135,0.0,0.0,0.0,0.0,0.0,0.0,0.0,0.0,0.0,0.0,0.0,2.1605,2.2123,2.2457,2.2616,2.2846,2.2859,2.2859,0.0,0.0,0.0,0.0,0.0,0.0,0.0,0.0,0.0,0.0,0.0,0.0,0.0,0.0,2.0915,2.0588,2.0522,2.0588,2.0666,0.0,0.0,0.0,0.0,0.0,0.0,0.0,0.0,0.0,0.0,0.0,0.0,0.0,0.0,2.1009,2.0997,2.0915,0.0,0.0,0.0,0.0,0.0,0.0,0.0,0.0,2.1488,2.1636,2.1636,2.1763,2.1704,0.0,2.157,2.1205,0.0,0.0,0.0,0.0,0.0,0.0,0.0,0.0,2.2759,2.3166,2.3273,2.342,2.3607,2.3714,2.3781,2.3768,2.3674,2.3403,2.2875,2.2622,2.23,0.0,0.0,0.0,0.0,0.0,0.0,0.0,0.0,0.0,0.0,0.0,0.0,0.0,0.0,0.0,0.0,0.0,0.0,0.0,0.0,0.0,0.0,0.0,2.1213,0.0,0.0,0.0,0.0,0.0,0.0,0.0,0.0,0.0,2.1371,2.1793,2.2189,2.2565,2.2807,2.2859,2.2859,0.0,0.0,0.0,0.0,0.0,0.0,0.0,2.2859,2.2859,2.2859,2.2861,2.2605,2.2418,2.2298,2.2285,0.0,0.0,2.1436,2.133,2.133,2.133,2.133,2.1397,2.1661,2.1661,2.1753,0.0,0.0,0.0,0.0,0.0,0.0,0.0,0.0,2.2259,2.2247,0.0,2.1993,0.0,0.0,0.0,0.0,2.186,2.1885,0.0,0.0,2.2259,2.2346,2.2259,2.2321,2.22,2.197,2.23,2.2234,2.1616,2.1096,0.0,0.0,0.0,0.0,0.0,0.0,2.2859,2.2941,2.3153,2.3313,2.3327,2.3594,2.3741,2.3728,2.346,2.318,2.2886,2.2873,2.2722,2.231,2.2036,0.0,0.0,0.0,0.0,0.0,0.0,0.0,0.0,0.0,0.0,0.0,0.0,0.0,0.0,0.0,0.0,0.0,0.0,0.0,0.0,2.1949,0.0,0.0,0.0,0.0,0.0,0.0,0.0,0.0,0.0,0.0,2.2004,2.2258,2.2539,2.2819,0.0,0.0,0.0,0.0,2.2859,2.2859,2.2859,2.2859,2.2859,2.2859,2.2859,2.2859,0.0,0.0,2.2859,2.2859,2.2846,2.2859,2.2832,2.2753,2.2138,2.2044,2.2044,2.2044,2.1978,2.2017,2.2017,2.2071,2.2138,2.3345,0.0,0.0,0.0,0.0,2.2697,2.2576,2.2346,2.2346,2.2346,2.2334,2.2186,0.0,0.0,0.0,0.0,0.0,0.0,2.2186,2.2334,2.2346,2.2346,2.2334,2.2558,2.267,2.2584,2.2766,2.2781,2.2698,2.2396,2.2181,2.2056,0.0,0.0,0.0,0.0,2.2859,2.2873,2.2953,2.2993,2.2993,2.3142,2.3196,2.3196,2.3046,2.2953,2.2859,2.2859,2.2859,2.2722,2.2443,0.0,0.0,0.0,0.0,0.0,0.0,0.0,0.0,0.0,0.0,0.0,0.0,0.0,0.0,0.0,0.0,0.0,0.0,0.0,2.2056,2.2481,2.2576,0.0,0.0,0.0,0.0,0.0,0.0,0.0,0.0,0.0,2.2298,2.2552,2.2766,0.0,0.0,2.2859,2.2859,2.2859,2.2859,2.2859,2.2859,0.0,2.2859,2.2859,2.2859,2.2859,2.2859,2.2859,2.2859,2.2859,2.2859,2.2859,2.2859,2.2874,2.2659,2.2686,2.2605,2.2686,2.2673,2.2605,2.2673,2.2673,2.27,2.3502,2.32,2.3212,2.2995,2.2733,2.2733,2.2576,2.2346,2.2346,2.2346,2.2346,2.2346,2.2346,2.2321,2.2164,0.0,0.0,0.0,2.2346,2.2334,2.2483,2.2558,2.2558,2.293,2.3079,2.3067,2.3159,2.3254,2.3184,2.3038,2.2806,2.2529,0.0,0.0,2.2859,2.2859,2.2859,2.2859,2.2859,2.2859,2.2859,2.2859,2.2859,2.2859,2.2859,2.2859,2.2859,2.2859,2.2859,2.2859,2.2686,2.2405,0.0,0.0,0.0,0.0,0.0,0.0,0.0,0.0,0.0,0.0,0.0,2.1267,2.154,0.0,0.0,0.0,2.1936,2.2203,2.2579,2.2752,0.0,0.0,0.0,0.0,0.0,0.0,0.0,2.2124,2.2311,2.2458,2.2579,2.2752,2.2859,2.2859,2.2859,2.2859,2.2859,0.0,2.2859,2.2859,2.2859,2.2859,2.2859,2.2859,2.2859,2.2859,2.2859,2.2859,2.2859,2.2859,2.2859,2.2859,2.2859,2.2859,2.2859,2.2859,2.2859,2.2859,2.2859,2.2859,2.2859,2.2859,2.2859,2.3339,2.3339,2.3315,2.3104,2.2733,2.2733,2.2576,2.2346,2.2346,2.2346,2.2346,2.2346,2.2346,2.2346,2.2346,0.0,2.2334,2.2334,2.2334,2.2334,2.2781,2.293,2.293,2.3302,2.3426,2.34,2.3585,2.353,2.3229,2.3236,2.3166,2.2941,2.2859,2.2859,2.2859,2.2859,2.2859,2.2859,2.2859,2.2859,2.2859,2.2859,2.2859,2.2859,2.2859,2.2859,2.2859,2.2859,2.2859,2.2859,2.2859,2.2605,2.2071,0.0,0.0,0.0,0.0,0.0,0.0,0.0,0.0,0.0,0.0,0.0,0.0,0.0,0.0,0.0,2.2859,0.0,2.2859,2.2859,0.0,0.0,0.0,2.2325,2.2084,2.2031,2.2138,2.2418,0.0,0.0,2.2832,2.2859,2.2859,2.2859,2.2859,2.2859,2.2859,2.2859,2.2859,2.2859,2.2859,2.2859,2.2859,2.2859,2.2859,2.2859,2.2859,2.2859,2.2859,2.2859,2.2859,2.2859,2.2859,2.2859,2.2859,2.2859,2.2859,2.2859,2.2859,2.2859,2.2859,2.2859,2.2859,2.314,2.3128,2.2923,2.2766,2.2733,2.2733,2.2576,2.2346,2.2346,2.2346,2.2346,2.2346,2.2346,2.2346,2.2346,2.2346,2.2334,2.2632,2.2781,2.2781,2.3154,2.3302,2.329,2.3661,2.378,2.3572,2.3872,2.3785,2.3306,2.3297,2.3166,2.2873,2.2859,2.2859,2.2859,2.2859,2.2859,2.2859,2.2859,2.2859,2.2859,2.2859,2.2859,2.2859,2.2859,2.2859,2.2859,2.2859,2.2859,2.2859,2.2859,2.2699,2.2338,2.2098,0.0,0.0,0.0,0.0,0.0,0.0,0.0,0.0,0.0,2.2205,2.2712,0.0,2.2847,0.0,2.2859,2.2859,2.2859,2.2859,0.0,0.0,2.2552,2.2485,2.2632,2.2458,2.2432,2.2726,2.2752,2.2779,2.2914,2.2859,2.2859,2.2859,2.2859,2.2859,2.2859,2.2859,2.2859,2.2859,2.2859,2.2859,2.2859,2.2859,2.2859,2.2859,2.2859,2.2859,2.2859,2.2859,2.2859,2.2859,2.2859,2.2859,2.2859,2.2859,2.2859,2.2859,2.2859,2.2859,2.2859,2.2859,2.2859,2.2939,2.2915,2.2585,2.2552,2.2552,2.2552,2.2467,2.2346,2.2346,2.2346,2.2346,2.2346,2.2346,2.2346,2.2346,2.2408,2.2558,2.2781,2.3005,2.3141,2.3513,2.3674,2.3661,2.3988,2.399,2.3832,2.3798,2.3647,2.3327,2.3193,2.3033,2.2859,2.2859,2.2859,2.2859,2.2859,2.2859,2.2859,2.2859,2.2859,2.2859,2.2859,2.2859,2.2859,2.2859,2.2859,2.2859,2.2859,2.2859,2.2859,2.2859,2.2726,2.2432,2.2258,2.1991,0.0,0.0,0.0,0.0,0.0,0.0,0.0,0.0,0.0,0.0,0.0,2.2859,2.2859,2.2859,2.2859,2.2859,2.2859,2.2859,2.2859,2.2712,2.2686,2.2914,2.2712,2.2672,2.2914,2.2859,2.2859,2.2859,2.2859,2.2859,2.2859,2.2859,2.2859,2.2859,2.2859,2.2859,2.2859,2.2859,2.2859,2.2859,2.2859,2.2859,2.2859,2.2859,2.2859,2.2859,2.2859,2.2859,2.2859,2.2859,2.2859,2.2859,2.2859,2.2859,2.2859,2.2859,2.2859,2.2859,2.2859,2.2859,2.2673,2.2661,2.243,2.2346,2.2346,2.2346,2.2346,2.2346,2.2346,2.2346,2.2346,2.2346,2.2334,2.2408,2.2408,2.2558,2.293,2.3005,2.3228,2.3513,2.3857,2.4066,2.4053,2.4143,2.4128,2.4075,2.3567,2.33,2.326,2.2993,2.2928,2.2996,2.2928,2.2996,2.3065,2.3065,2.2996,2.2996,2.2928,2.2928,2.2928,2.2928,2.2859,2.2859,2.2859,2.2859,2.2859,2.2859,2.2859,2.2859,2.2859,2.2739,2.2498,2.2445,2.2191,0.0,2.1871,0.0,0.0,0.0,0.0,0.0,0.0,0.0,0.0,2.2859,2.2859,2.2859,2.2859,2.2859,2.2859,2.2859,2.2859,2.2859,2.2859,2.2859,2.2859,2.2859,2.2859,2.2859,2.2859,2.2859,2.2859,2.2859,2.2859,2.2859,2.2859,2.2859,2.2859,2.2859,2.2859,2.2859,2.2859,2.2859,2.2859,2.2859,2.2859,2.2859,2.2859,2.2859,2.2859,2.2859,2.2859,2.2859,2.2859,2.2859,2.2859,2.2859,2.2859,2.2859,2.2859,2.2859,2.2859,2.2859,2.2859,2.2406,2.2406,2.2283,2.2346,2.2346,2.2346,2.2346,2.2346,2.2346,2.2346,2.2346,2.2346,2.2495,2.2781,2.2781,2.3005,2.329,2.3674,2.3822,2.3883,2.4103,2.4143,2.4117,2.3995,2.3728,2.35,2.338,2.3193,2.2953,2.2886,2.3065,2.327,2.3338,2.3475,2.3747,0.0,0.0,0.0,2.327,2.3338,2.327,2.3065,2.2859,2.2859,2.2859,0.0,2.2859,2.2859,2.2859,2.2859,2.2859,0.0,0.0,0.0,0.0,0.0,0.0,0.0,0.0,0.0,0.0,0.0,2.2365,2.2485,2.2832,2.2859,2.2859,2.2859,2.2859,2.2859,2.2859,2.2859,2.2859,2.2859,2.2859,2.2859,2.2859,2.2859,2.2859,2.2859,2.2859,2.2859,2.2859,2.2859,2.2859,2.2859,2.2859,2.2859,2.2859,2.2859,2.2859,2.2859,2.2859,2.2859,2.2859,2.2859,2.2859,2.2859,2.2859,2.2859,2.2859,2.2859,2.2859,2.2859,2.2859,2.2859,2.2859,2.2859,2.2886,2.2873,2.2873,2.2859,2.2859,2.2859,2.2859,2.2346,2.2346,2.2346,2.2346,0.0,2.2346,2.2346,2.2346,2.2346,2.2346,2.2334,2.2483,2.2707,2.293,2.3079,2.3377,2.3661,2.3741,2.3896,2.4116,2.4043,2.3995,2.3981,2.3688,2.3474,2.3327,2.3166,2.302,2.2941,2.3065,2.3201,2.3406,2.3611,2.3816,2.4034,2.417,2.4088,2.3679,2.3679,2.3679,2.3679,2.3543,2.3406,2.3475,2.3406,0.0,0.0,0.0,0.0,0.0,0.0,0.0,0.0,2.2848,0.0,2.2432,2.2418,2.2352,2.2218,2.2338,2.2485,2.2632,2.2632,2.2699,2.2859,2.2859,2.2859,2.2859,2.2859,2.2859,2.2859,2.2859,2.2859,2.2859,2.2859,2.2859,2.2859,2.2859,2.2859,2.2859,2.2859,2.2859,2.2859,2.2859,2.2859,2.2859,2.2859,2.2859,2.2859,2.2859,2.2859,2.2859,2.2859,2.2859,2.2859,2.2859,2.2859,2.2859,2.2859,2.2859,2.2859,2.2859,2.2859,2.2859,2.2859,2.2859,2.2873,2.2979,2.31,2.3113,2.3207,2.3247,2.3126,2.2966,2.2859,2.2346,2.2346,2.2346,2.2346,2.2346,2.2346,2.2346,2.2346,2.2346,0.0,0.0,2.2781,2.293,2.3154,2.3313,2.3671,2.4027,2.3739,2.3839,2.4115,2.3821,2.3701,2.3674,2.3394,2.3247,2.3233,2.2979,2.2859,2.2928,2.327,2.3406,2.3543,2.3884,2.417,2.4292,2.4578,2.4563,2.436,2.4238,2.4156,2.417,2.4156,2.4156,2.4156,2.4088,2.4088,2.4088,2.402,2.3966,2.3966,2.3679,2.3475,2.3406,2.3133,2.282,2.2525,2.2726,2.2752,2.2525,2.2726,2.2859,2.2859,2.2859,2.2859,2.2859,2.2859,2.2859,2.2859,2.2859,2.2859,2.2859,2.2859,2.2859,2.2859,2.2859,2.2859,2.2859,2.2859,2.2859,2.2859,2.2859,2.2859,2.2859,2.2859,2.2859,2.2859,2.2859,2.2859,2.2859,2.2859,2.2859,2.2859,2.2859,2.2859,2.2859,2.2859,2.2859,2.2859,2.2859,2.2859,2.2859,2.2859,2.2859,2.2859,2.2859,2.2886,2.2953,2.314,2.334,2.3394,2.3594,2.3701,2.346,2.3207,2.302,2.2346,2.2346,2.2346,2.2346,2.2346,2.2346,2.2346,2.2346,2.2334,2.2483,2.2856,2.2856,2.3228,2.3809,2.3637,2.3825,2.4163,2.3883,2.3834,2.3821,2.3527,2.3394,2.3367,2.3073,2.2926,2.2926,2.2954,2.2859,2.2928,2.327,2.3543,2.3884,2.4306,2.4713,2.5322,2.539,2.5524,2.5794,2.5187,2.4834,2.4834,2.4834,2.4834,2.4834,2.4578,2.4428,2.4442,2.4156,2.3966,2.3966,2.3966,2.3747,2.3406,2.3338,2.3188,2.2874,2.2914,2.2846,2.2806,2.2832,2.2859,2.2859,2.2859,2.2859,2.2859,2.2859,2.2859,2.2859,2.2859,2.2859,2.2859,2.2859,2.2859,2.2859,2.2859,2.2859,2.2859,2.2859,2.2859,2.2859,2.2859,2.2859,2.2859,2.2859,2.2859,2.2859,2.2859,2.2859,2.2859,2.2859,2.2859,2.2859,2.2859,2.2859,2.2859,2.2859,2.2859,2.2859,2.2859,2.2859,2.2859,2.2859,2.2873,2.2941,2.2899,2.2993,2.3193,2.3287,2.346,2.3647,2.3781,2.3794,2.3728,2.3634,2.3447,2.2346,2.2346,2.2346,2.2346,2.2346,2.2346,2.2346,2.2321,2.2324,2.2571,2.2918,2.2917,2.3222,2.3784,2.3727,2.3824,2.3955,2.3661,2.3541,2.3514,2.322,2.3073,2.306,2.2926,2.2859,2.2859,2.2859,2.2859,2.2928,2.3475,2.3816,2.4034,2.4713,2.5255,2.5592,2.5809,2.5928,2.6078,2.5727,2.5592,2.5592,2.5592,2.5592,2.5592,2.5457,2.539,2.539,2.5052,2.4849,2.4849,2.4495,2.4224,2.402,2.3611,2.3338,2.3201,2.2996,2.2859,2.2859,2.2859,2.2859,2.2859,2.2859,2.2859,2.2859,2.2859,2.2859,2.2859,2.2859,2.2859,2.2859,2.2859,2.2859,2.2859,2.2859,2.2859,2.2859,2.2859,2.2859,2.2859,2.2859,2.2859,2.2859,2.2859,2.2859,2.2859,2.2859,2.2859,2.2859,2.2859,2.2859,2.2859,2.2859,2.2859,2.2859,2.2859,2.2859,2.2859,2.2859,2.2859,2.2859,2.2859,2.2939,2.3073,2.3113,2.3233,2.3514,2.3701,2.3848,2.3955,2.4155,2.4182,2.4062,2.3888,2.3674,2.2346,2.2346,2.2346,2.2346,2.2346,2.2346,2.2309,2.2373,2.2387,2.2607,2.2928,2.3031,2.3233,2.3642,2.3652,2.3674,2.3634,2.3354,2.322,2.3193,2.2979,2.2859,2.2859,2.2859,2.2859,2.2859,2.2859,2.2859,2.2996,2.3611,2.4102,2.4306,2.5119,2.5524,2.5727,2.5944,2.6213,2.6347,2.6331,2.6347,2.6347,2.6398,2.6532,2.6599,2.6398,2.6347,2.6347,2.5928,2.5659,2.5607,2.5052,2.4631,2.4495,2.3884,2.3475,2.3406,2.3065,2.2859,2.2859,2.2859,2.2859,2.2859,2.2859,2.2859,2.2859,2.2859,2.2859,2.2859,2.2859,2.2859,2.2859,2.2859,2.2859,2.2859,2.2859,2.2859,2.2859,2.2859,2.2859,2.2859,2.2859,2.2859,2.2859,2.2859,2.2859,2.2859,2.2859,2.2859,2.2859,2.2859,2.2859,2.2859,2.2859,2.2859,2.2859,2.2859,2.2859,2.2859,2.2859,2.2859,2.2873,2.2913,2.3033,2.326,2.338,2.3541,2.3808,2.4022,2.4182,2.4275,2.4449,2.4529,2.4342,2.4155,2.3901,2.2346,2.2346,2.2346,2.2346,2.2346,2.2346,2.2361,2.2362,2.2386,2.2674,2.3158,2.3164,2.3379,2.3696,2.35,2.3367,2.334,2.3046,2.2981,2.2913,2.2873,2.2859,2.2859,2.2859,2.2859,2.2859,2.2859,2.2859,2.2928,2.3625,2.4306,2.4916,2.5119,2.5457,2.5996,2.6078,2.6398,2.7067,2.7134,2.7067,2.7134,2.7384,2.7716,2.8064,2.7467,2.7067,2.7067,2.6398,2.5944,2.5659,2.5539,2.5187,2.4563,2.417,2.3747,2.3406,2.3065,2.2859,2.2859,2.2859,2.2859,2.2859,2.2859,2.2859,2.2859,2.2859,2.2859,2.2859,2.2859,2.2859,2.2859,2.2859,2.2859,2.2859,2.2859,2.2859,2.2859,2.2859,2.2859,2.2859,2.2859,2.2859,2.2859,2.2859,2.2859,2.2859,2.2859,2.2859,2.2859,2.2859,2.2859,2.2859,2.2859,2.2859,2.2859,2.2859,2.2859,2.2859,2.2859,2.2886,2.2939,2.31,2.3313,2.346,2.3581,2.3834,2.4048,2.4209,2.4302,2.4476,2.4583,2.4623,2.4509,2.4529,2.4329,2.2346,2.2346,2.2346,2.2346,2.2346,2.2346,2.2422,2.267,2.2554,2.2798,2.3145,2.3043,2.32,2.3487,2.318,2.3046,2.3046,2.2913,2.2859,2.2859,2.2859,2.2859,2.2859,2.2859,2.2859,2.2859,2.2859,2.2859,2.2996,2.3611,2.4374,2.5052,2.5255,2.5524,2.5809,2.6264,2.6599,2.6867,2.7067,2.74,2.7799,2.7783,2.7915,2.8196,2.7998,2.7733,2.7451,2.7,2.6465,2.5928,2.5742,2.539,2.4849,2.4306,2.3966,2.3747,2.3201,2.2859,2.2859,2.2859,2.2859,2.2859,2.2859,2.2859,2.2859,2.2859,2.2859,2.2859,2.2859,2.2859,2.2859,2.2859,2.2859,2.2859,2.2859,2.2859,2.2859,2.2859,2.2859,2.2859,2.2859,2.2859,2.2859,2.2859,2.2859,2.2859,2.2859,2.2859,2.2859,2.2859,2.2859,2.2859,2.2859,2.2859,2.2859,2.2859,2.2873,2.2859,2.2859,2.2886,2.3126,2.3207,2.3407,2.3754,2.3928,2.4128,2.4409,2.4449,2.4516,2.4636,2.4636,2.4636,2.4636,2.4636,2.4489,2.2346,2.2346,2.2346,2.2346,2.2346,2.2346,2.2446,2.2781,2.2686,2.2865,2.3027,2.3041,2.306,2.3153,2.2953,2.2859,2.2859,2.2859,2.2859,2.2859,2.2859,2.2859,2.2859,2.2859,2.2859,2.2859,2.2859,2.2928,2.3065,2.3693,2.4306,2.4916,2.5269,2.5539,2.5674,2.6264,2.6599,2.6733,2.7134,2.7666,2.8196,2.8114,2.818,2.8527,2.8461,2.8263,2.7849,2.7451,2.6867,2.6145,2.5809,2.5457,2.5119,2.4374,2.3898,2.3679,2.3201,2.2859,2.2859,2.2859,2.2859,2.2859,2.2859,2.2859,2.2859,2.2859,2.2859,2.2859,2.2859,2.2859,2.2859,2.2859,2.2859,2.2859,2.2859,2.2859,2.2859,2.2859,2.2859,2.2859,2.2859,2.2859,2.2859,2.2859,2.2859,2.2859,2.2859,2.2859,2.2859,2.2859,2.2859,2.2859,2.2859,2.2859,2.2859,2.2859,2.2941,2.2979,2.302,2.3126,2.3394,2.3487,2.3594,2.4008,2.4195,2.4356,2.4516,2.4596,2.4623,2.4636,2.4636,2.4636,2.4636,2.4636,2.4636,2.2346,2.2346,2.2346,2.2346,2.2346,2.2346,2.2349,2.2521,2.28,2.287,2.2884,2.3117,2.3153,2.2953,2.2926,2.2941,2.2859,2.2859,2.2859,2.2859,2.2859,2.2859,2.2859,2.2859,2.2859,2.2859,2.2859,2.3065,2.3338,2.3816,2.4156,2.4563,2.4984,2.5322,2.5592,2.5944,2.6331,2.6666,2.7318,2.7849,2.8263,2.8609,2.8856,2.9119,2.8922,2.8609,2.8196,2.76,2.6867,2.613,2.5794,2.5457,2.5052,2.4374,2.3679,2.3065,2.2928,2.2859,2.2859,2.2859,2.2859,2.2859,2.2859,2.2859,2.2859,2.2859,2.2859,2.2859,2.2859,2.2859,2.2859,2.2859,2.2859,2.2859,2.2859,2.2859,2.2859,2.2859,2.2859,2.2859,2.2859,2.2859,2.2859,2.2859,2.2859,2.2859,2.2859,2.2859,2.2859,2.2859,2.2859,2.2873,2.2873,2.2941,2.2873,2.2939,2.3046,2.3153,2.326,2.3407,2.3701,2.3955,2.4088,2.4235,2.4409,2.4543,2.4609,2.4636,2.4636,2.4636,2.4636,2.4636,2.4636,2.4636,2.4636,2.2346,2.2346,2.2346,2.2346,2.2346,2.2346,2.2434,2.2695,2.2595,2.2844,2.3229,2.3261,2.3329,2.3447,2.3447,2.3303,2.2886,2.2859,2.2859,2.2859,2.2859,2.2859,2.2859,2.2859,2.2859,2.2859,2.2859,2.3065,2.3406,2.3816,2.417,2.4495,2.4916,2.5187,2.5322,2.5794,2.6213,2.6398,2.7251,2.7915,2.8345,2.8609,2.8939,2.925,2.9185,2.8856,2.8329,2.8064,2.7334,2.613,2.6011,2.5524,2.4781,2.402,2.3406,2.2996,2.2859,2.2859,2.2859,2.2859,2.2859,2.2859,2.2859,2.2859,2.2859,2.2859,2.2859,2.2859,2.2859,2.2859,2.2859,2.2859,2.2859,2.2859,2.2859,2.2859,2.2859,2.2859,2.2859,2.2859,2.2859,2.2859,2.2859,2.2859,2.2859,2.2859,2.2859,2.2859,2.2859,2.2859,2.2859,2.2899,2.3033,2.3153,2.3153,2.3166,2.322,2.3327,2.346,2.3714,2.3995,2.4102,2.4222,2.4396,2.4583,2.4609,2.4636,2.4636,2.4636,2.4636,2.4636,2.4636,2.4636,2.4636,2.4636,2.2346,2.2346,2.2346,2.2346,2.2346,2.2346,2.2408,2.2694,2.2584,2.2901,2.3297,2.3333,2.3503,2.3781,2.3781,2.3567,2.3236,2.306,2.2953,2.2941,2.2859,2.2859,2.2859,2.2859,2.2859,2.2859,2.2859,2.2996,2.3283,2.3845,2.4243,2.4448,2.5095,2.5359,2.5511,2.6042,2.6466,2.679,2.7653,2.8408,2.8826,2.916,2.941,2.9609,2.9676,2.9208,2.8362,2.8196,2.7533,2.6331,2.5996,2.5457,2.4428,2.3747,2.327,2.2928,2.2859,2.2859,2.2859,2.2859,2.2859,2.2859,2.2859,2.2859,2.2859,2.2859,2.2859,2.2859,2.2859,2.2859,2.2859,2.2859,2.2859,2.2859,2.2859,2.2859,2.2859,2.2859,2.2859,2.2859,2.2859,2.2859,2.2859,2.2859,2.2859,2.2859,2.2859,2.2859,2.2859,2.2859,2.2913,2.3006,2.318,2.334,2.3474,2.3567,2.3634,2.3741,2.3768,2.4008,2.4195,2.4289,2.4369,2.4556,2.4636,2.4636,2.4636,2.4636,2.4636,2.4636,2.4636,2.4636,2.4636,2.4636,2.4663,2.2346,2.2346,2.2346,2.2346,2.2346,2.2346,2.2334,2.2408,2.2694,2.2917,2.3168,2.3409,2.3642,2.379,2.3888,2.3794,2.3688,2.3474,2.3233,2.3048,2.3008,2.3008,2.2953,2.2966,2.2966,2.2953,2.2913,2.2968,2.309,2.3942,2.4414,2.4609,2.5449,2.59,2.5988,2.6613,2.72,2.767,2.8535,2.9321,2.9883,3.0072,3.0258,3.0276,3.0276,2.9632,2.8362,2.798,2.7347,2.6274,2.5869,2.5134,2.4212,2.3625,2.327,2.2928,2.2859,2.2859,2.2859,2.2859,2.2859,2.2859,2.2859,2.2859,2.2859,2.2859,2.2859,2.2859,2.2859,2.2859,2.2859,2.2859,2.2859,2.2859,2.2859,2.2859,2.2859,2.2859,2.2859,2.2859,2.2859,2.2859,2.2859,2.2859,2.2859,2.2859,2.2859,2.2886,2.2926,2.2939,2.302,2.3247,2.3447,2.3607,2.3808,2.3995,2.4102,2.4195,2.4182,2.4289,2.4422,2.4516,2.4502,2.4636,2.4636,2.4636,2.4636,2.4636,2.4636,2.4636,2.4636,2.4703,2.4743,2.4783,2.4756,2.2346,2.2346,2.2346,2.2346,2.2346,2.2346,2.2346,2.2346,2.2408,2.2806,2.325,2.3398,2.3788,2.4236,2.4369,2.4262,2.4062,2.3955,2.3768,2.3527,2.3487,2.3474,2.3474,2.3544,2.3487,2.3557,2.3487,2.3487,2.3628,2.4329,2.4736,2.4904,2.5608,2.6018,2.6047,2.6703,2.7192,2.7401,2.8648,2.9404,2.9541,3.0088,3.0293,3.0105,3.002,2.963,2.8682,2.853,2.7915,2.6802,2.6487,2.5692,2.4426,2.3516,2.2996,2.2928,2.2859,2.2859,2.2859,2.2859,2.2859,2.2859,2.2859,2.2859,2.2859,2.2859,2.2859,2.2859,2.2859,2.2859,2.2859,2.2859,2.2859,2.2859,2.2859,2.2859,2.2859,2.2859,2.2859,2.2859,2.2859,2.2859,2.2859,2.2928,2.2886,2.2899,2.2899,2.3021,2.3126,2.318,2.33,2.3567,2.3741,2.3901,2.4088,2.4235,2.4356,2.4409,2.4409,2.4422,2.4556,2.4636,2.4636,2.4636,2.4636,2.4636,2.4636,2.4663,2.469,2.4743,2.481,2.489,2.4943,2.4983,2.4997,2.2346,2.2346,2.2346,2.2346,2.2346,2.2346,2.2346,2.2346,2.2346,2.2707,2.329,2.3438,2.3809,2.4488,2.4636,2.4529,2.4369,2.4369,2.4262,2.4062,2.3834,2.3781,2.3781,2.3781,2.3781,2.3781,2.3768,2.3781,2.3852,2.4504,2.4901,2.52,2.5812,2.6255,2.6369,2.6937,2.7347,2.7771,2.8771,2.9453,2.9748,3.0165,3.0304,3.0112,2.9974,2.9625,2.9051,2.8701,2.8084,2.7183,2.6424,2.548,2.4582,2.3788,2.3193,2.318,2.31,2.3033,2.3033,2.2939,2.2859,2.2859,2.2859,2.2859,2.2859,2.2859,2.2859,2.2859,2.2859,2.2859,2.2859,2.2859,2.2859,2.2859,2.2859,2.2859,2.2859,2.2859,2.2859,2.2859,2.2859,2.2859,2.2928,2.2993,2.302,2.3046,2.314,2.3233,2.3447,2.3487,2.3661,2.3834,2.3995,2.4168,2.4342,2.4476,2.4596,2.4596,2.4583,2.4569,2.4623,2.4636,2.4636,2.4636,2.4636,2.4636,2.4636,2.4796,2.4863,2.4943,2.5024,2.5157,2.5264,2.5317,2.5331,2.2346,2.2346,2.2346,2.2346,2.2346,2.2346,2.2346,2.2346,2.2346,2.2707,2.329,2.3438,2.3822,2.4488,2.4636,2.4609,2.4549,2.4522,2.4583,2.4436,2.4142,2.3915,2.3915,2.3928,2.3928,2.3901,2.3888,2.3875,2.3928,2.4548,2.5005,2.5452,2.604,2.659,2.6896,2.739,2.7822,2.8454,2.9003,2.9647,3.0217,3.0321,3.0321,3.0233,2.9916,2.956,2.9043,2.8454,2.7794,2.7009,2.5823,2.5073,2.4833,2.4195,2.3701,2.3674,2.3487,2.338,2.3287,2.3153,2.3006,2.3006,2.3006,2.2968,2.2953,2.2953,2.2913,2.2873,2.2859,2.2859,2.2859,2.2859,2.2859,2.2859,2.2859,2.2859,2.2859,2.2859,2.2886,2.2913,2.2899,2.2913,2.2993,2.322,2.3313,2.338,2.3541,2.3661,2.3768,2.3821,2.3941,2.4102,2.4275,2.4356,2.4502,2.4529,2.4636,2.4636,2.4636,2.4636,2.4636,2.4636,2.4636,2.4636,2.469,2.4676,2.4756,2.4943,2.5077,2.5144,2.5277,2.5464,2.5571,2.5638,2.5651,2.2346,2.2346,2.2346,2.2346,2.2346,2.2346,2.2346,2.2346,2.2346,2.2707,2.329,2.3438,2.3896,2.4562,2.4636,2.4636,2.4636,2.4636,2.4636,2.4536,2.4502,2.4409,2.4409,2.4396,2.4396,2.4382,2.4342,2.4409,2.4409,2.4815,2.5235,2.5674,2.6109,2.6546,2.6983,2.742,2.7768,2.8274,2.8938,2.9513,2.9926,2.9997,2.9871,2.9585,2.921,2.8851,2.8418,2.7985,2.7505,2.7038,2.5913,2.5297,2.5126,2.4344,2.3834,2.3808,2.3728,2.3647,2.3634,2.3554,2.3514,2.3527,2.3474,2.3434,2.322,2.3207,2.3086,2.2939,2.2859,2.2886,2.2873,2.2886,2.2886,2.2859,2.2926,2.2913,2.2886,2.2873,2.2939,2.3153,2.3193,2.3287,2.3447,2.3567,2.3647,2.3674,2.3768,2.3888,2.4035,2.4102,2.4182,2.4382,2.4529,2.4569,2.4522,2.4609,2.4636,2.4636,2.4636,2.4636,2.4636,2.4636,2.4636,2.4636,2.4836,2.4877,2.5024,2.5211,2.5277,2.5398,2.5611,2.5812,2.5919,2.5985,2.5985,2.2346,2.2346,2.2346,2.2346,2.2346,2.2346,2.2346,2.2334,2.2483,2.2856,2.3364,2.3587,2.397,2.4562,2.4636,2.4636,2.4636,2.4636,2.4636,2.4636,2.4623,2.4609,2.4623,2.4636,2.4636,2.4636,2.4636,2.4623,2.4623,2.4857,2.5152,2.5506,2.5946,2.6312,2.6692,2.7129,2.755,2.7913,2.8491,2.8995,2.9354,2.9425,2.9282,2.8995,2.8563,2.8057,2.7638,2.726,2.6983,2.6648,2.5995,2.5461,2.5243,2.4598,2.4142,2.4128,2.4035,2.3955,2.3928,2.3848,2.3781,2.3768,2.3781,2.3688,2.3554,2.3514,2.3407,2.33,2.3247,2.3247,2.3247,2.3316,2.3247,2.3273,2.3316,2.3193,2.3086,2.3193,2.3313,2.346,2.3527,2.3567,2.3768,2.3875,2.3941,2.3981,2.4102,2.4222,2.4356,2.4369,2.4409,2.4556,2.4636,2.4549,2.4549,2.4623,2.4636,2.4636,2.469,2.469,2.469,2.469,2.4756,2.481,2.4983,2.5144,2.5304,2.5464,2.5625,2.5772,2.5985,2.6106,2.6186,2.6199,2.6199,2.2346,2.2346,2.2346,2.2346,2.2346,2.2346,2.2346,2.2408,2.2707,2.3079,2.3438,2.3822,2.4193,2.4562,2.4636,2.4636,2.4636,2.4636,2.4636,2.4636,2.4636,2.4636,2.4636,2.4636,2.4636,2.4636,2.4636,2.4636,2.4636,2.4636,2.4857,2.5299,2.5653,2.6019,2.6473,2.6838,2.7202,2.7623,2.8057,2.8418,2.8707,2.8779,2.8707,2.8563,2.7913,2.742,2.6983,2.6692,2.6385,2.6239,2.5946,2.5552,2.5198,2.4844,2.4609,2.4469,2.4356,2.4249,2.4222,2.4048,2.3901,2.3941,2.3928,2.3834,2.3834,2.3808,2.3768,2.3661,2.3768,2.3688,2.3688,2.3728,2.3701,2.3674,2.3799,2.3674,2.3541,2.3634,2.3781,2.3808,2.3821,2.3821,2.3915,2.4062,2.4249,2.4262,2.4356,2.4436,2.4502,2.4516,2.4543,2.4596,2.4636,2.4636,2.4636,2.4636,2.4636,2.4636,2.4756,2.4783,2.4783,2.4823,2.4917,2.505,2.5291,2.5451,2.5558,2.5732,2.5919,2.6039,2.6172,2.6293,2.6373,2.6333,2.6319,2.2346,2.2346,2.2346,2.2346,2.2346,2.2346,2.2346,2.2334,2.2707,2.3154,2.3451,2.3822,2.4267,2.4636,2.4636,2.4636,2.4636,2.4636,2.4636,2.4636,2.4636,2.4636,2.4636,2.4636,2.4636,2.4636,2.4636,2.4636,2.4636,2.4636,2.4784,2.5152,2.552,2.6019,2.6385,2.6765,2.7202,2.7565,2.7913,2.8274,2.8491,2.8418,2.8274,2.813,2.7492,2.6983,2.6619,2.6458,2.6107,2.5593,2.5373,2.5299,2.5079,2.4784,2.4636,2.4623,2.4583,2.4529,2.4516,2.4449,2.4436,2.4396,2.4356,2.4356,2.4128,2.4115,2.3995,2.3848,2.3781,2.3834,2.3848,2.3794,2.3834,2.3888,2.3995,2.4088,2.4008,2.3888,2.3915,2.4048,2.4115,2.4195,2.4396,2.4422,2.4516,2.4543,2.4569,2.4623,2.4636,2.4636,2.4636,2.4636,2.4636,2.4636,2.4636,2.4649,2.4676,2.473,2.4836,2.505,2.505,2.5077,2.5211,2.5411,2.5638,2.5758,2.5825,2.6026,2.6226,2.6293,2.6319,2.636,2.64,2.64,2.64,2.2346,2.2346,2.2346,2.2346,2.2346,2.2346,2.2408,2.2632,2.3005,2.3377,2.3748,2.4119,2.4414,2.4636,2.4636,2.4636,2.4636,2.4636,2.4636,2.4636,2.4636,2.4636,2.4636,2.4636,2.4636,2.4636,2.4636,2.4636,2.4636,2.4636,2.471,2.4931,2.5299,2.5653,2.6093,2.6546,2.691,2.7347,2.784,2.8202,2.8346,2.8202,2.7855,2.7638,2.7202,2.6838,2.6473,2.6166,2.5814,2.5299,2.5018,2.4931,2.4931,2.471,2.4636,2.4636,2.4636,2.4636,2.4636,2.4636,2.4609,2.4636,2.4636,2.4556,2.4449,2.4409,2.4342,2.4222,2.4195,2.4182,2.4168,2.4182,2.4168,2.4195,2.4302,2.4396,2.4382,2.4262,2.4209,2.4369,2.4409,2.4462,2.4583,2.4623,2.4623,2.4583,2.4583,2.4636,2.4636,2.4636,2.4636,2.4636,2.4636,2.4636,2.4636,2.4663,2.4743,2.4836,2.497,2.5277,2.5491,2.5518,2.5571,2.5745,2.5905,2.6012,2.6106,2.6319,2.64,2.6373,2.6373,2.6386,2.64,2.64,2.64,2.2346,2.2346,2.2346,2.2346,2.2334,2.2334,2.2558,2.293,2.3302,2.3674,2.4044,2.4414,2.4562,2.4636,2.4636,2.4636,2.4636,2.4636,2.4636,2.4636,2.4636,2.4636,2.4636,2.4636,2.4636,2.4636,2.4636,2.4636,2.4636,2.4636,2.4636,2.471,2.5005,2.5446,2.58,2.6166,2.6619,2.7056,2.7623,2.7985,2.8057,2.7985,2.7638,2.7202,2.7071,2.6692,2.6326,2.5946,2.558,2.5152,2.4784,2.4636,2.4636,2.4636,2.4636,2.4636,2.4636,2.4636,2.4636,2.4636,2.4636,2.4636,2.4636,2.4636,2.4609,2.4522,2.4569,2.4583,2.4556,2.4556,2.4623,2.4556,2.4569,2.4596,2.4609,2.4636,2.4636,2.4636,2.4596,2.4596,2.4556,2.4583,2.4609,2.4636,2.4636,2.4636,2.4636,2.4636,2.4636,2.4636,2.4636,2.4636,2.4636,2.4636,2.4636,2.4796,2.4863,2.5024,2.5157,2.5491,2.5825,2.5905,2.5919,2.5972,2.6092,2.6199,2.6253,2.6346,2.64,2.64,2.64,2.64,2.64,2.64,2.64,2.2346,2.2346,2.2346,2.2346,2.2334,2.2632,2.2856,2.3005,2.36,2.3896,2.4044,2.4414,2.4636,2.4636,2.4636,2.4636,2.4636,2.4636,2.4636,2.4636,2.4636,2.4636,2.4636,2.4636,2.4636,2.4636,2.4636,2.4636,2.4636,2.4636,2.4636,2.471,2.5005,2.5373,2.5726,2.6166,2.6546,2.691,2.7492,2.7695,2.7768,2.7695,2.7492,2.7056,2.6998,2.6619,2.6093,2.58,2.5433,2.4784,2.4636,2.4636,2.4636,2.4636,2.4636,2.4636,2.4636,2.4636,2.4636,2.4636,2.4636,2.4636,2.4636,2.4636,2.4636,2.4636,2.4636,2.4636,2.4636,2.4636,2.4636,2.4636,2.4636,2.4636,2.4636,2.4636,2.4636,2.4636,2.4636,2.4636,2.4636,2.4636,2.4636,2.4636,2.4636,2.4636,2.4636,2.4636,2.4636,2.4636,2.4636,2.4636,2.4636,2.4636,2.4636,2.4877,2.505,2.5251,2.5438,2.5718,2.6012,2.6199,2.6266,2.6226,2.6239,2.6306,2.636,2.64,2.64,2.64,2.64,2.64,2.64,2.64,2.64,2.2346,2.2346,2.2346,2.2408,2.2632,2.2781,2.3154,2.3525,2.3822,2.4119,2.4341,2.4488,2.4636,2.4636,2.4636,2.4636,2.4636,2.4636,2.4636,2.4636,2.4636,2.4636,2.4636,2.4636,2.4636,2.4636,2.4636,2.4636,2.4636,2.4636,2.4636,2.4636,2.4784,2.5079,2.5506,2.5873,2.6326,2.6765,2.726,2.755,2.755,2.755,2.7347,2.7056,2.6765,2.6385,2.5946,2.5593,2.5226,2.4784,2.4636,2.4636,2.4636,2.4636,2.4636,2.4636,2.4636,2.4636,2.4636,2.4636,2.4636,2.4636,2.4636,2.4636,2.4636,2.4636,2.4636,2.4636,2.4636,2.4636,2.4636,2.4636,2.4636,2.4636,2.4636,2.4636,2.4636,2.4636,2.4636,2.4636,2.4636,2.4636,2.4636,2.4636,2.4636,2.4636,2.4636,2.4636,2.4636,2.4636,2.4636,2.469,2.4716,2.4796,2.4836,2.505,2.5277,2.5478,2.5678,2.5959,2.6132,2.6306,2.636,2.6346,2.6386,2.64,2.64,2.64,2.64,2.64,2.64,2.64,2.64,2.64,2.64,2.2346,2.2334,2.2408,2.2632,2.293,2.3079,2.3451,2.397,2.4119,2.4341,2.4562,2.4636,2.4636,2.4636,2.4636,2.4636,2.4636,2.4636,2.4636,2.4636,2.4636,2.4636,2.4636,2.4636,2.4636,2.4636,2.4636,2.4636,2.4636,2.4636,2.4636,2.4636,2.4636,2.4784,2.5226,2.5593,2.5946,2.6458,2.6969,2.7332,2.7492,2.7492,2.726,2.691,2.6546,2.6166,2.5653,2.5373,2.5079,2.471,2.4636,2.4636,2.4636,2.4636,2.4636,2.4636,2.4636,2.4636,2.4636,2.4636,2.4636,2.4636,2.4636,2.4636,2.4636,2.4636,2.4636,2.4636,2.4636,2.4636,2.4636,2.4636,2.4636,2.4636,2.4636,2.4636,2.4636,2.4636,2.4636,2.4636,2.4636,2.4636,2.4636,2.4636,2.4636,2.4636,2.4636,2.4636,2.4636,2.4636,2.4649,2.4743,2.4823,2.4957,2.509,2.5291,2.5518,2.5822,2.5919,2.6146,2.6266,2.6373,2.64,2.64,2.64,2.64,2.64,2.64,2.64,2.64,2.64,2.64,2.64,2.64,2.64,2.2346,2.2334,2.2632,2.2856,2.3005,2.36,2.3896,2.4044,2.4341,2.4562,2.4636,2.4636,2.4636,2.4636,2.4636,2.4636,2.4636,2.4636,2.4636,2.4636,2.4636,2.4636,2.4636,2.4636,2.4636,2.4636,2.4636,2.4636,2.4636,2.4636,2.4636,2.4636,2.4636,2.4784,2.5079,2.5299,2.5667,2.6253,2.6473,2.6765,2.6983,2.7056,2.6838,2.6546,2.6326,2.6034,2.5446,2.5226,2.4931,2.4636,2.4636,2.4636,2.4636,2.4636,2.4636,2.4636,2.4636,2.4636,2.4636,2.4636,2.4636,2.4636,2.4636,2.4636,2.4636,2.4636,2.4636,2.4636,2.4636,2.4636,2.4636,2.4636,2.4636,2.4636,2.4636,2.4636,2.4636,2.4636,2.4636,2.4636,2.4636,2.4636,2.4636,2.4636,2.4636,2.4636,2.4636,2.4636,2.4663,2.469,2.4743,2.485,2.5037,2.5184,2.5358,2.5558,2.5745,2.6063,2.6211,2.6293,2.6346,2.64,2.64,2.64,2.64,2.64,2.64,2.64,2.64,2.64,2.64,2.64,2.64,2.64,2.64,2.2346,2.2334,2.2707,2.3005,2.3228,2.3735,2.4119,2.4341,2.4488,2.4636,2.4636,2.4636,2.4636,2.4636,2.4636,2.4636,2.4636,2.4636,2.4636,2.4636,2.4636,2.4636,2.4636,2.4636,2.4636,2.4636,2.4636,2.4636,2.4636,2.4636,2.4636,2.4636,2.4636,2.4636,2.4931,2.5092,2.5373,2.574,2.596,2.6166,2.6312,2.6312,2.6239,2.6093,2.5887,2.552,2.5299,2.4931,2.4784,2.4636,2.4636,2.4636,2.4636,2.4636,2.4636,2.4636,2.4636,2.4636,2.4636,2.4636,2.4636,2.4636,2.4636,2.4636,2.4636,2.4636,2.4636,2.4636,2.4636,2.4636,2.4636,2.4636,2.4636,2.4636,2.4636,2.4636,2.4636,2.4636,2.4636,2.4636,2.4636,2.4636,2.4636,2.4636,2.4636,2.4636,2.4636,2.4649,2.473,2.4836,2.4917,2.501,2.5224,2.5438,2.5638,2.5825,2.5972,2.6146,2.6226,2.636,2.6373,2.64,2.64,2.64,2.64,2.64,2.64,2.64,2.64,2.64,2.64,2.64,2.64,2.64,2.64,2.2483,2.2483,2.2856,2.3228,2.3587,2.397,2.4341,2.4562,2.4562,2.4636,2.4636,2.4636,2.4636,2.4636,2.4636,2.4636,2.4636,2.4636,2.4636,2.4636,2.4636,2.4636,2.4636,2.4636,2.4636,2.4636,2.4636,2.4636,2.4636,2.4636,2.4636,2.4636,2.4636,2.4636,2.471,2.4857,2.5079,2.5299,2.5653,2.58,2.5873,2.5873,2.58,2.558,2.5373,2.5152,2.5005,2.4784,2.4636,2.4636,2.4636,2.4636,2.4636,2.4636,2.4636,2.4636,2.4636,2.4636,2.4636,2.4636,2.4636,2.4636,2.4636,2.4636,2.4636,2.4636,2.4636,2.4636,2.4636,2.4636,2.4636,2.4636,2.4636,2.4636,2.4636,2.4636,2.4636,2.4636,2.4636,2.4636,2.4636,2.4636,2.4636,2.4636,2.4636,2.4636,2.4649,2.4676,2.481,2.497,2.517,2.5304,2.5491,2.5732,2.5945,2.6106,2.6239,2.6279,2.636,2.64,2.64,2.64,2.64,2.64,2.64,2.64,2.64,2.64,2.64,2.64,2.64,2.64,2.64,2.64,2.64,2.2856,2.2856,2.3228,2.3587,2.397,2.4414,2.4562,2.4636,2.4636,2.4636,2.4636,2.4636,2.4636,2.4636,2.4636,2.4636,2.4636,2.4636,2.4636,2.4636,2.4636,2.4636,2.4636,2.4636,2.4636,2.4636,2.4636,2.4636,2.4636,2.4636,2.4636,2.4636,2.4636,2.4636,2.4636,2.471,2.4857,2.5079,2.5433,2.5653,2.5726,2.5653,2.558,2.5299,2.5152,2.5018,2.471,2.4636,2.4636,2.4636,2.4636,2.4636,2.4636,2.4636,2.4636,2.4636,2.4636,2.4636,2.4636,2.4636,2.4636,2.4636,2.4636,2.4636,2.4636,2.4636,2.4636,2.4636,2.4636,2.4636,2.4636,2.4636,2.4636,2.4636,2.4636,2.4636,2.4636,2.4636,2.4636,2.4636,2.4636,2.4636,2.4636,2.4636,2.4636,2.4636,2.477,2.4796,2.497,2.5157,2.5451,2.5651,2.5825,2.6026,2.6253,2.636,2.6333,2.6333,2.6373,2.64,2.64,2.64,2.64,2.64,2.64,2.64,2.64,2.64,2.64,2.64,2.64,2.64,2.64,2.64,2.64,2.3377,2.36,2.3748,2.3896,2.4044,2.4414,2.4636,2.4636,2.4636,2.4636,2.4636,2.4636,2.4636,2.4636,2.4636,2.4636,2.4636,2.4636,2.4636,2.4636,2.4636,2.4636,2.4636,2.4636,2.4636,2.4636,2.4636,2.4636,2.4636,2.4663,2.4636,2.4636,2.469,2.4636,2.4636,2.4676,2.475,2.4884,2.5018,2.5152,2.5373,2.5226,2.5079,2.5239,2.4931,2.4784,2.4636,2.4636,2.4636,2.4636,2.4636,2.4636,2.4636,2.4636,2.4636,2.4636,2.4636,2.4636,2.4636,2.4636,2.4636,2.4636,2.4636,2.4636,2.4636,2.4636,2.4636,2.4636,2.4636,2.4636,2.4636,2.4636,2.4636,2.4636,2.4636,2.4636,2.4636,2.4636,2.4636,2.4636,2.4636,2.4636,2.4636,2.4636,2.4636,2.4649,2.4796,2.497,2.517,2.5371,2.5665,2.5892,2.6052,2.6146,2.636,2.64,2.64,2.64,2.64,2.64,2.64,2.64,2.64,2.64,2.64,2.64,2.64,2.64,2.64,2.64,2.64,2.64,2.64,2.64,2.64,2.3748,2.397,2.4119,2.4193,2.4193,2.4488,2.4636,2.4636,2.4636,2.4636,2.4636,2.4636,2.4636,2.4636,2.4636,2.4636,2.4636,2.4636,2.4636,2.4636,2.4636,2.4636,2.4636,2.4636,2.4636,2.4636,2.4649,2.4649,2.4796,2.4783,2.4863,2.4917,2.489,2.489,2.481,2.4863,2.489,2.5052,2.5052,2.5195,2.5478,2.5376,2.5059,2.5267,2.4931,2.4784,2.4636,2.4636,2.4636,2.4636,2.4636,2.4636,2.4636,2.4636,2.4636,2.4636,2.4636,2.4636,2.4636,2.4636,2.4636,2.4636,2.4636,2.4636,2.4636,2.4636,2.4636,2.4636,2.4636,2.4636,2.4636,2.4636,2.4636,2.4636,2.4636,2.4636,2.4636,2.4636,2.4636,2.4636,2.4636,2.4649,2.4716,2.4743,2.4863,2.4917,2.5077,2.5277,2.5491,2.5692,2.5892,2.6092,2.6239,2.6319,2.64,2.64,2.64,2.64,2.64,2.64,2.64,2.64,2.64,2.64,2.64,2.64,2.64,2.64,2.64,2.64,2.64,2.64,2.64,2.64,2.64,2.4044,2.4044,2.4414,2.4562,2.4562,2.4562,2.4636,2.4636,2.4636,2.4636,2.4636,2.4636,2.4636,2.4636,2.4636,2.4636,2.4636,2.4636,2.4636,2.4636,2.4636,2.4636,2.4636,2.4636,2.4676,2.4576,2.4703,2.485,2.5064,2.5064,2.5197,2.5358,2.5371,2.5304,2.5117,2.5344,2.563,2.5935,2.5971,2.602,2.6243,2.6187,2.5838,2.5653,2.5316,2.5107,2.4878,2.4716,2.4703,2.4636,2.4636,2.4636,2.4636,2.4636,2.4636,2.4636,2.4636,2.4636,2.4636,2.4636,2.4636,2.4636,2.4636,2.4636,2.4636,2.4636,2.4636,2.4636,2.4636,2.4636,2.4636,2.4636,2.4636,2.4636,2.4636,2.4636,2.4636,2.4636,2.4636,2.4676,2.4663,2.4676,2.4783,2.489,2.5077,2.5211,2.5371,2.5571,2.5772,2.5959,2.6132,2.6199,2.6333,2.636,2.64,2.64,2.64,2.64,2.64,2.64,2.64,2.64,2.64,2.64,2.64,2.64,2.64,2.64,2.64,2.64,2.64,2.64,2.64,2.64,2.64,2.4414,2.4414,2.4562,2.4636,2.4636,2.4636,2.4636,2.4636,2.4636,2.4636,2.4636,2.4636,2.4636,2.4636,2.4636,2.4636,2.4636,2.4636,2.4636,2.4636,2.4649,2.4636,2.4649,2.4703,2.477,2.489,2.4957,2.5077,2.5371,2.5371,2.5398,2.5518,2.5718,2.5638,2.5451,2.5491,2.5657,2.6039,2.6115,2.6364,2.69,2.6796,2.6589,2.6552,2.6087,2.5616,2.5303,2.5079,2.4863,2.473,2.4703,2.4663,2.4663,2.4649,2.4636,2.4636,2.4636,2.4636,2.4636,2.4636,2.4636,2.4636,2.4636,2.4636,2.4636,2.4636,2.4636,2.4636,2.4636,2.4636,2.4636,2.4636,2.4636,2.4636,2.4636,2.4636,2.4636,2.4636,2.4649,2.4716,2.4743,2.5024,2.5184,2.5291,2.5438,2.5571,2.5745,2.5772,2.5932,2.6132,2.6306,2.6319,2.6373,2.6386,2.64,2.64,2.64,2.64,2.64,2.64,2.64,2.64,2.64,2.64,2.64,2.64,2.64,2.64,2.64,2.64,2.64,2.64,2.64,2.64,2.64,2.4636,2.4636,2.4636,2.4636,2.4636,2.4636,2.4636,2.4636,2.4636,2.4636,2.4636,2.4636,2.4636,2.4636,2.4636,2.4636,2.4636,2.4636,2.4636,2.4649,2.4756,2.4796,2.4823,2.489,2.509,2.5197,2.5264,2.5384,2.5651,2.5665,2.5745,2.5879,2.5999,2.5985,2.5879,2.5852,2.6162,2.6575,2.6821,2.7046,2.7483,2.7564,2.7354,2.7117,2.6682,2.6157,2.5807,2.5486,2.5144,2.4957,2.485,2.4796,2.4783,2.4703,2.4663,2.4636,2.4636,2.4636,2.4636,2.4636,2.4636,2.4636,2.4636,2.4636,2.4636,2.4636,2.4636,2.4636,2.4636,2.4649,2.4649,2.4649,2.469,2.469,2.469,2.469,2.481,2.4823,2.489,2.4943,2.5064,2.5344,2.5598,2.5745,2.5943,2.5985,2.6106,2.6092,2.6079,2.6253,2.64,2.64,2.64,2.64,2.64,2.64,2.64,2.64,2.64,2.64,2.64,2.64,2.64,2.64,2.64,2.64,2.64,2.64,2.64,2.64,2.64,2.64,2.64,2.64,2.64,2.4636,2.4636,2.4636,2.4636,2.4636,2.4636,2.4636,2.4636,2.4636,2.4636,2.4636,2.4636,2.4636,2.4636,2.4636,2.4636,2.4663,2.4663,2.469,2.477,2.497,2.5037,2.517,2.5304,2.5411,2.5491,2.5558,2.5678,2.5945,2.5972,2.6106,2.6253,2.6279,2.6266,2.6253,2.6318,2.6632,2.6997,2.7373,2.7587,2.8028,2.8293,2.7947,2.7616,2.7058,2.6544,2.6156,2.5747,2.5554,2.5371,2.5237,2.5144,2.501,2.4823,2.4716,2.469,2.4716,2.4756,2.477,2.4796,2.4783,2.4823,2.477,2.4703,2.4636,2.4636,2.4636,2.4663,2.469,2.469,2.4616,2.4669,2.4722,2.4796,2.4783,2.489,2.505,2.5144,2.5237,2.5317,2.5438,2.5651,2.5892,2.6144,2.6197,2.6199,2.6266,2.6266,2.6266,2.6279,2.64,2.64,2.64,2.64,2.64,2.64,2.64,2.64,2.64,2.64,2.64,2.64,2.64,2.64,2.64,2.64,2.64,2.64,2.64,2.64,2.64,2.64,2.64,2.64,2.64,2.4636,2.4636,2.4636,2.4636,2.4636,2.4636,2.4636,2.4636,2.4636,2.4636,2.4636,2.4636,2.4636,2.4636,2.4636,2.4636,2.4716,2.4823,2.493,2.5064,2.5251,2.5344,2.5424,2.5518,2.5638,2.5772,2.5865,2.5959,2.6186,2.6253,2.6253,2.636,2.6386,2.64,2.64,2.6386,2.6795,2.7097,2.7398,2.7812,2.8224,2.8492,2.825,2.7883,2.7453,2.6995,2.6484,2.6071,2.5836,2.5531,2.5451,2.5384,2.5371,2.5304,2.5264,2.5264,2.5277,2.5277,2.5264,2.5251,2.5224,2.5184,2.5211,2.497,2.4796,2.469,2.4703,2.4783,2.4877,2.493,2.4997,2.5037,2.5077,2.5104,2.5117,2.5197,2.5344,2.5411,2.5504,2.5625,2.5732,2.5905,2.6146,2.6226,2.6279,2.636,2.64,2.64,2.64,2.64,2.64,2.64,2.64,2.64,2.64,2.64,2.64,2.64,2.64,2.64,2.64,2.64,2.64,2.64,2.64,2.64,2.64,2.64,2.64,2.64,2.64,2.64,2.64,2.64,2.64,2.4636,2.4636,2.4636,2.4636,2.4636,2.4636,2.4636,2.4636,2.4636,2.4636,2.4636,2.4636,2.4636,2.4636,2.4649,2.4703,2.485,2.497,2.5104,2.5317,2.5558,2.5651,2.5692,2.5798,2.5972,2.6079,2.6146,2.6199,2.636,2.64,2.6386,2.6386,2.64,2.64,2.64,2.6386,2.6465,2.6781,2.7175,2.7569,2.7961,2.8275,2.8197,2.804,2.7647,2.713,2.6785,2.6354,2.6077,2.5838,2.5798,2.5692,2.5651,2.5598,2.5504,2.5464,2.5464,2.5451,2.5451,2.5464,2.5504,2.5518,2.5531,2.5331,2.517,2.5064,2.5064,2.509,2.5184,2.5264,2.5331,2.5384,2.5438,2.5491,2.5518,2.5558,2.5611,2.5678,2.5772,2.5892,2.6026,2.6172,2.6306,2.636,2.64,2.64,2.64,2.64,2.64,2.64,2.64,2.64,2.64,2.64,2.64,2.64,2.64,2.64,2.64,2.64,2.64,2.64,2.64,2.64,2.64,2.64,2.64,2.64,2.64,2.64,2.64,2.64,2.64,2.64,2.64,2.4636,2.4636,2.4636,2.4636,2.4636,2.4636,2.4636,2.4636,2.4636,2.4636,2.4636,2.4636,2.4663,2.4716,2.4743,2.489,2.5077,2.5237,2.5398,2.5558,2.5852,2.5985,2.6066,2.6226,2.6239,2.6346,2.6373,2.6333,2.6373,2.64,2.64,2.64,2.64,2.64,2.64,2.64,2.6465,2.6702,2.6939,2.7254,2.749,2.7555,2.7555,2.7476,2.7254,2.6925,2.6847,2.661,2.6386,2.6293,2.6172,2.5999,2.5919,2.5812,2.5692,2.5665,2.5718,2.5718,2.5732,2.5745,2.5692,2.5665,2.5585,2.5638,2.5611,2.5384,2.5317,2.5344,2.5424,2.5531,2.5598,2.5718,2.5798,2.5825,2.5838,2.5892,2.5945,2.5999,2.6039,2.6132,2.6199,2.6333,2.6346,2.64,2.64,2.64,2.64,2.64,2.64,2.64,2.64,2.64,2.64,2.64,2.64,2.64,2.64,2.64,2.64,2.64,2.64,2.64,2.64,2.64,2.64,2.64,2.64,2.64,2.64,2.64,2.64,2.64,2.64,2.64,2.64,2.4636,2.4636,2.4636,2.4636,2.4636,2.4636,2.4636,2.4636,2.4636,2.4636,2.4636,2.4589,2.477,2.4917,2.497,2.513,2.5384,2.5558,2.5758,2.5905,2.6132,2.6213,2.6266,2.6333,2.64,2.64,2.64,2.64,2.64,2.64,2.64,2.64,2.64,2.64,2.6386,2.6386,2.6544,2.6781,2.6939,2.7097,2.7254,2.749,2.7569,2.7254,2.7032,2.6874,2.6702,2.6465,2.6386,2.6346,2.6333,2.6293,2.6279,2.6199,2.6172,2.6172,2.6106,2.6092,2.6092,2.6079,2.6079,2.6119,2.6132,2.6159,2.6052,2.5718,2.5571,2.5611,2.5678,2.5785,2.5892,2.6026,2.6119,2.6132,2.6132,2.6199,2.6266,2.6279,2.6306,2.6346,2.6386,2.64,2.64,2.64,2.64,2.64,2.64,2.64,2.64,2.64,2.64,2.64,2.64,2.64,2.64,2.64,2.64,2.64,2.64,2.64,2.64,2.64,2.64,2.64,2.64,2.64,2.64,2.64,2.64,2.64,2.64,2.64,2.64,2.64,2.64,2.4784,2.4636,2.4636,2.4636,2.4636,2.4636,2.4636,2.4636,2.4636,2.4716,2.4823,2.485,2.493,2.513,2.5211,2.5438,2.5692,2.5852,2.6012,2.6172,2.6266,2.6346,2.64,2.64,2.64,2.64,2.64,2.64,2.64,2.64,2.64,2.64,2.64,2.6386,2.6386,2.6544,2.6781,2.6939,2.7175,2.7254,2.7254,2.749,2.7569,2.7254,2.7018,2.686,2.6702,2.6544,2.6386,2.64,2.6373,2.6373,2.6373,2.6346,2.636,2.636,2.636,2.64,2.64,2.64,2.64,2.64,2.6386,2.6306,2.6306,2.6026,2.5999,2.6039,2.6052,2.6146,2.6146,2.6253,2.6279,2.6279,2.6279,2.6319,2.6333,2.6346,2.636,2.6373,2.64,2.64,2.64,2.64,2.64,2.64,2.64,2.64,2.64,2.64,2.64,2.64,2.64,2.64,2.64,2.64,2.64,2.64,2.64,2.64,2.64,2.64,2.64,2.64,2.64,2.64,2.64,2.64,2.64,2.64,2.64,2.64,2.64,2.64,2.64,2.4931,2.4636,2.4636,2.4636,2.4636,2.4636,2.4636,2.4636,2.4616,2.4836,2.5064,2.5157,2.5184,2.5291,2.5438,2.5732,2.5945,2.6052,2.6199,2.6306,2.6373,2.64,2.64,2.64,2.64,2.64,2.64,2.64,2.64,2.64,2.64,2.64,2.6386,2.6465,2.6544,2.6781,2.7032,2.7333,2.7569,2.7712,2.7712,2.7633,2.7555,2.7476,2.7254,2.7097,2.6939,2.6702,2.6479,2.64,2.64,2.64,2.64,2.64,2.64,2.64,2.64,2.64,2.64,2.64,2.64,2.64,2.64,2.6386,2.6386,2.6373,2.6346,2.6346,2.636,2.6373,2.6373,2.6373,2.6386,2.64,2.64,2.64,2.64,2.64,2.64,2.64,2.64,2.64,2.64,2.64,2.64,2.64,2.64,2.64,2.64,2.64,2.64,2.64,2.64,2.64,2.64,2.64,2.64,2.64,2.64,2.64,2.64,2.64,2.64,2.64,2.64,2.64,2.64,2.64,2.64,2.64,2.64,2.64,2.64,2.64,2.64,2.4931,2.4636,2.4636,2.4636,2.4636,2.4636,2.4636,2.4602,2.489,2.5037,2.5224,2.5598,2.5785,2.5862,2.5825,2.6012,2.6199,2.6253,2.6293,2.6386,2.64,2.64,2.64,2.64,2.64,2.64,2.64,2.64,2.64,2.64,2.64,2.64,2.6386,2.6544,2.6874,2.711,2.7425,2.7805,2.8118,2.8353,2.8417,2.8182,2.7633,2.7555,2.7555,2.7254,2.7097,2.6953,2.6716,2.6479,2.64,2.64,2.64,2.64,2.64,2.64,2.64,2.64,2.64,2.64,2.64,2.64,2.64,2.6386,2.6386,2.6386,2.6373,2.6373,2.6386,2.6386,2.6386,2.6386,2.64,2.64,2.64,2.64,2.64,2.64,2.64,2.64,2.64,2.64,2.64,2.64,2.64,2.64,2.64,2.64,2.64,2.64,2.64,2.64,2.64,2.64,2.64,2.64,2.64,2.64,2.64,2.64,2.64,2.64,2.64,2.64,2.64,2.64,2.64,2.64,2.64,2.64,2.64,2.64,2.64,2.64,2.64]}]]